[[{"header":{"parameterUnit":"m.s-1","parameterCategory":1,"la1":31.0,"la2":29.5877,"lo1":-88.7671,"lo2":-86.6584,"dy":0.0162,"dx":0.0185,"nx":115,"ny":88,"refTime":"2025-07-09T12:00:00:Z","depth":0,"parameterNumber":2,"parameterNumberName":"U-component_of_WINDS"},"data":[0.0,0.0,0.0,0.0,0.0,0.0,0.0,0.0,0.0,0.0,0.0,0.0,0.0,0.0,0.0,0.0,0.0,0.0,0.0,0.0,0.0,0.0,0.0,0.0,0.0,0.0,0.0,0.0,0.0,0.0,0.0,0.0,0.0,0.0,0.0,0.0,0.0,0.0,0.0,0.0,0.0,0.0,0.0,0.0,0.0,0.0,0.0,0.0,0.0,0.0,0.0,0.0,0.0,0.0,0.0,0.0,0.0,0.0,0.0,0.0,0.0,0.0,0.0,0.0,0.0,0.0,0.0,0.0,0.0,0.0,0.0,0.0,0.0,0.0,0.0,0.0,0.0,0.0,0.0,0.0,0.0,0.0,0.0,0.0,0.0,0.0,0.0,0.0,0.0,0.0,0.0,0.0,0.0,0.0,0.0,0.0,0.0,0.0,0.0,0.0,0.0,0.0,0.0,0.0,0.0,0.0,0.0,0.0,0.0,0.0,0.0,0.0,0.0,0.0,0.0,0.0,0.0,0.0,0.0,0.0,0.0,0.0,0.0,0.0,0.0,0.0,0.0,0.0,0.0,0.0,0.0,0.0,0.0,0.0,0.0,0.0,0.0,0.0,0.0,0.0,0.0,0.0,0.0,0.0,0.0,0.0,0.0,0.0,0.0,0.0,0.0,0.0,0.0,0.0,0.0,0.0,0.0,0.0,0.0,0.0,0.0,0.0,0.0,0.0,0.0,0.0,0.0,0.0,0.0,0.0,0.0,0.0,0.0,0.0,0.0,0.0,0.0,0.0,0.0,0.0,0.0,0.0,0.0,0.0,0.0,0.0,0.0,0.0,0.0,0.0,0.0,0.0,0.0,0.0,0.0,0.0,0.0,0.0,0.0,0.0,0.0,0.0,0.0,0.0,0.0,0.0,0.0,0.0,0.0,0.0,0.0,0.0,0.0,0.0,0.0,0.0,0.0,0.0,0.0,0.0,0.0,0.0,0.0,0.0,0.0,0.0,0.0,0.0,0.0,0.0,0.0,0.0,0.0,0.0,0.0,0.0,0.0,0.0,0.0,0.0,0.0,0.0,0.0,0.0,0.0,0.0,0.0,0.0,0.0,0.0,0.0,0.0,0.0,0.0,0.0,0.0,0.0,0.0,0.0,0.0,0.0,0.0,0.0,0.0,0.0,0.0,0.0,0.0,0.0,0.0,0.0,0.0,0.0,0.0,0.0,0.0,0.0,0.0,0.0,0.0,0.0,0.0,0.0,0.0,0.0,0.0,0.0,0.0,0.0,0.0,0.0,0.0,0.0,0.0,0.0,0.0,0.0,0.0,0.0,0.0,0.0,0.0,0.0,0.0,0.0,0.0,0.0,0.0,0.0,0.0,0.0,0.0,0.0,0.0,0.0,0.0,0.0,0.0,0.0,0.0,0.0,0.0,0.0,0.0,0.0,0.0,0.0,0.0,0.0,0.0,0.0,0.0,0.0,0.0,0.0,0.0,0.0,0.0,0.0,0.0,0.0,0.0,0.0,0.0,0.0,0.0,0.0,0.0,0.0,0.0,0.0,0.0,0.0,0.0,0.0,0.0,0.0,0.0,0.0,0.0,0.0,0.0,0.0,0.0,0.0,0.0,0.0,0.0,0.0,0.0,0.0,0.0,0.0,0.0,0.0,0.0,0.0,0.0,0.0,0.0,0.0,0.0,0.0,0.0,0.0,0.0,0.0,0.0,0.0,0.0,0.0,0.0,0.0,0.0,0.0,0.0,0.0,0.0,0.0,0.0,0.0,0.0,0.0,0.0,0.0,0.0,0.0,0.0,0.0,0.0,0.0,0.0,0.0,0.0,0.0,0.0,0.0,0.0,0.0,0.0,0.0,0.0,0.0,0.0,0.0,0.0,0.0,0.0,0.0,0.0,0.0,0.0,0.0,0.0,0.0,0.0,0.0,0.0,0.0,0.0,0.0,0.0,0.0,0.0,0.0,0.0,0.0,0.0,0.0,0.0,0.0,0.0,0.0,0.0,0.0,0.0,0.0,0.0,0.0,0.0,0.0,0.0,0.0,0.0,0.0,0.0,0.0,0.0,0.0,0.0,0.0,0.0,0.0,0.0,0.0,0.0,0.0,0.0,0.0,0.0,0.0,0.0,0.0,0.0,0.0,0.0,0.0,0.0,0.0,0.0,0.0,0.0,0.0,0.0,0.0,0.0,0.0,0.0,0.0,0.0,0.0,0.0,0.0,0.0,0.0,0.0,0.0,0.0,0.0,0.0,0.0,0.0,0.0,0.0,0.0,0.0,0.0,0.0,0.0,0.0,0.0,0.0,0.0,0.0,0.0,0.0,0.0,0.0,0.0,0.0,0.0,0.0,0.0,0.0,0.0,0.0,0.0,0.0,0.0,0.0,0.0,0.0,0.0,0.0,0.0,0.0,0.0,0.0,0.0,0.0,0.0,0.0,0.0,0.0,0.0,0.0,0.0,0.0,0.0,0.0,0.0,0.0,0.0,0.0,0.0,0.0,0.0,0.0,0.0,0.0,0.0,0.0,0.0,0.0,0.0,0.0,0.0,0.0,0.0,0.0,0.0,0.0,0.0,0.0,0.0,0.0,0.0,0.0,0.0,0.0,0.0,0.0,0.0,0.0,0.0,0.0,0.0,0.0,0.0,0.0,0.0,0.0,0.0,0.0,0.0,0.0,0.0,0.0,0.0,0.0,0.0,0.0,0.0,0.0,0.0,0.0,0.0,0.0,0.0,0.0,0.0,0.0,0.0,0.0,0.0,0.0,0.0,0.0,0.0,0.0,0.0,0.0,0.0,0.0,0.0,0.0,0.0,0.0,0.0,0.0,0.0,0.0,0.0,0.0,0.0,0.0,0.0,0.0,0.0,0.0,0.0,0.0,0.0,0.0,0.0,0.0,0.0,0.0,0.0,0.0,0.0,0.0,0.0,0.0,0.0,0.0,0.0,0.0,0.0,0.0,0.0,0.0,0.0,0.0,0.0,0.0,0.0,0.0,0.0,0.0,0.0,0.0,0.0,0.0,0.0,0.0,0.0,0.0,0.0,0.0,0.0,0.0,0.0,0.0,0.0,0.0,0.0,0.0,0.0,0.0,0.0,0.0,0.0,0.0,0.0,0.0,0.0,0.0,0.0,0.0,0.0,0.0,0.0,0.0,0.0,0.0,0.0,0.0,0.0,0.0,0.0,0.0,0.0,0.0,0.0,0.0,0.0,0.0,0.0,0.0,0.0,0.0,0.0,0.0,0.0,0.0,0.0,0.0,0.0,0.0,0.0,0.0,0.0,0.0,0.0,0.0,0.0,0.0,0.0,0.0,0.0,0.0,0.0,0.0,0.0,0.0,0.0,0.0,0.0,0.0,0.0,0.0,0.0,0.0,0.0,0.0,0.0,0.0,0.0,0.0,0.0,0.0,0.0,0.0,0.0,0.0,0.0,0.0,0.0,0.0,0.0,0.0,0.0,0.0,0.0,0.0,0.0,0.0,0.0,0.0,0.0,0.0,0.0,0.0,0.0,0.0,0.0,0.0,0.0,0.0,0.0,0.0,0.0,0.0,0.0,0.0,0.0,0.0,0.0,0.0,0.0,0.0,0.0,0.0,0.0,0.0,0.0,0.0,0.0,0.0,0.0,0.0,0.0,0.0,0.0,0.0,0.0,0.0,0.0,0.0,0.0,0.0,0.0,0.0,0.0,0.0,0.0,0.0,0.0,0.0,0.0,0.0,0.0,0.0,0.0,0.0,0.0,0.0,0.0,0.0,0.0,0.0,0.0,0.0,0.0,0.0,0.0,0.0,0.0,0.0,0.0,0.0,0.0,0.0,0.0,0.0,0.0,0.0,0.0,0.0,0.0,0.0,0.0,0.0,0.0,0.0,0.0,0.0,0.0,0.0,0.0,0.0,0.0,0.0,0.0,0.0,0.0,0.0,0.0,0.0,0.0,0.0,0.0,0.0,0.0,0.0,0.0,0.0,0.0,0.0,0.0,0.0,0.0,0.0,0.0,0.0,0.0,0.0,0.0,0.0,0.0,0.0,0.0,0.0,0.0,0.0,0.0,0.0,0.0,0.0,0.0,0.0,0.0,0.0,0.0,0.0,0.0,0.0,0.0,0.0,0.0,0.0,0.0,0.0,0.0,0.0,0.0,0.0,0.0,0.0,0.0,0.0,0.0,0.0,0.0,0.0,0.0,0.0,0.0,0.0,0.0,0.0,0.0,0.0,0.0,0.0,0.0,0.0,0.0,0.0,0.0,0.0,0.0,0.0,0.0,0.0,-2.416,0.0,0.0,0.0,0.0,0.0,0.0,0.0,0.0,0.0,0.0,0.0,0.0,0.0,0.0,0.0,0.0,0.0,0.0,0.0,0.0,0.0,0.0,0.0,0.0,0.0,0.0,0.0,0.0,0.0,0.0,0.0,0.0,0.0,0.0,0.0,0.0,0.0,0.0,0.0,0.0,0.0,0.0,0.0,0.0,0.0,0.0,0.0,0.0,0.0,0.0,0.0,0.0,0.0,0.0,0.0,0.0,0.0,0.0,0.0,0.0,0.0,0.0,0.0,0.0,0.0,0.0,0.0,0.0,0.0,0.0,0.0,0.0,0.0,0.0,0.0,0.0,0.0,0.0,0.0,0.0,0.0,0.0,0.0,0.0,0.0,0.0,0.0,0.0,0.0,0.0,0.0,0.0,0.0,0.0,0.0,0.0,0.0,0.0,0.0,0.0,0.0,0.0,0.0,0.0,0.0,0.0,0.0,0.0,0.0,0.0,-2.4727,-2.4666,-2.4518,-2.4329,-2.4126,0.0,0.0,0.0,0.0,0.0,0.0,0.0,0.0,0.0,0.0,0.0,0.0,0.0,0.0,0.0,0.0,0.0,0.0,0.0,0.0,0.0,0.0,0.0,0.0,0.0,0.0,0.0,0.0,0.0,0.0,0.0,0.0,0.0,0.0,0.0,0.0,0.0,0.0,0.0,0.0,0.0,0.0,0.0,0.0,0.0,0.0,0.0,0.0,0.0,0.0,0.0,0.0,0.0,0.0,0.0,0.0,0.0,0.0,0.0,0.0,0.0,0.0,0.0,0.0,0.0,0.0,0.0,0.0,0.0,0.0,0.0,0.0,0.0,0.0,0.0,0.0,0.0,0.0,0.0,0.0,0.0,0.0,0.0,0.0,0.0,0.0,0.0,0.0,0.0,0.0,0.0,0.0,0.0,0.0,0.0,0.0,0.0,0.0,0.0,0.0,0.0,0.0,0.0,0.0,0.0,0.0,0.0,0.0,0.0,0.0,0.0,0.0,-2.5153,-2.4961,-2.4759,0.0,0.0,0.0,0.0,0.0,0.0,0.0,0.0,0.0,0.0,0.0,0.0,0.0,0.0,0.0,0.0,0.0,0.0,0.0,0.0,0.0,0.0,0.0,0.0,0.0,0.0,0.0,0.0,0.0,0.0,0.0,0.0,0.0,0.0,0.0,0.0,0.0,0.0,0.0,0.0,0.0,0.0,0.0,0.0,0.0,0.0,0.0,0.0,0.0,0.0,0.0,0.0,0.0,0.0,0.0,0.0,0.0,0.0,0.0,0.0,0.0,0.0,0.0,0.0,0.0,0.0,0.0,0.0,0.0,0.0,0.0,0.0,0.0,0.0,0.0,0.0,0.0,0.0,0.0,0.0,0.0,0.0,0.0,0.0,0.0,0.0,0.0,0.0,0.0,0.0,0.0,0.0,0.0,0.0,0.0,0.0,0.0,0.0,0.0,0.0,0.0,0.0,0.0,0.0,0.0,0.0,0.0,0.0,0.0,0.0,-2.5555,-2.7857,-2.7685,0.0,-2.7119,0.0,0.0,0.0,0.0,0.0,0.0,0.0,0.0,0.0,0.0,0.0,0.0,0.0,0.0,0.0,0.0,0.0,0.0,0.0,0.0,0.0,0.0,0.0,0.0,0.0,0.0,0.0,0.0,0.0,0.0,0.0,0.0,0.0,0.0,0.0,0.0,0.0,0.0,0.0,0.0,0.0,0.0,0.0,0.0,0.0,0.0,0.0,0.0,0.0,0.0,0.0,0.0,0.0,0.0,0.0,0.0,0.0,0.0,0.0,0.0,0.0,0.0,0.0,0.0,0.0,0.0,0.0,0.0,0.0,0.0,0.0,0.0,0.0,0.0,0.0,0.0,0.0,0.0,0.0,0.0,0.0,0.0,0.0,0.0,0.0,0.0,0.0,0.0,0.0,0.0,0.0,0.0,0.0,0.0,0.0,0.0,0.0,0.0,0.0,0.0,0.0,0.0,0.0,0.0,0.0,0.0,0.0,0.0,0.0,0.0,-2.7149,-2.8576,-2.7955,-2.7547,0.0,0.0,0.0,0.0,0.0,0.0,0.0,0.0,0.0,0.0,0.0,0.0,0.0,0.0,0.0,0.0,0.0,0.0,0.0,0.0,0.0,0.0,0.0,0.0,0.0,0.0,0.0,0.0,0.0,0.0,0.0,0.0,0.0,0.0,0.0,0.0,0.0,0.0,0.0,0.0,0.0,0.0,0.0,0.0,0.0,0.0,0.0,0.0,0.0,0.0,0.0,0.0,0.0,0.0,0.0,0.0,0.0,0.0,0.0,0.0,0.0,0.0,0.0,0.0,0.0,0.0,0.0,0.0,0.0,0.0,0.0,0.0,0.0,0.0,0.0,0.0,0.0,0.0,0.0,0.0,0.0,0.0,0.0,0.0,0.0,0.0,0.0,0.0,0.0,0.0,0.0,0.0,0.0,0.0,0.0,0.0,0.0,0.0,0.0,0.0,0.0,0.0,0.0,0.0,0.0,0.0,0.0,0.0,0.0,0.0,-2.7616,-2.8385,-2.9357,-2.8785,-2.8118,-2.7405,0.0,0.0,0.0,0.0,0.0,0.0,0.0,0.0,0.0,0.0,0.0,0.0,0.0,0.0,0.0,0.0,0.0,0.0,0.0,0.0,0.0,0.0,0.0,0.0,0.0,0.0,0.0,0.0,0.0,0.0,0.0,0.0,0.0,0.0,0.0,0.0,0.0,0.0,0.0,0.0,0.0,0.0,0.0,0.0,0.0,0.0,0.0,0.0,0.0,0.0,0.0,0.0,0.0,0.0,0.0,0.0,0.0,0.0,0.0,0.0,0.0,0.0,0.0,0.0,0.0,0.0,0.0,0.0,0.0,0.0,0.0,0.0,0.0,0.0,0.0,0.0,0.0,0.0,0.0,0.0,0.0,0.0,0.0,0.0,0.0,0.0,0.0,0.0,0.0,0.0,0.0,0.0,0.0,0.0,0.0,0.0,0.0,0.0,0.0,0.0,0.0,0.0,0.0,0.0,0.0,0.0,0.0,0.0,-3.0662,-2.892,-2.8867,-3.1039,-3.0979,-2.9823,0.0,0.0,0.0,0.0,0.0,0.0,0.0,0.0,0.0,0.0,0.0,0.0,0.0,0.0,0.0,0.0,0.0,0.0,0.0,0.0,0.0,0.0,0.0,0.0,0.0,0.0,0.0,0.0,0.0,0.0,0.0,0.0,0.0,0.0,0.0,0.0,0.0,0.0,0.0,0.0,0.0,0.0,0.0,0.0,0.0,0.0,0.0,0.0,0.0,0.0,0.0,0.0,0.0,0.0,0.0,0.0,0.0,0.0,0.0,0.0,0.0,0.0,0.0,0.0,0.0,0.0,0.0,0.0,0.0,0.0,0.0,0.0,0.0,0.0,0.0,0.0,0.0,0.0,0.0,0.0,0.0,0.0,0.0,0.0,0.0,0.0,0.0,0.0,0.0,0.0,0.0,0.0,0.0,0.0,0.0,0.0,0.0,0.0,0.0,0.0,0.0,0.0,0.0,0.0,0.0,0.0,0.0,0.0,0.0,-2.8014,-2.9247,-3.1233,-3.3905,-3.1152,-2.9549,0.0,0.0,0.0,0.0,0.0,0.0,0.0,0.0,0.0,0.0,0.0,0.0,0.0,0.0,0.0,0.0,0.0,0.0,0.0,0.0,0.0,0.0,0.0,0.0,0.0,0.0,0.0,0.0,0.0,0.0,0.0,0.0,0.0,0.0,0.0,0.0,0.0,0.0,0.0,0.0,0.0,0.0,0.0,0.0,0.0,0.0,0.0,0.0,0.0,0.0,0.0,0.0,0.0,0.0,0.0,0.0,0.0,0.0,0.0,0.0,0.0,0.0,0.0,0.0,0.0,0.0,0.0,0.0,0.0,0.0,0.0,0.0,0.0,0.0,0.0,0.0,0.0,0.0,0.0,0.0,0.0,0.0,0.0,0.0,0.0,0.0,0.0,0.0,0.0,0.0,0.0,0.0,0.0,0.0,0.0,0.0,0.0,0.0,0.0,0.0,0.0,0.0,0.0,0.0,0.0,0.0,0.0,0.0,0.0,-2.8264,0.0,-3.3303,-3.4437,-3.1492,-2.9554,0.0,0.0,0.0,0.0,0.0,0.0,0.0,0.0,0.0,0.0,0.0,0.0,0.0,0.0,0.0,0.0,0.0,0.0,0.0,0.0,0.0,0.0,0.0,0.0,0.0,0.0,0.0,0.0,0.0,0.0,0.0,0.0,0.0,0.0,0.0,0.0,0.0,0.0,0.0,0.0,0.0,0.0,0.0,0.0,0.0,0.0,0.0,0.0,0.0,0.0,0.0,0.0,0.0,0.0,0.0,0.0,0.0,0.0,0.0,0.0,0.0,0.0,0.0,0.0,0.0,0.0,0.0,0.0,0.0,0.0,0.0,0.0,0.0,0.0,0.0,0.0,0.0,0.0,0.0,0.0,0.0,0.0,0.0,0.0,0.0,0.0,0.0,0.0,0.0,0.0,0.0,0.0,0.0,0.0,0.0,0.0,0.0,0.0,0.0,0.0,0.0,0.0,0.0,0.0,0.0,0.0,0.0,0.0,-2.7595,-3.2138,-3.4557,-3.4655,-3.2456,-3.215,-2.988,0.0,0.0,0.0,0.0,0.0,0.0,0.0,0.0,0.0,0.0,0.0,0.0,0.0,0.0,0.0,0.0,0.0,0.0,0.0,0.0,0.0,0.0,0.0,0.0,0.0,0.0,0.0,0.0,0.0,0.0,0.0,0.0,0.0,0.0,0.0,0.0,0.0,0.0,0.0,0.0,0.0,0.0,0.0,0.0,0.0,0.0,0.0,0.0,0.0,0.0,0.0,0.0,0.0,0.0,0.0,0.0,0.0,0.0,0.0,0.0,0.0,0.0,0.0,0.0,0.0,0.0,0.0,0.0,0.0,0.0,0.0,0.0,0.0,0.0,0.0,0.0,0.0,0.0,0.0,0.0,0.0,0.0,0.0,0.0,0.0,0.0,0.0,0.0,0.0,0.0,0.0,0.0,0.0,0.0,0.0,0.0,0.0,0.0,0.0,0.0,0.0,0.0,0.0,0.0,0.0,0.0,0.0,0.0,0.0,-3.1415,-3.2718,-3.3796,-3.4546,-3.1455,-2.9536,0.0,0.0,0.0,0.0,0.0,0.0,0.0,0.0,0.0,0.0,0.0,0.0,0.0,0.0,0.0,0.0,0.0,0.0,0.0,0.0,0.0,0.0,0.0,0.0,0.0,0.0,0.0,0.0,0.0,0.0,0.0,0.0,0.0,0.0,0.0,0.0,0.0,0.0,0.0,0.0,0.0,0.0,0.0,0.0,0.0,0.0,0.0,0.0,0.0,0.0,0.0,0.0,0.0,0.0,0.0,0.0,0.0,0.0,0.0,0.0,0.0,0.0,0.0,0.0,0.0,0.0,0.0,0.0,0.0,0.0,0.0,0.0,0.0,0.0,0.0,0.0,0.0,0.0,0.0,0.0,0.0,0.0,0.0,0.0,0.0,0.0,0.0,0.0,0.0,0.0,0.0,0.0,0.0,0.0,0.0,0.0,0.0,0.0,0.0,0.0,0.0,0.0,0.0,0.0,0.0,0.0,0.0,0.0,0.0,-3.2379,-3.3731,-3.4746,-3.5333,-3.184,-2.9804,-2.9435,0.0,0.0,0.0,0.0,0.0,0.0,0.0,0.0,0.0,0.0,0.0,0.0,0.0,0.0,0.0,0.0,0.0,0.0,0.0,0.0,0.0,0.0,0.0,0.0,0.0,0.0,0.0,0.0,0.0,0.0,0.0,0.0,0.0,0.0,0.0,0.0,0.0,0.0,0.0,0.0,0.0,0.0,0.0,0.0,0.0,0.0,0.0,0.0,0.0,0.0,0.0,0.0,0.0,0.0,0.0,0.0,0.0,0.0,0.0,0.0,0.0,0.0,0.0,0.0,0.0,0.0,0.0,0.0,0.0,0.0,0.0,0.0,0.0,0.0,0.0,0.0,0.0,0.0,0.0,0.0,0.0,0.0,0.0,0.0,0.0,0.0,0.0,0.0,0.0,0.0,0.0,0.0,0.0,0.0,0.0,0.0,0.0,0.0,0.0,0.0,0.0,0.0,0.0,0.0,0.0,0.0,0.0,0.0,-3.4516,-3.7005,-3.7168,-3.4914,-3.3121,-3.064,0.0,0.0,0.0,0.0,0.0,0.0,0.0,0.0,0.0,0.0,0.0,0.0,0.0,0.0,0.0,0.0,0.0,0.0,0.0,0.0,0.0,0.0,0.0,0.0,0.0,0.0,0.0,0.0,0.0,0.0,0.0,0.0,0.0,0.0,0.0,0.0,0.0,0.0,0.0,0.0,0.0,0.0,0.0,0.0,0.0,0.0,0.0,0.0,0.0,0.0,0.0,0.0,0.0,0.0,0.0,0.0,0.0,0.0,0.0,0.0,0.0,0.0,0.0,0.0,0.0,0.0,0.0,0.0,0.0,0.0,0.0,0.0,0.0,0.0,0.0,0.0,0.0,0.0,0.0,0.0,0.0,0.0,0.0,0.0,0.0,0.0,0.0,0.0,0.0,0.0,0.0,0.0,0.0,0.0,0.0,0.0,0.0,0.0,0.0,0.0,0.0,0.0,0.0,0.0,0.0,0.0,0.0,0.0,0.0,-3.3791,-3.6667,-3.7917,-3.7196,-3.3973,-3.1412,0.0,0.0,0.0,0.0,0.0,0.0,0.0,0.0,0.0,0.0,0.0,0.0,0.0,0.0,0.0,0.0,0.0,0.0,0.0,0.0,0.0,0.0,0.0,0.0,0.0,0.0,0.0,0.0,0.0,0.0,0.0,0.0,0.0,0.0,0.0,0.0,0.0,0.0,0.0,0.0,0.0,0.0,0.0,0.0,0.0,0.0,0.0,0.0,0.0,0.0,0.0,0.0,0.0,0.0,0.0,0.0,0.0,0.0,0.0,0.0,0.0,0.0,0.0,0.0,0.0,0.0,0.0,0.0,0.0,0.0,0.0,0.0,0.0,0.0,0.0,0.0,0.0,0.0,0.0,0.0,0.0,0.0,0.0,0.0,0.0,0.0,0.0,0.0,0.0,0.0,0.0,0.0,0.0,0.0,0.0,0.0,0.0,0.0,0.0,0.0,0.0,0.0,0.0,0.0,0.0,0.0,0.0,0.0,-3.3737,-3.4425,-3.6904,-3.8209,-3.8209,-3.5294,-3.267,0.0,0.0,0.0,0.0,0.0,0.0,0.0,0.0,0.0,0.0,0.0,0.0,0.0,0.0,0.0,0.0,0.0,0.0,0.0,0.0,0.0,0.0,0.0,0.0,0.0,0.0,0.0,0.0,0.0,0.0,0.0,0.0,0.0,0.0,0.0,0.0,0.0,0.0,0.0,0.0,0.0,0.0,0.0,0.0,0.0,0.0,0.0,0.0,0.0,0.0,0.0,0.0,0.0,0.0,0.0,0.0,0.0,0.0,0.0,0.0,0.0,0.0,0.0,0.0,0.0,0.0,0.0,0.0,0.0,0.0,0.0,0.0,0.0,0.0,0.0,0.0,0.0,0.0,0.0,0.0,0.0,0.0,0.0,0.0,0.0,0.0,0.0,0.0,0.0,0.0,0.0,0.0,0.0,0.0,0.0,0.0,0.0,0.0,0.0,0.0,0.0,0.0,0.0,0.0,0.0,0.0,0.0,0.0,-3.4265,-3.5768,-3.7377,-3.8209,-3.8172,-3.6562,-3.3962,0.0,0.0,0.0,0.0,0.0,0.0,0.0,0.0,0.0,0.0,0.0,0.0,0.0,0.0,0.0,0.0,0.0,0.0,0.0,0.0,0.0,0.0,0.0,0.0,0.0,0.0,0.0,0.0,0.0,0.0,0.0,0.0,0.0,0.0,0.0,0.0,0.0,0.0,0.0,0.0,0.0,0.0,0.0,0.0,0.0,0.0,0.0,0.0,0.0,0.0,0.0,0.0,0.0,0.0,0.0,0.0,0.0,0.0,0.0,0.0,0.0,0.0,0.0,0.0,0.0,0.0,0.0,0.0,0.0,0.0,0.0,0.0,0.0,0.0,0.0,0.0,0.0,0.0,0.0,0.0,0.0,0.0,0.0,0.0,0.0,0.0,0.0,0.0,0.0,0.0,0.0,0.0,0.0,0.0,0.0,0.0,0.0,0.0,0.0,0.0,0.0,0.0,0.0,0.0,0.0,0.0,0.0,0.0,-3.4824,-3.5786,-3.7377,-3.8209,-3.8191,-3.6037,-3.3656,0.0,0.0,0.0,0.0,0.0,0.0,0.0,0.0,0.0,0.0,0.0,0.0,0.0,0.0,0.0,0.0,0.0,0.0,0.0,0.0,0.0,0.0,0.0,0.0,0.0,0.0,0.0,0.0,0.0,0.0,0.0,0.0,0.0,0.0,0.0,0.0,0.0,0.0,0.0,0.0,0.0,0.0,0.0,0.0,0.0,0.0,0.0,0.0,-3.0649,0.0,0.0,0.0,0.0,0.0,0.0,0.0,0.0,0.0,0.0,0.0,0.0,0.0,0.0,0.0,0.0,0.0,0.0,0.0,0.0,0.0,0.0,0.0,0.0,0.0,0.0,0.0,0.0,0.0,0.0,0.0,0.0,0.0,0.0,0.0,0.0,0.0,0.0,0.0,0.0,0.0,0.0,0.0,0.0,0.0,0.0,0.0,0.0,0.0,0.0,0.0,0.0,0.0,0.0,0.0,0.0,0.0,0.0,0.0,-3.5152,-3.6345,-3.7575,-3.8209,-3.8138,-3.6381,-3.4269,0.0,0.0,0.0,0.0,0.0,0.0,0.0,0.0,0.0,0.0,0.0,0.0,0.0,0.0,0.0,0.0,0.0,0.0,0.0,0.0,0.0,0.0,0.0,0.0,0.0,0.0,0.0,0.0,0.0,0.0,0.0,0.0,0.0,0.0,0.0,0.0,0.0,0.0,0.0,0.0,0.0,0.0,0.0,0.0,0.0,0.0,0.0,0.0,0.0,0.0,0.0,0.0,0.0,0.0,0.0,0.0,0.0,0.0,0.0,0.0,0.0,0.0,0.0,0.0,0.0,0.0,0.0,0.0,0.0,0.0,0.0,0.0,0.0,0.0,0.0,0.0,0.0,0.0,0.0,0.0,0.0,0.0,0.0,0.0,0.0,0.0,0.0,0.0,0.0,0.0,0.0,0.0,0.0,0.0,0.0,0.0,0.0,0.0,0.0,0.0,0.0,0.0,0.0,0.0,0.0,0.0,0.0,-3.3103,-3.5313,-3.7122,-3.7865,-3.8209,-3.8174,-3.7075,-3.519,-3.2506,0.0,0.0,0.0,0.0,0.0,0.0,0.0,0.0,0.0,0.0,0.0,0.0,0.0,0.0,0.0,0.0,0.0,0.0,0.0,0.0,0.0,0.0,0.0,0.0,0.0,0.0,0.0,0.0,0.0,0.0,0.0,0.0,0.0,0.0,0.0,0.0,0.0,0.0,-2.488,-2.8027,0.0,0.0,0.0,0.0,0.0,0.0,0.0,0.0,-3.2574,0.0,0.0,0.0,0.0,0.0,0.0,0.0,0.0,0.0,0.0,0.0,0.0,0.0,0.0,0.0,0.0,0.0,0.0,0.0,0.0,0.0,0.0,0.0,0.0,0.0,0.0,0.0,0.0,0.0,0.0,0.0,0.0,0.0,0.0,0.0,0.0,0.0,0.0,0.0,0.0,0.0,0.0,0.0,0.0,0.0,0.0,0.0,0.0,0.0,0.0,0.0,0.0,0.0,0.0,0.0,0.0,-3.3737,-3.3683,-3.5023,-3.7919,-3.8118,-3.8209,-3.8192,-3.7613,-3.5759,-3.2523,0.0,0.0,0.0,0.0,0.0,0.0,0.0,0.0,0.0,0.0,0.0,0.0,0.0,0.0,0.0,0.0,0.0,0.0,0.0,0.0,0.0,0.0,0.0,0.0,0.0,0.0,0.0,0.0,0.0,0.0,0.0,0.0,0.0,0.0,0.0,0.0,0.0,0.0,0.0,-2.9338,-3.1176,0.0,0.0,0.0,0.0,0.0,0.0,0.0,0.0,-3.2248,0.0,0.0,0.0,0.0,0.0,0.0,0.0,0.0,0.0,0.0,0.0,0.0,0.0,0.0,0.0,0.0,0.0,0.0,0.0,0.0,0.0,0.0,0.0,0.0,0.0,0.0,0.0,0.0,0.0,0.0,0.0,0.0,0.0,0.0,0.0,0.0,0.0,0.0,0.0,0.0,0.0,0.0,0.0,0.0,0.0,0.0,0.0,0.0,0.0,0.0,0.0,0.0,0.0,0.0,0.0,-3.2578,-3.3973,-3.5802,-3.8101,-3.8209,-3.8209,-3.8174,-3.6809,-3.4907,0.0,0.0,0.0,0.0,0.0,0.0,0.0,0.0,0.0,0.0,0.0,0.0,0.0,0.0,0.0,0.0,0.0,0.0,0.0,0.0,0.0,0.0,0.0,0.0,0.0,0.0,0.0,0.0,0.0,0.0,0.0,0.0,0.0,0.0,0.0,0.0,0.0,0.0,0.0,0.0,-2.9895,-3.1308,-3.2171,0.0,0.0,0.0,0.0,0.0,0.0,-3.3045,-3.2778,0.0,0.0,0.0,0.0,0.0,0.0,0.0,0.0,0.0,0.0,0.0,0.0,0.0,0.0,0.0,0.0,0.0,0.0,0.0,0.0,0.0,0.0,0.0,0.0,0.0,0.0,0.0,0.0,0.0,0.0,0.0,0.0,0.0,0.0,0.0,0.0,0.0,0.0,0.0,0.0,0.0,0.0,0.0,0.0,0.0,0.0,0.0,0.0,0.0,0.0,0.0,0.0,0.0,0.0,0.0,-3.1034,-3.3846,-3.6164,-3.7865,-3.8101,-3.8085,-3.7801,-3.5954,-3.404,0.0,0.0,0.0,0.0,0.0,0.0,0.0,0.0,0.0,0.0,0.0,0.0,0.0,0.0,0.0,0.0,0.0,0.0,0.0,0.0,0.0,0.0,0.0,0.0,0.0,0.0,0.0,0.0,0.0,0.0,0.0,0.0,0.0,0.0,0.0,0.0,0.0,0.0,0.0,0.0,0.0,-3.1954,-3.2414,-3.2959,0.0,0.0,0.0,0.0,-3.3723,-3.3905,0.0,0.0,0.0,0.0,0.0,0.0,0.0,0.0,0.0,0.0,0.0,0.0,0.0,0.0,0.0,0.0,0.0,0.0,0.0,0.0,0.0,0.0,0.0,0.0,0.0,0.0,0.0,0.0,0.0,0.0,0.0,0.0,0.0,0.0,0.0,0.0,0.0,0.0,0.0,0.0,0.0,0.0,0.0,0.0,0.0,0.0,0.0,0.0,0.0,0.0,0.0,0.0,0.0,0.0,0.0,0.0,-3.0944,-3.2759,-3.4806,-3.7031,-3.7846,-3.7677,-3.663,-3.5985,-3.4175,0.0,0.0,0.0,0.0,0.0,0.0,0.0,0.0,0.0,0.0,0.0,0.0,0.0,0.0,0.0,0.0,0.0,0.0,0.0,0.0,0.0,0.0,0.0,0.0,0.0,0.0,0.0,0.0,0.0,0.0,0.0,0.0,0.0,0.0,0.0,0.0,0.0,0.0,0.0,0.0,0.0,-3.423,-3.3153,-3.3617,-3.4041,0.0,0.0,-3.4575,-3.3912,-3.4352,0.0,0.0,0.0,0.0,0.0,0.0,0.0,0.0,0.0,0.0,0.0,0.0,0.0,0.0,0.0,0.0,0.0,0.0,0.0,0.0,0.0,0.0,0.0,0.0,0.0,0.0,0.0,0.0,0.0,0.0,0.0,0.0,0.0,0.0,0.0,0.0,0.0,0.0,0.0,0.0,0.0,0.0,0.0,0.0,0.0,0.0,0.0,0.0,0.0,0.0,0.0,0.0,0.0,0.0,0.0,-2.8033,-3.0328,-3.3248,-3.5494,-3.6941,-3.7339,-3.7155,-3.6416,-3.4765,-3.2687,0.0,0.0,0.0,0.0,0.0,0.0,0.0,0.0,0.0,0.0,0.0,0.0,0.0,0.0,0.0,0.0,0.0,0.0,0.0,0.0,0.0,0.0,0.0,0.0,0.0,0.0,0.0,0.0,0.0,0.0,0.0,0.0,0.0,0.0,0.0,0.0,0.0,0.0,0.0,0.0,0.0,0.0,-3.3043,-3.3668,0.0,0.0,0.0,-3.4522,-3.4989,0.0,0.0,0.0,0.0,0.0,0.0,0.0,0.0,0.0,0.0,0.0,0.0,0.0,0.0,0.0,0.0,0.0,0.0,0.0,0.0,0.0,0.0,0.0,0.0,0.0,0.0,0.0,0.0,0.0,0.0,0.0,0.0,0.0,0.0,0.0,0.0,0.0,0.0,0.0,0.0,0.0,0.0,0.0,0.0,0.0,0.0,0.0,0.0,0.0,0.0,0.0,0.0,0.0,0.0,0.0,0.0,0.0,-2.9536,-3.3465,-3.5802,-3.6379,-3.6596,-3.6382,-3.5669,-3.3546,0.0,0.0,0.0,0.0,0.0,0.0,0.0,0.0,0.0,0.0,0.0,0.0,0.0,0.0,0.0,0.0,0.0,0.0,0.0,0.0,0.0,0.0,0.0,0.0,0.0,0.0,0.0,-2.1586,0.0,0.0,0.0,0.0,0.0,0.0,0.0,0.0,0.0,0.0,0.0,0.0,0.0,0.0,-3.214,-3.3122,-3.3828,-3.4609,0.0,0.0,-3.4667,-3.5578,-3.4965,-3.3972,0.0,0.0,0.0,0.0,0.0,0.0,0.0,0.0,0.0,0.0,0.0,0.0,0.0,0.0,0.0,0.0,0.0,0.0,0.0,0.0,0.0,0.0,0.0,0.0,0.0,0.0,0.0,0.0,0.0,0.0,0.0,0.0,0.0,0.0,0.0,0.0,0.0,0.0,0.0,0.0,0.0,0.0,0.0,0.0,0.0,0.0,0.0,0.0,0.0,0.0,0.0,0.0,0.0,0.0,0.0,-2.8781,-3.2636,-3.4715,-3.4787,-3.5494,-3.5171,-3.3724,-3.2861,-3.0976,0.0,0.0,0.0,0.0,0.0,0.0,0.0,0.0,0.0,0.0,0.0,0.0,0.0,0.0,0.0,0.0,0.0,0.0,0.0,0.0,0.0,0.0,0.0,0.0,0.0,0.0,0.0,0.0,0.0,0.0,0.0,0.0,0.0,0.0,0.0,0.0,0.0,0.0,0.0,0.0,0.0,-3.4409,-3.3829,-3.4376,-3.489,0.0,0.0,-3.5644,-3.5065,-3.5462,-3.5131,-3.3033,0.0,0.0,0.0,0.0,0.0,0.0,0.0,0.0,0.0,0.0,0.0,0.0,0.0,0.0,0.0,0.0,0.0,0.0,0.0,0.0,0.0,0.0,0.0,0.0,0.0,0.0,0.0,0.0,0.0,0.0,0.0,0.0,0.0,0.0,0.0,0.0,0.0,0.0,0.0,0.0,0.0,0.0,0.0,0.0,0.0,0.0,0.0,0.0,0.0,0.0,0.0,0.0,0.0,-2.7296,-2.8618,-3.2075,-3.3864,-3.3831,-3.3499,-3.2884,-3.2122,-3.1131,-2.9523,0.0,0.0,0.0,0.0,0.0,0.0,0.0,0.0,0.0,0.0,0.0,0.0,0.0,0.0,0.0,0.0,0.0,0.0,0.0,0.0,0.0,0.0,0.0,0.0,0.0,0.0,0.0,0.0,-2.2492,-2.2492,-2.2477,0.0,0.0,0.0,0.0,0.0,0.0,0.0,0.0,0.0,0.0,-3.3591,-3.3779,-3.4419,0.0,0.0,-3.5429,-3.5379,-3.5562,-3.4667,-3.3657,-3.2812,-3.1559,0.0,0.0,0.0,0.0,0.0,0.0,0.0,0.0,0.0,0.0,0.0,0.0,0.0,0.0,0.0,0.0,0.0,0.0,0.0,0.0,0.0,0.0,0.0,0.0,0.0,0.0,0.0,0.0,0.0,0.0,0.0,0.0,0.0,0.0,0.0,0.0,0.0,0.0,0.0,0.0,0.0,0.0,0.0,0.0,0.0,0.0,0.0,0.0,0.0,0.0,0.0,0.0,-2.6862,-2.8238,-3.1184,-3.2669,-3.2687,-3.1814,-3.1191,-3.084,-2.976,-2.8373,0.0,0.0,0.0,0.0,0.0,0.0,0.0,0.0,0.0,0.0,0.0,0.0,0.0,0.0,0.0,0.0,0.0,0.0,0.0,0.0,0.0,0.0,0.0,0.0,0.0,0.0,0.0,0.0,-2.2707,-2.2758,-2.3172,0.0,0.0,0.0,0.0,0.0,0.0,0.0,0.0,0.0,0.0,-3.3299,-3.4021,-3.4568,-3.5081,-3.5595,-3.523,-3.5081,-3.5595,-3.4235,-3.3054,-3.2817,0.0,0.0,0.0,0.0,0.0,0.0,0.0,0.0,0.0,0.0,0.0,0.0,0.0,0.0,0.0,0.0,0.0,0.0,0.0,0.0,0.0,0.0,0.0,0.0,0.0,0.0,0.0,0.0,0.0,0.0,-2.797,0.0,0.0,0.0,0.0,0.0,0.0,0.0,0.0,0.0,0.0,0.0,0.0,0.0,0.0,0.0,0.0,0.0,0.0,0.0,0.0,0.0,0.0,-2.6627,-2.7459,-2.9862,-3.1071,-3.1057,-3.07,-3.0341,-2.9997,-2.8976,-2.7857,-2.6725,0.0,0.0,0.0,0.0,0.0,0.0,0.0,0.0,0.0,0.0,0.0,0.0,0.0,0.0,0.0,0.0,0.0,0.0,0.0,0.0,0.0,0.0,0.0,0.0,0.0,0.0,-2.2924,-2.2276,-2.2443,0.0,0.0,0.0,0.0,0.0,0.0,0.0,0.0,0.0,0.0,-3.2862,-3.4038,-3.4733,-3.4883,-3.4916,-3.4932,-3.4916,-3.4899,-3.4925,-3.4423,-3.3825,0.0,0.0,0.0,0.0,0.0,0.0,0.0,0.0,0.0,0.0,0.0,0.0,0.0,0.0,0.0,0.0,0.0,0.0,0.0,0.0,0.0,0.0,0.0,0.0,0.0,0.0,0.0,-3.2052,-3.1336,0.0,0.0,0.0,0.0,0.0,0.0,0.0,0.0,0.0,0.0,0.0,-3.214,-3.2114,0.0,0.0,0.0,0.0,0.0,0.0,0.0,0.0,0.0,0.0,0.0,0.0,-2.6862,-2.8201,-2.95,-3.0201,-3.017,-2.9194,-2.8576,-2.8456,-2.7679,-2.6858,-2.5981,0.0,0.0,0.0,0.0,0.0,0.0,0.0,0.0,0.0,0.0,0.0,0.0,0.0,0.0,0.0,0.0,0.0,0.0,0.0,0.0,0.0,0.0,0.0,0.0,0.0,-2.3636,0.0,0.0,0.0,0.0,0.0,0.0,0.0,0.0,0.0,0.0,0.0,-3.205,-3.2299,-3.3607,-3.4459,-3.4203,-3.4584,-3.4899,0.0,0.0,0.0,0.0,0.0,0.0,0.0,0.0,0.0,0.0,0.0,0.0,0.0,0.0,-3.075,-3.0427,-3.0405,-3.0542,-3.097,0.0,0.0,0.0,0.0,0.0,0.0,0.0,0.0,0.0,0.0,0.0,0.0,0.0,0.0,-3.4132,0.0,-3.3246,0.0,0.0,0.0,0.0,0.0,0.0,0.0,0.0,-3.3023,-3.2991,-3.2965,-3.2965,-3.2645,0.0,-3.2093,-3.1117,0.0,0.0,0.0,0.0,0.0,0.0,0.0,0.0,-2.7423,-2.8183,-2.9246,-2.9676,-2.936,-2.828,-2.7716,-2.7701,-2.7052,-2.6336,-2.5625,-2.5135,-2.4526,0.0,0.0,0.0,0.0,0.0,0.0,0.0,0.0,0.0,0.0,0.0,0.0,0.0,0.0,0.0,0.0,0.0,0.0,0.0,0.0,0.0,0.0,0.0,-2.4381,0.0,0.0,0.0,0.0,0.0,0.0,0.0,0.0,0.0,-3.0506,-3.2,-3.31,-3.31,-3.4121,-3.4717,-3.4237,0.0,0.0,0.0,0.0,0.0,0.0,0.0,-3.2669,-3.228,-3.168,-3.1056,-3.0445,-3.0624,-3.0972,-3.1378,0.0,0.0,-3.1142,-3.1042,-3.1191,-3.1602,-3.1861,-3.2026,-3.229,-3.278,-3.2977,0.0,0.0,0.0,0.0,0.0,0.0,0.0,0.0,-3.6784,-3.7103,0.0,-3.5924,0.0,0.0,0.0,0.0,0.0,-3.2601,0.0,0.0,-3.3788,-3.3807,-3.3807,-3.3788,-3.3788,-3.3807,-3.377,-3.3321,-3.2431,-3.0885,0.0,0.0,0.0,0.0,0.0,0.0,-2.8183,-2.755,-2.8969,-2.9373,-2.861,-2.8003,-2.7701,-2.7639,-2.7036,-2.6353,-2.5694,-2.5609,-2.527,-2.4558,-2.3156,0.0,0.0,0.0,0.0,0.0,0.0,0.0,0.0,0.0,0.0,0.0,0.0,0.0,0.0,0.0,0.0,0.0,0.0,0.0,0.0,-2.4729,0.0,0.0,0.0,0.0,0.0,0.0,0.0,0.0,0.0,0.0,-3.0811,-3.247,-3.3806,-3.3789,0.0,0.0,0.0,0.0,-3.4101,-3.4075,-3.3553,-3.3182,-3.3198,-3.2745,-3.2364,-3.2321,0.0,0.0,-3.0612,-3.1017,-3.1408,-3.1323,-3.1708,-3.2106,-3.2437,-3.1797,-3.1618,-3.2722,-3.2747,-3.2835,-3.3387,-3.3877,-3.4138,-3.9696,0.0,0.0,0.0,0.0,-3.7664,-3.8401,-3.8862,-3.9643,-3.9361,-3.8264,-3.7717,0.0,0.0,0.0,0.0,0.0,0.0,-3.3568,-3.3807,-3.3807,-3.3807,-3.3807,-3.3807,-3.3807,-3.3807,-3.3807,-3.3665,-3.3413,-3.296,-3.1111,-2.807,0.0,0.0,0.0,0.0,-2.7979,-2.833,-2.8734,-2.8709,-2.8242,-2.7886,-2.7459,-2.6987,-2.6808,-2.659,-2.6387,-2.5879,-2.5507,-2.5287,-2.4389,0.0,0.0,0.0,0.0,0.0,0.0,0.0,0.0,0.0,0.0,0.0,0.0,0.0,0.0,0.0,0.0,0.0,0.0,0.0,-2.5408,-2.6327,-2.6995,0.0,0.0,0.0,0.0,0.0,0.0,0.0,0.0,0.0,-3.228,-3.3274,-3.3965,0.0,0.0,-3.4129,-3.3624,-3.3876,-3.3958,-3.3543,0.0,0.0,0.0,-3.2118,-3.1523,-3.1112,-3.0528,-3.0208,-3.0462,-3.0587,-3.0935,-3.1768,-3.1959,-3.2178,-3.2743,-3.2864,-3.2937,-3.3313,-3.3609,-3.3906,-3.4109,-3.4298,-3.437,-4.2173,-4.116,-4.0524,-3.9649,-3.882,-3.9897,-4.0506,-4.074,-4.1499,-4.145,-4.0804,-3.9728,-3.8257,-3.6471,-3.4797,0.0,0.0,0.0,-3.3807,-3.3807,-3.3807,-3.3807,-3.3807,-3.3807,-3.3807,-3.3807,-3.3807,-3.3642,-3.3311,-3.333,-3.195,-2.9375,0.0,0.0,-2.8057,-2.8342,-2.8567,-2.8712,-2.8971,-2.8786,-2.8116,-2.771,-2.726,-2.6725,-2.6708,-2.6708,-2.6708,-2.6285,-2.6031,-2.6031,-2.5321,-2.4543,0.0,0.0,0.0,0.0,0.0,0.0,0.0,0.0,0.0,0.0,0.0,-2.3392,-2.2593,0.0,0.0,0.0,-2.4295,-2.5494,-2.7296,-2.8258,0.0,0.0,0.0,0.0,0.0,0.0,0.0,-3.3,-3.2936,-3.2943,-3.338,-3.3415,-3.3476,-3.3551,-3.3652,-3.3588,-3.3146,0.0,-3.3203,-3.2588,-3.2021,-3.1561,-3.1332,-3.0952,-3.0543,-3.0188,-2.9861,-2.9726,-3.0058,-3.0037,-3.0358,-3.1368,-3.1603,-3.179,-3.2654,-3.3197,-3.3402,-3.3234,-3.3667,-3.4022,-3.4037,-3.424,-3.438,-4.4105,-4.3932,-4.1717,-4.0784,-4.0788,-4.1555,-4.1875,-4.1864,-4.2575,-4.3281,-4.3718,-4.1664,-4.1098,-4.1447,-3.7928,0.0,-3.6138,-3.4596,-3.3862,-3.3807,-3.3807,-3.3807,-3.3807,-3.3807,-3.3825,-3.3899,-3.377,-3.3366,-3.2711,-3.2564,-3.1708,-3.0155,-3.0839,-3.0417,-2.8937,-2.9533,-2.9514,-2.8712,-2.9439,-2.924,-2.8093,-2.7472,-2.7021,-2.6708,-2.6708,-2.6708,-2.6708,-2.6708,-2.6708,-2.6674,-2.6049,-2.5643,-2.5542,0.0,0.0,0.0,0.0,0.0,0.0,0.0,0.0,0.0,0.0,0.0,0.0,0.0,0.0,0.0,-2.6538,0.0,-2.947,-3.0314,0.0,0.0,0.0,-3.173,-3.1846,-3.2966,-3.376,-3.3826,0.0,0.0,-3.3975,0.0,-3.2489,-3.2934,-3.3072,-3.3145,-3.3145,-3.2734,-3.2167,-3.1574,-3.0928,-3.034,-3.0006,-2.9693,-2.9514,-2.9412,-2.9457,-2.9412,-2.9475,-2.9409,-2.975,-3.0748,-3.0866,-3.1112,-3.2135,-3.2879,-3.326,-3.2672,-3.3147,-3.362,-3.3692,-3.4051,-3.438,-4.2393,-4.2462,-4.3107,-4.3022,-4.2544,-4.3969,-4.3817,-4.2716,-4.3493,-4.358,-4.3005,-4.1662,-4.0256,-3.8769,-3.7077,-3.5936,-3.5279,-3.4894,-3.438,-3.3825,-3.3807,-3.3807,-3.3807,-3.3807,-3.4137,-3.4601,-3.3463,-3.3096,-3.344,-3.2284,-3.1182,-3.0222,-3.0387,-2.9929,-2.8936,-2.9064,-2.9028,-2.8773,-2.8919,-2.8589,-2.7818,-2.7164,-2.6758,-2.6691,-2.6708,-2.6708,-2.6708,-2.6708,-2.6708,-2.6691,-2.6522,-2.6184,-2.5609,-2.456,0.0,0.0,0.0,0.0,0.0,0.0,0.0,0.0,0.0,-2.526,-2.3367,0.0,-2.61,0.0,-2.8158,-2.9984,-3.112,-3.1525,0.0,0.0,-3.268,-3.2878,-3.3988,-3.3554,-3.3413,-3.395,-3.3292,-3.2792,-3.2819,-3.2176,-3.1587,-3.1225,-3.1989,-3.2586,-3.2602,-3.2492,-3.217,-3.1552,-3.0891,-3.0462,-3.0208,-2.9445,-2.8682,-2.8154,-2.8094,-2.8244,-2.8742,-2.8669,-2.8951,-3.0056,-3.0602,-3.0864,-3.1033,-3.1946,-3.2425,-3.205,-3.3035,-3.4196,-3.4196,-3.4312,-3.438,-4.1816,-4.1931,-4.322,-4.3261,-4.259,-4.4236,-4.4429,-4.3558,-4.3588,-4.3321,-4.2738,-4.2028,-4.069,-3.8934,-3.797,-3.7034,-3.6083,-3.5353,-3.4564,-3.3825,-3.3807,-3.3807,-3.3807,-3.3807,-3.4045,-3.4435,-3.3555,-3.2999,-3.2687,-3.1837,-3.0815,-2.9666,-2.9647,-2.9434,-2.8977,-2.894,-2.8893,-2.8816,-2.8589,-2.8228,-2.7757,-2.7211,-2.6841,-2.6691,-2.6708,-2.6708,-2.6708,-2.6708,-2.6708,-2.6708,-2.6708,-2.6505,-2.6116,-2.5406,-2.466,0.0,0.0,0.0,0.0,0.0,0.0,0.0,0.0,0.0,0.0,0.0,-2.734,0.0,-3.0085,-3.1561,-3.2749,-3.3227,-3.3718,-3.4319,-3.3968,-3.3912,-3.4488,-3.3917,-3.3532,-3.3691,-3.2938,-3.2398,-3.2382,-3.1609,-3.1061,-3.0956,-3.1283,-3.1551,-3.1582,-3.1794,-3.1775,-3.1162,-3.0718,-3.0387,-3.0163,-2.9265,-2.8472,-2.8124,-2.7779,-2.7724,-2.8006,-2.7921,-2.8101,-2.8941,-2.9534,-3.0061,-3.051,-3.1366,-3.2031,-3.2483,-3.2991,-3.3616,-3.3949,-3.4225,-3.438,-4.1623,-4.172,-4.2566,-4.2508,-4.1923,-4.337,-4.3967,-4.3929,-4.3107,-4.2659,-4.2479,-4.2148,-4.1318,-4.0142,-3.9431,-3.852,-3.7419,-3.5899,-3.4729,-3.3972,-3.3844,-3.3807,-3.3807,-3.3807,-3.3844,-3.3954,-3.3733,-3.2926,-3.158,-3.1342,-3.0485,-2.9042,-2.8987,-2.9005,-2.8994,-2.9005,-2.8947,-2.881,-2.8373,-2.8034,-2.7779,-2.735,-2.6989,-2.6708,-2.6708,-2.6708,-2.6708,-2.6708,-2.6708,-2.6708,-2.6708,-2.6708,-2.6674,-2.6015,-2.5355,0.0,-2.4677,0.0,0.0,0.0,0.0,0.0,0.0,0.0,0.0,-2.7903,-2.8843,-3.0882,-3.1884,-3.2917,-3.4075,-3.4839,-3.5245,-3.5088,-3.4954,-3.4691,-3.4159,-3.4034,-3.3748,-3.3172,-3.2614,-3.2287,-3.2201,-3.1296,-3.0881,-3.1182,-3.1001,-3.0788,-3.0597,-3.1134,-3.133,-3.0717,-3.0567,-3.0313,-2.9744,-2.9131,-2.8757,-2.8667,-2.8188,-2.7699,-2.7631,-2.7413,-2.7388,-2.7747,-2.8296,-2.897,-3.006,-3.0742,-3.1582,-3.2498,-3.2513,-3.2701,-3.3518,-3.3949,-3.4269,-4.0746,-4.0823,-4.17,-4.195,-4.1827,-4.2154,-4.228,-4.2261,-4.208,-4.1569,-4.084,-4.0498,-4.0083,-3.9633,-3.9266,-3.852,-3.7456,-3.6486,-3.5591,-3.4747,-3.41,-3.3807,-3.3807,-3.3807,-3.4137,-3.4656,-3.3445,-3.2674,-3.2326,-3.1072,-2.9941,-2.9005,-2.8987,-2.8964,-2.8929,0.0,0.0,0.0,-2.8228,-2.7855,-2.7797,-2.7164,-2.6775,-2.6691,-2.6708,0.0,-2.6708,-2.6708,-2.6708,-2.6708,-2.6708,0.0,0.0,0.0,0.0,0.0,0.0,0.0,0.0,0.0,0.0,0.0,-2.8922,-2.8161,-2.7785,-2.8901,-3.0268,-3.1756,-3.2684,-3.3469,-3.4158,-3.4856,-3.5198,-3.497,-3.4899,-3.4667,-3.4134,-3.3672,-3.3161,-3.2614,-3.2035,-3.1668,-3.1652,-3.1433,-3.1137,-3.0851,-3.1032,-3.1047,-3.0582,-3.1092,-3.1436,-3.1286,-3.0853,-3.0313,-2.9669,-2.9505,-2.94,-2.9325,-2.8846,-2.839,-2.8211,-2.7717,-2.7303,-2.7264,-2.7649,-2.8065,-2.8289,-2.916,-3.0088,-3.0291,-3.109,-3.2222,-3.3848,-3.3906,-3.3678,-4.0496,0.0,-4.0969,-4.1162,0.0,-4.1143,-4.1162,-4.1162,-4.1162,-4.0883,-4.0379,-4.0186,-3.995,-3.9693,-3.9427,-3.8704,-3.7673,-3.7143,-3.6193,-3.5023,-3.5023,-3.4596,-3.3825,-3.4211,-3.438,-3.4362,-3.3587,-3.2779,-3.199,-3.1182,-3.0191,-2.9005,-2.8987,-2.8982,-2.897,-2.8994,-2.8994,-2.8952,-2.8435,-2.8051,-2.7883,-2.7382,-2.7006,-2.6809,0.0,0.0,0.0,0.0,0.0,0.0,0.0,0.0,0.0,0.0,0.0,-2.7807,-2.7824,-2.8145,-2.8872,-2.9261,-2.982,-3.0565,-3.0277,-2.9734,-2.8935,-2.9971,-3.1086,-3.2094,-3.2546,-3.3178,-3.4141,-3.4498,-3.4735,-3.4927,-3.4732,-3.4284,-3.3691,-3.2861,-3.209,-3.1546,-3.1185,-3.1002,-3.1002,-3.0987,-3.1061,-3.1016,-3.0972,-3.1046,-3.1017,-3.1271,-3.1496,-3.1496,-3.1256,-3.0883,-3.0597,-3.0223,-3.0028,-2.9953,-2.9409,-2.8955,-2.8776,-2.8414,-2.7986,-2.7508,-2.76,-2.7763,-2.7781,-2.8478,-2.9261,-2.9595,-3.0393,-3.1395,-3.273,-3.2977,-3.3006,-4.0496,-4.0496,-4.0496,-4.0496,-4.0496,-4.0496,-4.0496,-4.0496,0.0,0.0,0.0,-4.0353,-4.0158,-3.9892,-3.967,-3.9046,-3.8098,-3.7737,-3.6728,-3.5279,-3.5811,-3.5257,-3.388,-3.4472,-3.4468,-3.3825,-3.3807,-3.2963,-3.1439,-3.1403,-3.0595,-2.9133,-2.8987,-2.8987,-2.8987,-2.8987,-2.8987,-2.8975,-2.8657,-2.8339,-2.8061,-2.7683,-2.7326,-2.7007,-2.6925,-2.6825,-2.6725,-2.6708,-2.6708,-2.6708,-2.7418,-2.7789,-2.7824,-2.8552,-2.9061,-2.923,-2.977,-3.0159,-3.0311,-3.0852,-3.119,-3.119,-3.119,-3.0954,-3.0345,-3.0852,-3.1464,-3.2056,-3.2107,-3.2597,-3.377,-3.384,-3.4022,-3.4615,-3.4104,-3.348,-3.2865,-3.1908,-3.1083,-3.0573,-3.0537,-3.0552,-3.0717,-3.0733,-3.0853,-3.1286,-3.1077,-3.0838,-3.1346,-3.1481,-3.1436,-3.1286,-3.1152,-3.1212,-3.1062,-3.0657,-3.0402,-3.0402,-2.9829,-2.9364,-2.9258,-2.909,-2.8672,-2.8011,-2.7869,-2.7956,-2.8043,-2.8463,-2.8884,-2.9465,-3.0031,-3.0553,-3.109,-3.1714,-3.2179,-4.0496,-4.0496,-4.0496,-4.0496,-4.0496,-4.0496,-4.0496,-4.0496,-4.0496,-4.046,-4.0407,-4.0379,-4.0206,-3.9884,-3.987,-3.95,-3.8892,-3.8169,-3.7221,0.0,-3.5481,-3.4692,-3.3825,-3.3917,-3.3917,-3.3807,-3.3807,-3.2963,-3.1549,-3.1403,-3.0577,-2.9189,-2.8987,-2.8987,-2.8987,-2.8987,-2.8987,-2.8994,-2.862,-2.8394,-2.8342,-2.7718,-2.738,-2.7336,-2.7055,-2.6876,-2.6876,-2.6758,-2.6708,-2.6725,-2.7402,-2.7789,-2.7823,-2.8569,-2.9281,-2.9888,-3.0057,-3.0378,-3.0987,-3.114,-3.119,-3.119,-3.119,-3.114,-3.1055,-3.1123,-3.1224,-3.136,-3.1783,-3.2135,-3.2337,-3.2739,-3.3023,-3.3011,-3.2616,-3.2047,-3.1516,-3.0917,-3.0509,-3.0471,-3.0492,-3.0731,-3.1137,-3.1286,-3.1331,-3.1451,-3.1271,-3.1331,-3.1331,-3.1496,-3.1241,-3.0806,-3.0642,-3.0417,-3.0103,-2.9834,-2.9939,-3.0432,-2.9941,-2.9593,-2.9786,-2.9379,-2.8915,-2.8562,-2.8433,-2.8608,-2.9029,-2.8942,-2.8956,-2.9406,-2.9653,-2.99,-3.0045,-3.0539,-3.1061,-4.0621,-4.0595,-4.0515,-4.0496,-4.0496,-4.0496,-4.0496,-4.0496,-4.0496,-4.0495,-4.0449,-4.0405,-4.0289,-4.0109,-3.9967,-3.9693,-3.9274,-3.8346,-3.7336,-3.6317,-3.5899,-3.5023,-3.3917,-3.4252,-3.4229,-3.3825,-3.3807,-3.3201,-3.21,-3.1617,-3.0797,-2.9696,-2.9225,-2.8987,-2.8987,-2.8987,-2.8987,-2.8994,-2.8676,-2.8502,-2.8507,-2.788,-2.7532,-2.7504,-2.7181,-2.6957,-2.6892,-2.6842,-2.6775,-2.6708,-2.7418,-2.7993,-2.8433,-2.9161,-2.9922,-3.0649,-3.07,-3.0852,-3.1157,-3.1582,-3.1819,-3.1819,-3.2171,-3.2222,-3.1836,-3.143,-3.119,-3.1171,-3.1176,-3.1245,-3.152,-3.1554,-3.1625,-3.1866,-3.1446,-3.1029,-3.0729,-3.0273,-2.9993,-3.0023,-3.0298,-3.0627,-3.0898,-3.1271,-3.1496,-3.1481,-3.1227,-3.0853,-3.0552,-3.0477,-3.0507,-3.0462,-3.0223,-2.9924,-2.9609,-2.9621,-2.9741,-2.9968,-2.9692,-2.9535,-2.9637,-2.9315,-2.8912,-2.8382,-2.8254,-2.8183,-2.8258,-2.8463,-2.8637,-2.8594,-2.9552,-2.99,-2.9798,-3.0132,-3.067,-4.0705,-4.0707,-4.0581,-4.0527,-4.0496,-4.0496,-4.0496,-4.0496,-4.0496,-4.0492,-4.0499,-4.0449,-4.0379,-4.0289,-4.009,-3.984,-3.9467,-3.8515,-3.7469,-3.6509,-3.6224,-3.5298,-3.4052,-3.4495,-3.4417,-3.3862,-3.3807,-3.3403,-3.2583,-3.1788,-3.0907,-2.9959,-2.9299,-2.8987,-2.8987,-2.8987,-2.8987,-2.8994,-2.881,-2.8694,-2.8663,-2.8179,-2.7844,-2.7713,-2.7382,-2.7119,-2.6925,-2.6909,-2.6842,-2.6742,-2.7401,-2.8077,-2.8721,-2.9617,-3.0362,-3.0886,-3.1089,-3.1258,-3.1461,-3.1972,-3.2378,-3.2564,-3.3068,-3.3085,-3.2378,-3.1785,-3.136,-3.1185,-3.0794,-3.0704,-3.1023,-3.0792,-3.0587,-3.0832,-3.0409,-3.0142,-3.0084,-2.9697,-2.9532,-2.9744,-3.0223,-3.0552,-3.0776,-3.1167,-3.1406,-3.1197,-3.0717,-3.0103,-2.9711,-2.9502,-2.9579,-2.9819,-2.9654,-2.9265,-2.919,-2.9112,-2.9172,-2.9322,-2.9259,-2.9211,-2.926,-2.9237,-2.8965,-2.8416,-2.8243,-2.813,-2.7569,-2.7879,-2.833,-2.8245,-2.9131,-2.9958,-2.9972,-3.0234,-3.0598,-4.0759,-4.0706,-4.0681,-4.0621,-4.0496,-4.0496,-4.0496,-4.0496,-4.0496,-4.0496,-4.05,-4.0499,-4.0432,-4.0297,-4.0261,-4.009,-3.9794,-3.8937,-3.7943,-3.6873,-3.5926,-3.4996,-3.4179,-3.4,-3.388,-3.3807,-3.3807,-3.339,-3.2656,-3.1806,-3.0632,-2.928,-2.9023,-2.8987,-2.8987,-2.8987,-2.8987,-2.8987,-2.8982,-2.897,-2.894,-2.8663,-2.8347,-2.8061,-2.771,-2.7369,-2.7007,-2.6942,-2.6842,-2.6776,-2.7384,-2.7824,-2.806,-2.9313,-3.0123,-3.0277,-3.0852,-3.1478,-3.2107,-3.2259,-3.2615,-3.322,-3.3339,-3.3102,-3.2429,-3.2242,-3.1904,-3.1357,-3.1035,-3.0905,-3.0898,-3.0721,-3.0364,-2.9881,-2.9554,-2.9281,-2.9356,-2.8964,-2.9116,-3.0313,-3.0477,-3.0731,-3.1227,-3.1391,-3.1182,-3.0539,-3.0028,-2.9579,-2.937,-2.8981,-2.8697,-2.8786,-2.8697,-2.8468,-2.8079,-2.7794,-2.8154,-2.8577,-2.8682,-2.8782,-2.8973,-2.9127,-2.9161,-2.8564,-2.8746,-2.8559,-2.8364,-2.8411,-2.8121,-2.8317,-2.8768,-2.9232,-3.0133,-3.0451,-3.051,-4.0906,-4.0863,-4.0759,-4.0615,-4.0504,-4.0496,-4.0496,-4.0496,-4.0496,-4.0496,-4.0496,-4.0492,-4.0471,-4.0405,-4.0334,-4.0148,-3.9813,-3.851,-3.7578,-3.6885,-3.5532,-3.4638,-3.4216,-3.4099,-3.3959,-3.382,-3.3807,-3.3642,-3.3146,-3.2027,-3.0577,-2.9152,-2.8987,-2.8987,-2.8987,-2.8987,-2.8987,-2.8987,-2.8987,-2.8987,-2.8964,-2.8743,-2.8443,-2.8116,-2.7829,-2.7463,-2.7056,-2.6975,-2.6875,-2.6725,-2.6996,-2.735,-2.779,-2.8856,-2.9854,-3.07,-3.1867,-3.2425,-3.2327,-3.2716,-3.3085,-3.3389,-3.3389,-3.3254,-3.2966,-3.2564,-3.1989,-3.1306,-3.0898,-3.0576,-3.0225,-3.0016,-2.9579,-2.8881,-2.894,-2.9157,-2.8905,-2.9414,-2.9968,-3.0477,-3.0866,-3.1152,-3.1361,-3.1152,-3.0507,-2.9639,-2.9131,-2.8918,-2.8513,-2.8169,-2.8049,-2.8019,-2.8019,-2.7914,-2.7645,-2.7585,-2.775,-2.7929,-2.8019,-2.8147,-2.8245,-2.8278,-2.8237,-2.8139,-2.8198,-2.8092,-2.7688,-2.7983,-2.7973,-2.8228,-2.8521,-2.8912,-2.9421,-2.9755,-2.9842,-4.1025,-4.097,-4.0798,-4.0615,-4.0496,-4.0496,-4.0496,-4.0496,-4.0496,-4.0496,-4.0496,-4.0496,-4.05,-4.0491,-4.0405,-4.0223,-3.9823,-3.828,-3.7393,-3.7039,-3.5417,-3.4505,-3.4298,-3.4221,-3.4061,-3.3829,-3.3807,-3.3678,-3.3348,-3.2113,-3.0687,-2.9482,-2.9115,-2.8987,-2.8987,-2.8987,-2.8987,-2.8987,-2.8987,-2.8987,-2.8964,-2.8803,-2.8545,-2.8255,-2.8051,-2.7698,-2.7217,-2.7136,-2.7006,-2.6758,-2.6708,-2.6945,-2.7469,-2.823,-2.933,-3.0784,-3.2087,-3.2763,-3.2577,-3.3102,-3.3491,-3.3677,-3.3711,-3.3525,-3.3102,-3.2615,-3.2005,-3.1289,-3.0898,-3.0518,-3.0064,-3.0093,-2.9671,-2.874,-2.9336,-2.9658,-2.9388,-3.0096,-3.0608,-3.0791,-3.1044,-3.1209,-3.0941,-3.0372,-2.9594,-2.8861,-2.8457,-2.8214,-2.7735,-2.763,-2.7615,-2.7585,-2.76,-2.76,-2.7585,-2.7585,-2.7585,-2.7585,-2.7645,-2.766,-2.7585,-2.76,-2.7615,-2.7835,-2.7567,-2.7446,-2.7473,-2.7633,-2.7832,-2.7904,-2.82,-2.8622,-2.8854,-2.9131,-2.9131,-4.1064,-4.0974,-4.0779,-4.0622,-4.0504,-4.0496,-4.0496,-4.0496,-4.0496,-4.0496,-4.0496,-4.0496,-4.0496,-4.0508,-4.0479,-4.0449,-4.0132,-3.8595,-3.7795,-3.7542,-3.5799,-3.4762,-3.4486,-3.4298,-3.4074,-3.386,-3.3847,-3.3453,-3.2687,-3.1825,-3.098,-3.0136,-2.9372,-2.8987,-2.8987,-2.8987,-2.8987,-2.8987,-2.8987,-2.8987,-2.8987,-2.8982,-2.8846,-2.8601,-2.8551,-2.8206,-2.7639,-2.7459,-2.721,-2.6909,-2.6775,-2.6742,-2.6843,-2.7537,-2.8686,-3.0142,-3.0987,-3.1985,-3.3102,-3.3355,-3.366,-3.4235,-3.4206,-3.3816,-3.2598,-3.2293,-3.1904,-3.1258,-3.1151,-3.1035,-3.0929,-3.1211,-3.1193,-3.032,-3.0776,-3.0939,-3.0737,-3.0782,-3.099,-3.1249,-3.1091,-3.0581,-2.9828,-2.9101,-2.8816,-2.8472,-2.8049,-2.766,-2.7645,-2.7585,-2.7585,-2.7585,-2.7585,-2.7585,-2.7585,-2.7585,-2.7585,-2.7585,-2.7585,-2.7585,-2.7585,-2.76,-2.76,-2.7575,-2.7549,-2.7499,-2.7427,-2.7458,-2.7579,-2.7786,-2.8079,-2.8373,-2.8257,-2.8578,-2.8578,-4.1066,-4.0984,-4.0834,-4.0703,-4.0615,-4.0542,-4.0496,-4.0496,-4.0496,-4.0496,-4.0496,-4.0496,-4.0496,-4.0496,-4.05,-4.0487,-4.0334,-3.9188,-3.8342,-3.7715,-3.6538,-3.556,-3.4801,-3.4672,-3.4435,-3.4093,-3.4049,-3.3554,-3.2596,-3.1806,-3.098,-3.0191,-2.939,-2.8987,-2.8987,-2.8987,-2.8987,-2.8987,-2.8987,-2.8987,-2.8987,-2.8987,-2.894,-2.8858,-2.8694,-2.8365,-2.7872,-2.7636,-2.7428,-2.7228,-2.6973,-2.6842,-2.6978,-2.8383,-2.9956,-3.1343,-3.2188,-3.2848,-3.3305,-3.3389,-3.3508,-3.3711,-3.3359,-3.2953,-3.2344,-3.1887,-3.1461,-3.1241,-3.119,-3.1171,-3.1182,-3.1308,-3.1178,-3.083,-3.1352,-3.1863,-3.1924,-3.1898,-3.1946,-3.1871,-3.1147,-3.0095,-2.9271,-2.8742,-2.8427,-2.8008,-2.7735,-2.764,-2.7585,-2.7585,-2.7625,-2.7585,-2.7585,-2.7585,-2.7585,-2.7585,-2.7585,-2.7585,-2.7585,-2.7585,-2.7585,-2.7585,-2.76,-2.76,-2.7585,-2.7549,-2.7437,-2.7339,-2.7469,-2.7491,-2.7805,-2.7829,-2.761,-2.7908,-2.7852,-4.1046,-4.099,-4.0918,-4.0801,-4.0694,-4.0614,-4.0523,-4.0496,-4.0496,-4.0496,-4.0496,-4.0496,-4.0496,-4.0496,-4.0496,-4.05,-4.0391,-3.9536,-3.866,-3.7822,-3.699,-3.5987,-3.504,-3.4917,-3.4684,-3.4337,-3.4309,-3.3869,-3.3111,-3.2312,-3.147,-3.0577,-2.9787,-2.9262,-2.906,-2.8987,-2.8987,-2.8987,-2.8987,-2.8987,-2.8987,-2.8987,-2.8987,-2.8982,-2.8815,-2.8563,-2.8188,-2.7901,-2.7762,-2.7772,-2.7479,-2.7419,-2.7811,-2.9218,-3.0588,-3.1554,-3.2496,-3.3169,-3.3372,-3.3389,-3.3389,-3.3372,-3.275,-3.2242,-3.1972,-3.1481,-3.1224,-3.119,-3.1207,-3.1241,-3.1427,-3.13,-3.1037,-3.1056,-3.1736,-3.2248,-3.2264,-3.2181,-3.202,-3.1602,-3.0882,-2.9886,-2.9031,-2.8808,-2.8564,-2.8137,-2.8067,-2.8042,-2.787,-2.782,-2.7735,-2.765,-2.7585,-2.7585,-2.7495,-2.7375,-2.746,-2.7475,-2.742,-2.7465,-2.757,-2.757,-2.757,-2.7585,-2.7575,-2.7549,-2.7473,-2.7335,-2.7284,-2.7244,-2.7265,-2.7343,-2.7246,-2.7251,-2.7241,-4.1066,-4.1,-4.099,-4.0885,-4.0723,-4.0687,-4.0622,-4.0527,-4.0531,-4.0512,-4.0496,-4.0496,-4.0496,-4.0496,-4.0496,-4.0496,-4.0346,-3.9604,-3.8716,-3.7863,-3.7084,-3.6064,-3.4972,-3.4953,-3.4813,-3.4508,-3.4497,-3.4375,-3.4042,-3.325,-3.2376,-3.1452,-3.0655,-2.989,-2.9053,-2.9138,-2.906,-2.9005,-2.8987,-2.8987,-2.8987,-2.8987,-2.9042,-2.9078,-2.9074,-2.9004,-2.8715,-2.8322,-2.8322,-2.8691,-2.8367,-2.8511,-2.916,-2.9871,-3.0258,-3.063,-3.1622,-3.2615,-3.3237,-3.3355,-3.3389,-3.3203,-3.2699,-3.2022,-3.1444,-3.1241,-3.119,-3.119,-3.1292,-3.1498,-3.1921,-3.1647,-3.1399,-3.153,-3.2128,-3.2171,-3.194,-3.167,-3.1357,-3.0826,-3.0369,-2.9949,-2.9379,-2.9076,-2.8959,-2.8936,-2.8928,-2.8772,-2.84,-2.8304,-2.8125,-2.7845,-2.783,-2.7938,-2.7554,-2.7145,-2.7235,-2.732,-2.725,-2.724,-2.7435,-2.751,-2.748,-2.748,-2.7585,-2.7575,-2.7549,-2.7463,-2.7412,-2.7361,-2.717,-2.7055,-2.7091,-2.7138,-2.6963,-4.1081,-4.1046,-4.1011,-4.0967,-4.0894,-4.0811,-4.0734,-4.0662,-4.0636,-4.06,-4.0512,-4.0496,-4.0496,-4.0496,-4.0496,-4.0496,-4.0439,-3.9635,-3.8766,-3.7974,-3.7594,-3.6611,-3.5395,-3.5163,-3.5027,-3.4783,-3.4572,-3.4494,-3.4278,-3.3593,-3.2999,-3.2597,-3.1752,-3.0906,-3.0076,-2.9918,-2.9592,-2.906,-2.8987,-2.8987,-2.8987,-2.8987,-2.9244,-2.9757,-2.9831,-3.0027,-3.0448,-2.9694,-2.9584,-3.0191,-2.9677,-2.9557,-3.0001,-3.0235,-3.0539,-3.1008,-3.1851,-3.2439,-3.2666,-3.3102,-3.3152,-3.2767,-3.2412,-3.1955,-3.1326,-3.119,-3.119,-3.1258,-3.1613,-3.1938,-3.165,-3.1853,-3.209,-3.2723,-3.2547,-3.244,-3.2525,-3.2226,-3.1478,-3.0593,-3.0206,-2.9832,-2.9403,-2.9196,-2.9212,-2.9189,-2.9166,-2.9051,-2.8912,-2.8795,-2.8842,-2.8654,-2.8599,-2.8154,-2.7635,-2.7179,-2.7095,-2.6968,-2.6823,-2.6975,-2.7205,-2.73,-2.7285,-2.7405,-2.751,-2.751,-2.7515,-2.7475,-2.7379,-2.7429,-2.7316,-2.7229,-2.7155,-2.7041,-2.691,-4.1109,-4.1087,-4.1061,-4.1011,-4.099,-4.0898,-4.0825,-4.0757,-4.0746,-4.0674,-4.06,-4.0586,-4.053,-4.0504,-4.0496,-4.0496,-4.0419,-3.9669,-3.8808,-3.7959,-3.7528,-3.6661,-3.5445,-3.5312,-3.5218,-3.5054,-3.4879,-3.4744,-3.4615,-3.4144,-3.37,-3.3231,-3.2647,-3.1725,-3.0711,-3.0398,-2.9922,-2.9138,-2.8987,-2.8987,-2.8987,-2.8987,-2.939,-3.0081,-3.021,-3.076,-3.1647,-3.0909,-3.0706,-3.1233,-3.1092,-3.1039,-3.1113,-3.1058,-3.1119,-3.1423,-3.199,-3.2388,-3.2361,-3.2713,-3.2831,-3.2361,-3.2056,-3.1735,-3.1275,-3.119,-3.119,-3.1275,-3.1579,-3.1802,-3.1718,-3.1701,-3.2222,-3.2882,-3.2286,-3.2121,-3.2405,-3.211,-3.1547,-3.0792,-3.0526,-3.0187,-2.993,-2.9783,-2.9705,-2.9661,-2.9661,-2.9528,-2.9397,-2.9093,-2.8962,-2.8674,-2.8149,-2.7783,-2.7589,-2.7278,-2.6961,-2.6652,-2.6359,-2.662,-2.6885,-2.6881,-2.6896,-2.7225,-2.739,-2.7106,-2.7076,-2.7106,-2.7056,-2.7195,-2.7235,-2.7342,-2.7233,-2.7067,-2.6963,-4.1109,-4.1109,-4.1108,-4.1046,-4.1006,-4.0997,-4.0917,-4.0824,-4.0815,-4.0761,-4.0705,-4.0687,-4.0616,-4.0542,-4.0534,-4.0469,-4.0265,-3.9477,-3.8623,-3.7769,-3.7038,-3.6133,-3.5475,-3.535,-3.5297,-3.5277,-3.5253,-3.5134,-3.4926,-3.4813,-3.4396,-3.3456,-3.3217,-3.2381,-3.0972,-3.061,-3.0046,-2.9138,-2.8987,-2.8987,-2.8987,-2.8987,-2.9372,-3.0155,-3.0246,-3.0852,-3.194,-3.1616,-3.1506,-3.2053,-3.2358,-3.2454,-3.2299,-3.2127,-3.1879,-3.1706,-3.2085,-3.2261,-3.2303,-3.2347,-3.2327,-3.2107,-3.1613,-3.119,-3.119,-3.119,-3.119,-3.1207,-3.1379,-3.1599,-3.1904,-3.1785,-3.1732,-3.2039,-3.1698,-3.1393,-3.1241,-3.1275,-3.1199,-3.1148,-3.1055,-3.0918,-3.0736,-3.0716,-3.0559,-3.0357,-3.0332,-3.0171,-2.9582,-2.9027,-2.8581,-2.8212,-2.7924,-2.7625,-2.7511,-2.7254,-2.6883,-2.6251,-2.6039,-2.6324,-2.6655,-2.6697,-2.6594,-2.6931,-2.703,-2.6774,-2.6566,-2.6551,-2.6551,-2.6518,-2.6768,-2.7159,-2.7088,-2.6728,-2.6715,-4.1114,-4.1109,-4.1109,-4.1085,-4.1074,-4.1055,-4.1005,-4.0948,-4.0924,-4.0762,-4.0747,-4.0771,-4.0629,-4.063,-4.0584,-4.0279,-3.9552,-3.8726,-3.7873,-3.7026,-3.6212,-3.5729,-3.5451,-3.5398,-3.535,-3.532,-3.5308,-3.528,-3.5185,-3.5124,-3.4651,-3.3847,-3.3582,-3.2637,-3.1089,-3.0634,-2.998,-2.915,-2.8987,-2.8987,-2.8987,-2.8987,-2.939,-3.0118,-3.021,-3.0687,-3.1604,-3.1531,-3.1623,-3.2117,-3.2798,-3.2999,-3.2699,-3.2601,-3.2468,-3.2406,-3.261,-3.2576,-3.2135,-3.2193,-3.2063,-3.1565,-3.1402,-3.119,-3.119,-3.119,-3.119,-3.1292,-3.165,-3.1819,-3.1647,-3.1769,-3.1816,-3.1495,-3.1309,-3.119,-3.119,-3.119,-3.119,-3.1171,-3.1075,-3.1015,-3.0888,-3.0771,-3.0503,-3.0089,-3.0078,-3.0116,-2.9284,-2.8972,-2.8584,-2.8427,-2.8148,-2.7768,-2.7456,-2.7194,-2.6719,-2.5925,-2.5799,-2.6064,-2.6448,-2.6729,-2.6587,-2.6574,-2.6465,-2.6229,-2.6019,-2.5893,-2.5878,-2.6019,-2.6141,-2.6447,-2.6083,-2.5775,-2.6056,-4.0755,-4.1114,-4.1114,-4.1111,-4.1051,-4.0717,-4.053,-4.043,-4.0114,-3.9922,-3.9824,-3.9793,-3.9761,-3.9705,-3.9675,-3.9408,-3.8794,-3.7951,-3.7289,-3.6755,-3.5938,-3.5532,-3.5453,-3.5446,-3.5405,-3.5338,-3.5354,-3.5335,-3.5285,-3.5242,-3.4786,-3.4105,-3.3851,-3.2812,-3.1119,-3.0778,-3.0161,-2.9307,-2.9037,-2.8987,-2.8987,-2.8987,-2.9445,-3.0044,-3.021,-3.0467,-3.087,-3.1213,-3.1675,-3.2242,-3.2752,-3.3002,-3.3011,-3.2968,-3.2892,-3.2736,-3.2808,-3.2599,-3.2266,-3.2275,-3.2089,-3.161,-3.1432,-3.1351,-3.1232,-3.119,-3.119,-3.1241,-3.1613,-3.1562,-3.1396,-3.1599,-3.1616,-3.1309,-3.119,-3.119,-3.119,-3.119,-3.119,-3.1171,-3.1114,-3.0903,-3.0628,-3.0499,-3.0015,-2.9465,-2.9393,-2.9151,-2.8691,-2.8641,-2.8475,-2.8111,-2.7713,-2.7154,-2.6951,-2.6753,-2.6687,-2.5954,-2.581,-2.6031,-2.6104,-2.6523,-2.6473,-2.6238,-2.6017,-2.5806,-2.565,-2.5575,-2.5672,-2.5756,-2.5728,-2.5649,-2.548,-2.5138,-2.5408,-4.0176,-4.0849,-4.0946,-4.0923,-4.0662,-4.0016,-3.9683,-3.9525,-3.9036,-3.8666,-3.8589,-3.8483,-3.8636,-3.8305,-3.8615,-3.8315,-3.8117,-3.7397,-3.6945,-3.648,-3.5926,-3.5502,-3.5502,-3.5481,-3.546,-3.5374,-3.5355,-3.517,-3.499,-3.4986,-3.4466,-3.367,-3.352,-3.2716,-3.1185,-3.0771,-3.0263,-2.9483,-2.9149,-2.906,-2.9055,-2.904,-2.9317,-2.9787,-2.9934,-2.9971,-3.021,-3.0668,-3.1372,-3.2271,-3.2417,-3.2693,-3.3056,-3.3143,-3.31,-3.2908,-3.2802,-3.2672,-3.2534,-3.247,-3.2266,-3.186,-3.1751,-3.1621,-3.131,-3.1213,-3.1213,-3.119,-3.119,-3.1258,-3.1224,-3.1241,-3.1258,-3.119,-3.119,-3.119,-3.119,-3.119,-3.119,-3.119,-3.119,-3.0779,-3.0251,-2.9911,-2.969,-2.8726,-2.8705,-2.8548,-2.8158,-2.7921,-2.767,-2.7302,-2.6853,-2.6351,-2.6285,-2.6268,-2.6283,-2.6096,-2.6059,-2.6087,-2.5775,-2.5968,-2.6117,-2.6041,-2.5796,-2.5649,-2.5566,-2.5524,-2.5513,-2.5342,-2.5184,-2.5296,-2.5341,-2.4866,-2.4848,-3.9472,-3.9101,-3.9804,-3.9706,-3.9148,-3.8931,-3.8849,-3.8825,-3.865,-3.843,-3.852,-3.852,-3.8412,-3.8293,-3.8192,-3.8011,-3.7361,-3.6977,-3.6653,-3.5945,-3.5759,-3.5593,-3.5564,-3.5528,-3.5481,-3.5332,-3.4716,-3.4412,-3.4273,-3.3776,-3.2897,-3.2198,-3.221,-3.1447,-3.0441,-3.0242,-2.9979,-2.9542,-2.9334,-2.9249,-2.9206,-2.9093,-2.9131,-2.934,-2.9329,-2.928,-2.928,-2.9427,-2.9904,-3.065,-3.1311,-3.1884,-3.2605,-3.278,-3.2981,-3.3338,-3.3214,-3.3045,-3.2968,-3.255,-3.2109,-3.2039,-3.1841,-3.1483,-3.1332,-3.1295,-3.1254,-3.123,-3.119,-3.119,-3.119,-3.119,-3.119,-3.119,-3.119,-3.119,-3.119,-3.119,-3.119,-3.119,-3.114,-3.0883,-3.0154,-2.9827,-2.9267,-2.825,-2.7943,-2.7955,-2.7668,-2.7279,-2.7061,-2.681,-2.6573,-2.6222,-2.6205,-2.6187,-2.6185,-2.6185,-2.6185,-2.615,-2.5844,-2.5726,-2.6003,-2.5879,-2.5593,-2.5525,-2.5564,-2.527,-2.5233,-2.4942,-2.4697,-2.4648,-2.458,-2.4297,-2.4276,-3.8446,-3.8513,-3.8962,-3.8919,-3.8515,-3.8144,-3.7964,-3.7895,-3.7521,-3.7384,-3.7379,-3.7399,-3.7329,-3.7286,-3.7264,-3.6935,-3.6634,-3.6485,-3.6219,-3.5775,-3.5664,-3.5665,-3.564,-3.5568,-3.5522,-3.5366,-3.4609,-3.4171,-3.3894,-3.3214,-3.2495,-3.1565,-3.1482,-3.1076,-3.0164,-2.9953,-2.9885,-2.9725,-2.9533,-2.9445,-2.9415,-2.9353,-2.9225,-2.9127,-2.9055,-2.8987,-2.9023,-2.9023,-2.9464,-2.9996,-3.0301,-3.1054,-3.2307,-3.2601,-3.3005,-3.3583,-3.3634,-3.3494,-3.3332,-3.3121,-3.2809,-3.255,-3.2368,-3.2144,-3.1878,-3.1661,-3.1528,-3.1432,-3.1312,-3.119,-3.119,-3.119,-3.119,-3.119,-3.119,-3.119,-3.119,-3.119,-3.119,-3.1106,-3.0869,-3.0311,-2.9816,-2.9391,-2.8578,-2.7447,-2.7261,-2.7258,-2.7137,-2.6817,-2.6767,-2.6581,-2.6411,-2.6258,-2.624,-2.6222,-2.6203,-2.6185,-2.6185,-2.6168,-2.6028,-2.5977,-2.6018,-2.5826,-2.5605,-2.568,-2.5681,-2.5326,-2.5056,-2.4869,-2.4611,-2.4166,-2.3885,-2.3923,-2.3932,-3.7389,-3.8012,-3.8129,-3.8163,-3.7979,-3.7299,-3.7031,-3.6967,-3.6319,-3.6236,-3.6034,-3.6013,-3.6246,-3.6088,-3.6126,-3.6049,-3.6022,-3.5981,-3.5878,-3.5804,-3.5753,-3.5761,-3.5717,-3.5665,-3.5436,-3.5258,-3.4308,-3.3878,-3.3403,-3.289,-3.1846,-3.141,-3.1313,-3.0845,-3.0268,-3.006,-2.9977,-2.9945,-2.975,-2.9653,-2.9644,-2.9598,-2.9465,-2.9291,-2.91,-2.8998,-2.8987,-2.9042,-2.9299,-2.9904,-2.9372,-3.0308,-3.1739,-3.2472,-3.2908,-3.3678,-3.378,-3.3753,-3.3694,-3.3638,-3.3451,-3.3229,-3.3108,-3.2905,-3.2484,-3.2161,-3.2004,-3.1806,-3.1621,-3.1332,-3.1271,-3.123,-3.121,-3.119,-3.119,-3.119,-3.1173,-3.114,-3.0954,-3.0886,-3.0514,-2.9973,-2.9092,-2.8431,-2.7552,-2.6842,-2.6707,-2.6589,-2.6537,-2.6502,-2.6553,-2.6535,-2.6415,-2.6364,-2.6346,-2.6329,-2.6292,-2.6222,-2.6222,-2.6187,-2.6151,-2.6115,-2.6045,-2.5866,-2.5738,-2.583,-2.5811,-2.5572,-2.5272,-2.4981,-2.4563,-2.4162,-2.3867,-2.3638,-2.3676,-3.6629,-3.6215,-3.6935,-3.6855,-3.6317,-3.6152,-3.6165,-3.6132,-3.6054,-3.6008,-3.5985,-3.6003,-3.6001,-3.6013,-3.6012,-3.6012,-3.5989,-3.5882,-3.5898,-3.5882,-3.5838,-3.5774,-3.584,-3.5741,-3.5294,-3.4463,-3.3683,-3.2948,-3.2122,-3.1168,-3.0945,-3.0606,-3.0573,-3.0375,-3.033,-3.0246,-3.0206,-3.0152,-2.9981,-2.9883,-2.9842,-2.9706,-2.9533,-2.9345,-2.9149,-2.9021,-2.8987,-2.8987,-2.906,-2.9189,-2.906,-2.9996,-3.1292,-3.1733,-3.2394,-3.344,-3.3807,-3.3807,-3.3793,-3.3569,-3.3408,-3.3247,-3.3108,-3.2887,-3.2679,-3.2584,-3.2435,-3.223,-3.195,-3.1695,-3.162,-3.1408,-3.123,-3.121,-3.119,-3.119,-3.1089,-3.0751,-3.0362,-3.026,-2.9989,-2.96,-2.8652,-2.7874,-2.7299,-2.686,-2.6725,-2.6657,-2.664,-2.6589,-2.6589,-2.6554,-2.652,-2.6485,-2.6468,-2.645,-2.6433,-2.6312,-2.6277,-2.6258,-2.6222,-2.6187,-2.6097,-2.5972,-2.5937,-2.6045,-2.5972,-2.5775,-2.5478,-2.5098,-2.4623,-2.4183,-2.4063,-2.3943,-2.3767,-3.6065,-3.5762,-3.6154,-3.6097,-3.5788,-3.5783,-3.5821,-3.5869,-3.5884,-3.5915,-3.5937,-3.5957,-3.5973,-3.6003,-3.6018,-3.6017,-3.5935,-3.5465,-3.5602,-3.5793,-3.5547,-3.5576,-3.5843,-3.5813,-3.4954,-3.4061,-3.3251,-3.2554,-3.1697,-3.0839,-3.0405,-3.0362,-3.0324,-3.0299,-3.0311,-3.0292,-3.0299,-3.0266,-3.0168,-3.0092,-3.0059,-2.9883,-2.9688,-2.9504,-2.9291,-2.9115,-2.8998,-2.8987,-2.9225,-2.9464,-2.9225,-3.0179,-3.1219,-3.1751,-3.2082,-3.3403,-3.377,-3.3788,-3.3807,-3.362,-3.3419,-3.3026,-3.3121,-3.3049,-3.2838,-3.2772,-3.2809,-3.2502,-3.2334,-3.2092,-3.2003,-3.1675,-3.1487,-3.1428,-3.1312,-3.1215,-3.1041,-3.0499,-3.0008,-2.9553,-2.8991,-2.8569,-2.8162,-2.7519,-2.7131,-2.6877,-2.6725,-2.6708,-2.6708,-2.6674,-2.6623,-2.6606,-2.6572,-2.6537,-2.652,-2.6537,-2.652,-2.6417,-2.6382,-2.6346,-2.6277,-2.6276,-2.6239,-2.615,-2.6185,-2.6187,-2.6043,-2.5828,-2.5516,-2.5234,-2.4863,-2.4542,-2.442,-2.4277,-2.411,-3.5704,-3.5704,-3.5704,-3.5698,-3.5706,-3.5713,-3.5744,-3.5783,-3.5805,-3.5838,-3.5864,-3.5888,-3.5916,-3.5974,-3.6006,-3.6001,-3.5917,-3.5117,-3.5271,-3.5641,-3.4917,-3.488,-3.5477,-3.5325,-3.4501,-3.321,-3.2902,-3.2462,-3.1492,-3.0779,-3.0494,-3.0414,-3.0365,-3.0336,-3.0329,-3.033,-3.0311,-3.0311,-3.0305,-3.0299,-3.0234,-3.0044,-2.9864,-2.976,-2.9514,-2.9314,-2.9225,-2.9145,-2.937,-2.9557,-2.9547,-2.9922,-3.1555,-3.1513,-3.1861,-3.3036,-3.344,-3.355,-3.3532,-3.3482,-3.3166,-3.2768,-3.3376,-3.3248,-3.2975,-3.2964,-3.3151,-3.2747,-3.2586,-3.2535,-3.2452,-3.2092,-3.1896,-3.1771,-3.1481,-3.1119,-3.0883,-3.0319,-2.9412,-2.8796,-2.808,-2.7673,-2.7453,-2.7266,-2.6894,-2.6843,-2.6708,-2.6708,-2.6708,-2.6708,-2.6674,-2.6674,-2.664,-2.6623,-2.6589,-2.6589,-2.6572,-2.652,-2.6486,-2.6451,-2.6416,-2.6347,-2.6311,-2.6257,-2.6257,-2.6222,-2.6063,-2.5899,-2.5572,-2.5294,-2.5082,-2.4867,-2.4684,-2.4623,-2.4542,-3.5704,-3.5704,-3.5704,-3.5715,-3.5702,-3.5702,-3.5698,-3.5722,-3.5765,-3.5802,-3.5804,-3.5825,-3.5851,-3.5915,-3.5973,-3.6006,-3.5691,-3.5062,-3.496,-3.5369,-3.4276,-3.4022,-3.4627,-3.4,-3.3464,-3.2524,-3.2298,-3.1604,-3.1013,-3.0638,-3.0501,-3.0487,-3.0428,-3.0404,-3.0402,-3.0392,-3.0392,-3.0367,-3.0329,-3.0305,-3.0279,-3.0118,-3.0019,-2.9907,-2.9765,-2.9626,-2.9523,-2.9395,-2.9452,-2.94,-2.9215,-2.9524,-3.0301,-3.0448,-3.0797,-3.1604,-3.2265,-3.2748,-3.2711,-3.2821,-3.2656,-3.2546,-3.3201,-3.322,-3.3125,-3.3258,-3.3592,-3.3583,-3.3273,-3.3063,-3.2908,-3.2586,-3.2385,-3.2038,-3.1637,-3.1289,-3.0942,-2.9937,-2.9024,-2.851,-2.7928,-2.7401,-2.7012,-2.6877,-2.6708,-2.6708,-2.6708,-2.6708,-2.6708,-2.6708,-2.6708,-2.6691,-2.6674,-2.6657,-2.664,-2.664,-2.6623,-2.6589,-2.6589,-2.6571,-2.6503,-2.6434,-2.6382,-2.6346,-2.6312,-2.6276,-2.6152,-2.5937,-2.5647,-2.5481,-2.5387,-2.5157,-2.4883,-2.4883,-2.5036,-3.5566,-3.5704,-3.5704,-3.5704,-3.5709,-3.5698,-3.5713,-3.5704,-3.5721,-3.5737,-3.5739,-3.5742,-3.5772,-3.585,-3.5915,-3.5644,-3.5136,-3.435,-3.4128,-3.43,-3.3422,-3.3146,-3.371,-3.3572,-3.2949,-3.2224,-3.1981,-3.1638,-3.095,-3.0626,-3.056,-3.0548,-3.0487,-3.0451,-3.046,-3.0439,-3.041,-3.0379,-3.0354,-3.0361,-3.033,-3.0235,-3.0115,-3.0011,-2.992,-2.9823,-2.9705,-2.9616,-2.9561,-2.9533,-2.9426,-2.9725,-3.0231,-3.0435,-3.0593,-3.065,-3.1017,-3.1439,-3.1861,-3.2284,-3.2051,-3.1775,-3.2344,-3.3078,-3.3225,-3.3537,-3.3762,-3.3684,-3.3569,-3.3437,-3.3339,-3.3034,-3.2876,-3.2499,-3.1769,-3.1339,-3.0765,-2.9585,-2.8675,-2.8247,-2.7856,-2.7451,-2.7068,-2.694,-2.6874,-2.6825,-2.6791,-2.6725,-2.6708,-2.6708,-2.6708,-2.6708,-2.6691,-2.6691,-2.6691,-2.6674,-2.6674,-2.6657,-2.6657,-2.6623,-2.6589,-2.652,-2.6486,-2.6417,-2.6347,-2.6294,-2.6241,-2.6099,-2.5901,-2.5811,-2.5738,-2.557,-2.5422,-2.557,-2.5607,-3.5388,-3.5596,-3.5626,-3.5668,-3.5704,-3.5704,-3.5709,-3.5709,-3.5715,-3.5718,-3.5712,-3.5709,-3.5728,-3.5694,-3.5573,-3.5182,-3.4579,-3.3535,-3.3318,-3.3003,-3.2511,-3.237,-3.2718,-3.2834,-3.2345,-3.1777,-3.1638,-3.1323,-3.096,-3.0713,-3.0664,-3.062,-3.0564,-3.0522,-3.0515,-3.0496,-3.0456,-3.0442,-3.0402,-3.0385,-3.0373,-3.0361,-3.0254,-3.0169,-3.0099,-3.0015,-2.9861,-2.978,-2.979,-2.9765,-2.9687,-2.9852,-3.0203,-3.0209,-3.0155,-3.022,-3.0446,-3.0611,-3.0984,-3.1225,-3.1195,-3.1078,-3.139,-3.2669,-3.3642,-3.3788,-3.3775,-3.3739,-3.3712,-3.3684,-3.3615,-3.3379,-3.3096,-3.2598,-3.1906,-3.1403,-3.0734,-2.9482,-2.8611,-2.8303,-2.7986,-2.7779,-2.7441,-2.7195,-2.7052,-2.7005,-2.6907,-2.6808,-2.6775,-2.6775,-2.6741,-2.6758,-2.6725,-2.6708,-2.6708,-2.6708,-2.6708,-2.6708,-2.6708,-2.6691,-2.664,-2.6623,-2.6589,-2.6503,-2.6417,-2.6382,-2.6381,-2.6276,-2.6185,-2.6061,-2.5972,-2.6079,-2.6097,-2.6185,-2.6115,-3.5195,-3.5326,-3.5457,-3.5584,-3.5698,-3.5704,-3.5704,-3.5588,-3.5665,-3.567,-3.5572,-3.5654,-3.5557,-3.5445,-3.4909,-3.4595,-3.4402,-3.2899,-3.273,-3.2519,-3.1952,-3.1656,-3.183,-3.1652,-3.1219,-3.1056,-3.1095,-3.1017,-3.082,-3.0773,-3.073,-3.0682,-3.0623,-3.0597,-3.0579,-3.0572,-3.0522,-3.0482,-3.0444,-3.0427,-3.0402,-3.039,-3.0367,-3.0361,-3.0355,-3.0343,-3.0267,-3.0095,-2.9996,-2.9992,-2.9872,-2.9748,-2.9961,-2.9944,-2.9861,-2.9859,-3.019,-3.0182,-3.012,-3.0369,-3.0399,-3.0503,-3.1109,-3.2284,-3.3623,-3.3807,-3.3807,-3.3793,-3.378,-3.3688,-3.3698,-3.362,-3.3095,-3.2384,-3.1601,-3.0966,-3.0233,-2.9291,-2.8533,-2.8318,-2.8165,-2.8051,-2.7982,-2.7751,-2.7441,-2.7367,-2.7227,-2.7132,-2.6988,-2.6939,-2.6874,-2.6841,-2.6775,-2.6741,-2.6741,-2.6725,-2.6708,-2.6708,-2.6708,-2.6708,-2.6691,-2.6674,-2.6657,-2.6623,-2.6537,-2.652,-2.6468,-2.638,-2.6292,-2.6221,-2.6203,-2.6205,-2.6187,-2.6185,-2.6185,-3.4757,-3.4499,-3.5025,-3.5388,-3.5584,-3.5584,-3.533,-3.5046,-3.5452,-3.5361,-3.4897,-3.4899,-3.4604,-3.4175,-3.3895,-3.3414,-3.2933,-3.2424,-3.2035,-3.1633,-3.1136,-3.103,-3.1092,-3.1094,-3.0878,-3.0853,-3.0868,-3.0865,-3.0865,-3.0823,-3.0798,-3.0757,-3.0701,-3.0686,-3.065,-3.0623,-3.0579,-3.056,-3.0501,-3.0456,-3.046,-3.0414,-3.0404,-3.0404,-3.0404,-3.0379,-3.0336,-3.0279,-3.0248,-3.0234,-3.0161,-3.003,-2.9904,-2.9869,-2.978,-2.9642,-3.0002,-2.9783,-2.9607,-2.9957,-3.0503,-3.0931,-3.1342,-3.2076,-3.3532,-3.3788,-3.3807,-3.3807,-3.3752,-3.3605,-3.3096,-3.2978,-3.2659,-3.1902,-3.1199,-3.0552,-2.985,-2.8997,-2.8662,-2.8538,-2.8525,-2.85,-2.843,-2.8365,-2.8024,-2.7742,-2.7595,-2.7444,-2.7289,-2.7195,-2.7164,-2.7068,-2.7005,-2.694,-2.694,-2.6841,-2.6725,-2.6708,-2.6708,-2.6708,-2.6708,-2.6708,-2.6674,-2.6657,-2.664,-2.6589,-2.652,-2.645,-2.638,-2.6293,-2.6258,-2.6224,-2.6222,-2.6187,-2.6185,-3.3846,-3.3506,-3.4065,-3.4458,-3.4706,-3.4982,-3.4635,-3.4124,-3.451,-3.4558,-3.3994,-3.3991,-3.3712,-3.319,-3.2796,-3.2543,-3.2039,-3.1628,-3.1212,-3.0918,-3.078,-3.0723,-3.074,-3.0771,-3.0796,-3.084,-3.0857,-3.0856,-3.0888,-3.0864,-3.0821,-3.0794,-3.0764,-3.0751,-3.0717,-3.0664,-3.0626,-3.061,-3.0556,-3.0527,-3.0533,-3.0487,-3.0449,-3.0444,-3.0433,-3.0414,-3.0396,-3.0361,-3.0367,-3.0361,-3.0349,-3.0267,-3.0163,-3.0068,-2.9996,-2.9856,-2.9732,-2.9607,-2.9673,-2.9774,-3.0371,-3.0711,-3.1268,-3.2094,-3.3054,-3.3642,-3.3807,-3.377,-3.3605,-3.3201,-3.2546,-3.2436,-3.1904,-3.1121,-3.0772,-3.021,-2.971,-2.9034,-2.8931,-2.8822,-2.881,-2.8743,-2.8676,-2.8589,-2.8313,-2.8024,-2.7883,-2.7725,-2.755,-2.7504,-2.7535,-2.7446,-2.7307,-2.7244,-2.7181,-2.6956,-2.6775,-2.6708,-2.6708,-2.6708,-2.6708,-2.6725,-2.6725,-2.6691,-2.6657,-2.6623,-2.6589,-2.6555,-2.6486,-2.6382,-2.6329,-2.6277,-2.6241,-2.6222,-2.6187,-3.2392,-3.2345,-3.2493,-3.267,-3.2952,-3.3777,-3.3637,-3.2929,-3.2948,-3.3013,-3.3034,-3.3089,-3.3024,-3.272,-3.2092,-3.1767,-3.1568,-3.1033,-3.0697,-3.0669,-3.0661,-3.0684,-3.07,-3.0712,-3.0729,-3.0774,-3.0798,-3.082,-3.0874,-3.0854,-3.0831,-3.0825,-3.0801,-3.0815,-3.0796,-3.073,-3.0689,-3.0701,-3.063,-3.06,-3.059,-3.0568,-3.0531,-3.0487,-3.0467,-3.0446,-3.0402,-3.0404,-3.0404,-3.0404,-3.0404,-3.0355,-3.0286,-3.026,-3.0228,-3.0214,-3.02,-3.0111,-2.9984,-2.9412,-2.9758,-3.0591,-3.135,-3.2066,-3.272,-3.3338,-3.3692,-3.3558,-3.3164,-3.2706,-3.2302,-3.1843,-3.1072,-3.0467,-3.0118,-2.9879,-2.9379,-2.9147,-2.8995,-2.8929,-2.8917,-2.8893,-2.8827,-2.8725,-2.8495,-2.8281,-2.8156,-2.8024,-2.7872,-2.7876,-2.7947,-2.7844,-2.7698,-2.7547,-2.7426,-2.7037,-2.6808,-2.6758,-2.6791,-2.6891,-2.6858,-2.6825,-2.6808,-2.6725,-2.6691,-2.6657,-2.6674,-2.6691,-2.659,-2.6503,-2.6382,-2.6329,-2.6294,-2.6293,-2.6258,-3.1874,-3.1496,-3.208,-3.1762,-3.1169,-3.2474,-3.2663,-3.2025,-3.1942,-3.2013,-3.2131,-3.2171,-3.1848,-3.1468,-3.1289,-3.1057,-3.0951,-3.0882,-3.0608,-3.0617,-3.0638,-3.0632,-3.062,-3.0647,-3.0675,-3.0712,-3.0746,-3.0752,-3.0762,-3.0798,-3.082,-3.0801,-3.0835,-3.0844,-3.082,-3.077,-3.0767,-3.0762,-3.0711,-3.0661,-3.0675,-3.0623,-3.0568,-3.05,-3.0491,-3.0457,-3.0408,-3.0396,-3.0404,-3.0404,-3.0404,-3.0379,-3.0367,-3.0348,-3.0336,-3.0267,-3.0209,-3.0015,-2.9848,-2.9673,-3.0158,-3.0978,-3.1579,-3.2273,-3.3475,-3.3833,-3.3708,-3.3206,-3.2838,-3.22,-3.1164,-3.0852,-3.0246,-2.9629,-2.9317,-2.9299,-2.9049,-2.903,-2.8975,-2.8964,-2.8964,-2.8929,-2.8893,-2.8839,-2.8651,-2.8551,-2.843,-2.8391,-2.8291,-2.8335,-2.8375,-2.8277,-2.8138,-2.7954,-2.7707,-2.735,-2.7164,-2.7149,-2.7195,-2.7305,-2.7227,-2.6956,-2.6841,-2.6741,-2.6708,-2.6708,-2.6708,-2.6708,-2.6691,-2.6607,-2.6487,-2.6383,-2.6347,-2.6347,-2.6381,-3.0854,-3.0565,-3.113,-3.0836,-3.0166,-3.1466,-3.1676,-3.1064,-3.1011,-3.1065,-3.1143,-3.1161,-3.0991,-3.0623,-3.0525,-3.054,-3.052,-3.0593,-3.0617,-3.0617,-3.0622,-3.0608,-3.0603,-3.0599,-3.0623,-3.0667,-3.0669,-3.068,-3.0714,-3.0755,-3.0771,-3.0798,-3.082,-3.082,-3.0798,-3.0791,-3.0799,-3.0774,-3.0758,-3.0732,-3.0724,-3.0701,-3.0642,-3.0582,-3.0552,-3.051,-3.0455,-3.0419,-3.041,-3.039,-3.041,-3.041,-3.041,-3.0385,-3.0379,-3.0286,-3.0222,-3.008,-3.0007,-2.9977,-3.0595,-3.1606,-3.1768,-3.2294,-3.3317,-3.3571,-3.3473,-3.3089,-3.26,-3.17,-3.0701,-3.0375,-2.9787,-2.9197,-2.9123,-2.9123,-2.904,-2.9033,-2.901,-2.901,-2.9005,-2.897,-2.8935,-2.8893,-2.8803,-2.8755,-2.8694,-2.8687,-2.8637,-2.8625,-2.8612,-2.8505,-2.837,-2.8134,-2.794,-2.7725,-2.758,-2.7537,-2.7535,-2.758,-2.7164,-2.6842,-2.6791,-2.6775,-2.6741,-2.6725,-2.6725,-2.6708,-2.6691,-2.6657,-2.6606,-2.6521,-2.6434,-2.6434,-2.6468,-2.9312,-2.9492,-2.9636,-2.9776,-2.9931,-3.0774,-3.0692,-2.997,-3.0068,-3.0166,-3.0154,-3.0356,-3.0388,-3.0343,-3.0377,-3.0417,-3.0439,-3.054,-3.0583,-3.0617,-3.0617,-3.0612,-3.0612,-3.0601,-3.0614,-3.061,-3.062,-3.0643,-3.0689,-3.0698,-3.0725,-3.0766,-3.0761,-3.0769,-3.0779,-3.0781,-3.0775,-3.0791,-3.0799,-3.0774,-3.0768,-3.0771,-3.0726,-3.0667,-3.062,-3.0576,-3.0519,-3.0462,-3.0439,-3.0417,-3.0425,-3.0419,-3.0408,-3.0396,-3.039,-3.0398,-3.0367,-3.0349,-3.033,-3.0286,-3.0593,-3.1264,-3.1132,-3.1511,-3.2223,-3.2993,-3.2922,-3.2635,-3.216,-3.1499,-3.0788,-3.0196,-2.9623,-2.9395,-2.9314,-2.9238,-2.9104,-2.906,-2.9055,-2.9033,-2.9028,-2.8994,-2.894,-2.8905,-2.8934,-2.887,-2.881,-2.8785,-2.8737,-2.8675,-2.865,-2.8582,-2.8435,-2.8242,-2.8079,-2.8027,-2.7971,-2.7901,-2.7698,-2.7639,-2.7164,-2.6972,-2.7067,-2.7083,-2.6858,-2.6775,-2.6841,-2.6775,-2.6674,-2.6657,-2.6657,-2.6623,-2.6521,-2.6521,-2.6521,-2.8989,-2.9075,-2.9262,-2.9423,-2.9569,-2.9955,-3.0014,-2.9916,-2.9945,-3.0011,-3.009,-3.0138,-3.0187,-3.0312,-3.0305,-3.0354,-3.04,-3.0444,-3.0535,-3.0574,-3.0583,-3.0593,-3.0593,-3.0593,-3.0597,-3.0591,-3.0593,-3.0606,-3.0622,-3.062,-3.0669,-3.0714,-3.0704,-3.0716,-3.0732,-3.0728,-3.0758,-3.0781,-3.0795,-3.0788,-3.0804,-3.0804,-3.0767,-3.072,-3.0677,-3.0626,-3.0583,-3.0548,-3.0522,-3.0546,-3.0535,-3.0539,-3.0539,-3.0496,-3.0456,-3.039,-3.0398,-3.0398,-3.0404,-3.0404,-3.0533,-3.0757,-3.0636,-3.1325,-3.2023,-3.2424,-3.239,-3.2061,-3.1751,-3.1185,-3.06,-3.0008,-2.9672,-2.9579,-2.9514,-2.9436,-2.9324,-2.9249,-2.9228,-2.9195,-2.9171,-2.9123,-2.9048,-2.9055,-2.906,-2.8975,-2.8923,-2.8881,-2.8822,-2.8761,-2.87,-2.8644,-2.8594,-2.843,-2.8435,-2.8401,-2.8349,-2.8264,-2.8014,-2.7826,-2.7663,-2.753,-2.7545,-2.738,-2.7084,-2.7021,-2.7069,-2.6923,-2.6708,-2.6691,-2.6691,-2.6657,-2.664,-2.6606,-2.6606,-2.8743,-2.8867,-2.8989,-2.9163,-2.9332,-2.9492,-2.9673,-2.9798,-2.9841,-2.9932,-3.0026,-3.0015,-3.0072,-3.013,-3.018,-3.0241,-3.0254,-3.0342,-3.0408,-3.0455,-3.0519,-3.0505,-3.051,-3.0535,-3.0554,-3.0554,-3.0554,-3.054,-3.0583,-3.0613,-3.0635,-3.0659,-3.065,-3.0675,-3.0675,-3.067,-3.0685,-3.074,-3.0779,-3.078,-3.0796,-3.0832,-3.0817,-3.0783,-3.0732,-3.0677,-3.0661,-3.0626,-3.06,-3.0616,-3.0613,-3.0613,-3.059,-3.054,-3.0531,-3.0482,-3.0482,-3.0477,-3.0465,-3.0444,-3.0417,-3.0402,-3.041,-3.0791,-3.1357,-3.1775,-3.1691,-3.1519,-3.1276,-3.0942,-3.0384,-2.9894,-2.9809,-2.975,-2.9715,-2.968,-2.9579,-2.9494,-2.9445,-2.9405,-2.9355,-2.9301,-2.9249,-2.9246,-2.9203,-2.916,-2.9093,-2.9026,-2.8934,-2.8822,-2.8773,-2.8737,-2.8724,-2.8687,-2.8675,-2.8625,-2.8492,-2.8352,-2.8174,-2.8034,-2.8034,-2.7865,-2.7666,-2.7474,-2.7274,-2.7211,-2.7164,-2.6907,-2.6708,-2.6725,-2.6725,-2.6691,-2.6691,-2.6674,-2.6657,-2.8582,-2.8755,-2.8779,-2.892,-2.9155,-2.9291,-2.9443,-2.9626,-2.9682,-2.9806,-2.9864,-2.988,-2.9924,-2.9988,-3.0038,-3.0094,-3.014,-3.0221,-3.0267,-3.0292,-3.039,-3.04,-3.0406,-3.0406,-3.0447,-3.0499,-3.0485,-3.0444,-3.055,-3.0597,-3.0606,-3.0598,-3.061,-3.0633,-3.0628,-3.0623,-3.0639,-3.0647,-3.0718,-3.0751,-3.0778,-3.082,-3.0875,-3.085,-3.0796,-3.0714,-3.0713,-3.0661,-3.0614,-3.0636,-3.0639,-3.0649,-3.0614,-3.061,-3.06,-3.0579,-3.0579,-3.0548,-3.0528,-3.051,-3.0487,-3.046,-3.0439,-3.0557,-3.0951,-3.1213,-3.1148,-3.1127,-3.0937,-3.0763,-3.0305,-3.013,-3.0041,-2.9996,-2.9965,-2.9926,-2.9861,-2.9724,-2.9598,-2.9551,-2.9494,-2.9445,-2.9445,-2.9434,-2.9404,-2.9334,-2.9293,-2.9238,-2.9152,-2.8996,-2.8899,-2.8851,-2.8822,-2.8798,-2.8737,-2.8657,-2.8538,-2.8386,-2.8308,-2.8242,-2.8233,-2.8,-2.7698,-2.7683,-2.7681,-2.7334,-2.7162,-2.7052,-2.6972,-2.6858,-2.6841,-2.6758,-2.6725,-2.6741,-2.6708,-2.8304,-2.8353,-2.8523,-2.8706,-2.8892,-2.8927,-2.9012,-2.9097,-2.9283,-2.9513,-2.978,-2.9815,-2.9868,-2.9899,-2.9913,-2.9972,-3.0046,-3.0072,-3.0133,-3.0194,-3.026,-3.0292,-3.0324,-3.0305,-3.0349,-3.0343,-3.0349,-3.0365,-3.0458,-3.054,-3.0598,-3.0591,-3.0593,-3.0577,-3.0604,-3.0617,-3.0602,-3.0614,-3.0633,-3.0696,-3.0726,-3.0737,-3.0769,-3.0798,-3.0781,-3.0778,-3.0792,-3.0824,-3.0815,-3.083,-3.0828,-3.0774,-3.0697,-3.0691,-3.0647,-3.061,-3.063,-3.0616,-3.0598,-3.0583,-3.056,-3.0556,-3.0539,-3.0552,-3.061,-3.0656,-3.0712,-3.0725,-3.0668,-3.0502,-3.0394,-3.0331,-3.0279,-3.0227,-3.0194,-3.0152,-3.0116,-2.995,-2.9765,-2.9706,-2.9653,-2.9635,-2.9644,-2.9626,-2.958,-2.9561,-2.9542,-2.9504,-2.9474,-2.9365,-2.9134,-2.9064,-2.8922,-2.8875,-2.8839,-2.8791,-2.8707,-2.8663,-2.8614,-2.8525,-2.8435,-2.8304,-2.8138,-2.8179,-2.8138,-2.7736,-2.75,-2.7565,-2.7444,-2.7197,-2.7069,-2.7036,-2.689,-2.6874,-2.6775,-2.8196,-2.8227,-2.8331,-2.8479,-2.8644,-2.8669,-2.8731,-2.8874,-2.8978,-2.9148,-2.9445,-2.9636,-2.9773,-2.9816,-2.9825,-2.9842,-2.9876,-2.9891,-2.9907,-2.9972,-3.0075,-3.0138,-3.0159,-3.018,-3.0247,-3.0273,-3.0286,-3.033,-3.0359,-3.0414,-3.0472,-3.05,-3.051,-3.0545,-3.0583,-3.0598,-3.0593,-3.0602,-3.0602,-3.0621,-3.0656,-3.0682,-3.0714,-3.0757,-3.0765,-3.0791,-3.0794,-3.0817,-3.0798,-3.082,-3.082,-3.085,-3.0794,-3.0783,-3.0751,-3.0733,-3.0701,-3.0667,-3.0653,-3.0645,-3.0636,-3.062,-3.062,-3.0579,-3.0591,-3.0655,-3.0631,-3.0636,-3.0586,-3.0449,-3.0436,-3.0394,-3.0329,-3.0286,-3.0267,-3.0228,-3.0214,-3.0133,-3.0049,-3.0019,-2.9973,-2.9923,-2.9942,-2.9945,-2.9897,-2.9742,-2.9734,-2.9672,-2.9653,-2.9681,-2.9465,-2.9316,-2.9222,-2.9158,-2.9172,-2.9093,-2.8966,-2.8927,-2.8858,-2.8761,-2.8632,-2.8644,-2.8632,-2.8474,-2.8286,-2.8051,-2.7897,-2.7886,-2.7742,-2.7491,-2.7415,-2.7382,-2.7195,-2.7004,-2.6971,-2.8196,-2.8196,-2.8196,-2.8286,-2.8458,-2.8453,-2.8543,-2.8706,-2.8755,-2.8791,-2.8929,-2.9363,-2.9569,-2.9655,-2.9692,-2.9701,-2.972,-2.9765,-2.9738,-2.9737,-2.9866,-2.9951,-2.9972,-3.0011,-3.0072,-3.0152,-3.0206,-3.0233,-3.0273,-3.0318,-3.0367,-3.0389,-3.0417,-3.0458,-3.054,-3.0564,-3.0554,-3.0593,-3.0616,-3.0607,-3.0618,-3.0642,-3.0659,-3.0684,-3.0694,-3.07,-3.0691,-3.0698,-3.0698,-3.0711,-3.0768,-3.0799,-3.082,-3.0799,-3.0798,-3.0775,-3.0755,-3.0726,-3.0726,-3.0719,-3.0689,-3.0653,-3.063,-3.0623,-3.0626,-3.0623,-3.062,-3.059,-3.0536,-3.0515,-3.0487,-3.0477,-3.0414,-3.0369,-3.0358,-3.0316,-3.0311,-3.0286,-3.0273,-3.026,-3.0215,-3.0188,-3.0168,-3.0199,-3.0109,-2.9988,-2.9897,-2.9803,-2.9769,-2.9828,-2.9777,-2.9706,-2.9662,-2.9607,-2.9476,-2.9328,-2.9166,-2.8996,-2.8917,-2.8858,-2.8798,-2.8761,-2.8657,-2.8469,-2.8281,-2.8228,-2.8134,-2.8083,-2.7901,-2.7771,-2.7742,-2.7651,-2.7369,-2.7228,-2.7227,-2.8196,-2.8196,-2.8196,-2.8223,-2.8264,-2.8264,-2.8277,-2.8327,-2.851,-2.8569,-2.8651,-2.8827,-2.9119,-2.9453,-2.9645,-2.9626,-2.9463,-2.955,-2.9579,-2.9579,-2.9654,-2.9719,-2.9792,-2.9834,-2.9842,-2.9926,-3.0011,-3.0091,-3.0094,-3.0213,-3.0286,-3.0286,-3.0292,-3.0361,-3.0422,-3.0444,-3.0485,-3.0535,-3.0574,-3.0574,-3.0583,-3.0613,-3.0614,-3.0632,-3.062,-3.0656,-3.0682,-3.0696,-3.07,-3.071,-3.07,-3.0735,-3.0765,-3.0769,-3.0751,-3.0755,-3.0735,-3.074,-3.0722,-3.0741,-3.0713,-3.0732,-3.0725,-3.0721,-3.0741,-3.0737,-3.0732,-3.0698,-3.0659,-3.0613,-3.0583,-3.0568,-3.0531,-3.0509,-3.0495,-3.0422,-3.0356,-3.0352,-3.0334,-3.031,-3.0279,-3.0248,-3.0221,-3.0221,-3.0206,-3.0109,-3.0113,-3.0034,-3.0019,-3.0042,-3.0049,-3.0015,-3.0,-2.9715,-2.9446,-2.9436,-2.9304,-2.913,-2.9021,-2.9014,-2.8957,-2.8822,-2.8706,-2.8601,-2.8601,-2.8601,-2.8487,-2.8313,-2.8259,-2.8147,-2.8065,-2.7922,-2.7639,-2.7474,-2.7565]},{"header":{"parameterUnit":"m.s-1","parameterCategory":1,"la1":31.0,"la2":29.5877,"lo1":-88.7671,"lo2":-86.6584,"dy":0.0162,"dx":0.0185,"nx":115,"ny":88,"refTime":"2025-07-09T12:00:00:Z","depth":0,"parameterNumber":3,"parameterNumberName":"V-component_of_WINDS"},"data":[0.0,0.0,0.0,0.0,0.0,0.0,0.0,0.0,0.0,0.0,0.0,0.0,0.0,0.0,0.0,0.0,0.0,0.0,0.0,0.0,0.0,0.0,0.0,0.0,0.0,0.0,0.0,0.0,0.0,0.0,0.0,0.0,0.0,0.0,0.0,0.0,0.0,0.0,0.0,0.0,0.0,0.0,0.0,0.0,0.0,0.0,0.0,0.0,0.0,0.0,0.0,0.0,0.0,0.0,0.0,0.0,0.0,0.0,0.0,0.0,0.0,0.0,0.0,0.0,0.0,0.0,0.0,0.0,0.0,0.0,0.0,0.0,0.0,0.0,0.0,0.0,0.0,0.0,0.0,0.0,0.0,0.0,0.0,0.0,0.0,0.0,0.0,0.0,0.0,0.0,0.0,0.0,0.0,0.0,0.0,0.0,0.0,0.0,0.0,0.0,0.0,0.0,0.0,0.0,0.0,0.0,0.0,0.0,0.0,0.0,0.0,0.0,0.0,0.0,0.0,0.0,0.0,0.0,0.0,0.0,0.0,0.0,0.0,0.0,0.0,0.0,0.0,0.0,0.0,0.0,0.0,0.0,0.0,0.0,0.0,0.0,0.0,0.0,0.0,0.0,0.0,0.0,0.0,0.0,0.0,0.0,0.0,0.0,0.0,0.0,0.0,0.0,0.0,0.0,0.0,0.0,0.0,0.0,0.0,0.0,0.0,0.0,0.0,0.0,0.0,0.0,0.0,0.0,0.0,0.0,0.0,0.0,0.0,0.0,0.0,0.0,0.0,0.0,0.0,0.0,0.0,0.0,0.0,0.0,0.0,0.0,0.0,0.0,0.0,0.0,0.0,0.0,0.0,0.0,0.0,0.0,0.0,0.0,0.0,0.0,0.0,0.0,0.0,0.0,0.0,0.0,0.0,0.0,0.0,0.0,0.0,0.0,0.0,0.0,0.0,0.0,0.0,0.0,0.0,0.0,0.0,0.0,0.0,0.0,0.0,0.0,0.0,0.0,0.0,0.0,0.0,0.0,0.0,0.0,0.0,0.0,0.0,0.0,0.0,0.0,0.0,0.0,0.0,0.0,0.0,0.0,0.0,0.0,0.0,0.0,0.0,0.0,0.0,0.0,0.0,0.0,0.0,0.0,0.0,0.0,0.0,0.0,0.0,0.0,0.0,0.0,0.0,0.0,0.0,0.0,0.0,0.0,0.0,0.0,0.0,0.0,0.0,0.0,0.0,0.0,0.0,0.0,0.0,0.0,0.0,0.0,0.0,0.0,0.0,0.0,0.0,0.0,0.0,0.0,0.0,0.0,0.0,0.0,0.0,0.0,0.0,0.0,0.0,0.0,0.0,0.0,0.0,0.0,0.0,0.0,0.0,0.0,0.0,0.0,0.0,0.0,0.0,0.0,0.0,0.0,0.0,0.0,0.0,0.0,0.0,0.0,0.0,0.0,0.0,0.0,0.0,0.0,0.0,0.0,0.0,0.0,0.0,0.0,0.0,0.0,0.0,0.0,0.0,0.0,0.0,0.0,0.0,0.0,0.0,0.0,0.0,0.0,0.0,0.0,0.0,0.0,0.0,0.0,0.0,0.0,0.0,0.0,0.0,0.0,0.0,0.0,0.0,0.0,0.0,0.0,0.0,0.0,0.0,0.0,0.0,0.0,0.0,0.0,0.0,0.0,0.0,0.0,0.0,0.0,0.0,0.0,0.0,0.0,0.0,0.0,0.0,0.0,0.0,0.0,0.0,0.0,0.0,0.0,0.0,0.0,0.0,0.0,0.0,0.0,0.0,0.0,0.0,0.0,0.0,0.0,0.0,0.0,0.0,0.0,0.0,0.0,0.0,0.0,0.0,0.0,0.0,0.0,0.0,0.0,0.0,0.0,0.0,0.0,0.0,0.0,0.0,0.0,0.0,0.0,0.0,0.0,0.0,0.0,0.0,0.0,0.0,0.0,0.0,0.0,0.0,0.0,0.0,0.0,0.0,0.0,0.0,0.0,0.0,0.0,0.0,0.0,0.0,0.0,0.0,0.0,0.0,0.0,0.0,0.0,0.0,0.0,0.0,0.0,0.0,0.0,0.0,0.0,0.0,0.0,0.0,0.0,0.0,0.0,0.0,0.0,0.0,0.0,0.0,0.0,0.0,0.0,0.0,0.0,0.0,0.0,0.0,0.0,0.0,0.0,0.0,0.0,0.0,0.0,0.0,0.0,0.0,0.0,0.0,0.0,0.0,0.0,0.0,0.0,0.0,0.0,0.0,0.0,0.0,0.0,0.0,0.0,0.0,0.0,0.0,0.0,0.0,0.0,0.0,0.0,0.0,0.0,0.0,0.0,0.0,0.0,0.0,0.0,0.0,0.0,0.0,0.0,0.0,0.0,0.0,0.0,0.0,0.0,0.0,0.0,0.0,0.0,0.0,0.0,0.0,0.0,0.0,0.0,0.0,0.0,0.0,0.0,0.0,0.0,0.0,0.0,0.0,0.0,0.0,0.0,0.0,0.0,0.0,0.0,0.0,0.0,0.0,0.0,0.0,0.0,0.0,0.0,0.0,0.0,0.0,0.0,0.0,0.0,0.0,0.0,0.0,0.0,0.0,0.0,0.0,0.0,0.0,0.0,0.0,0.0,0.0,0.0,0.0,0.0,0.0,0.0,0.0,0.0,0.0,0.0,0.0,0.0,0.0,0.0,0.0,0.0,0.0,0.0,0.0,0.0,0.0,0.0,0.0,0.0,0.0,0.0,0.0,0.0,0.0,0.0,0.0,0.0,0.0,0.0,0.0,0.0,0.0,0.0,0.0,0.0,0.0,0.0,0.0,0.0,0.0,0.0,0.0,0.0,0.0,0.0,0.0,0.0,0.0,0.0,0.0,0.0,0.0,0.0,0.0,0.0,0.0,0.0,0.0,0.0,0.0,0.0,0.0,0.0,0.0,0.0,0.0,0.0,0.0,0.0,0.0,0.0,0.0,0.0,0.0,0.0,0.0,0.0,0.0,0.0,0.0,0.0,0.0,0.0,0.0,0.0,0.0,0.0,0.0,0.0,0.0,0.0,0.0,0.0,0.0,0.0,0.0,0.0,0.0,0.0,0.0,0.0,0.0,0.0,0.0,0.0,0.0,0.0,0.0,0.0,0.0,0.0,0.0,0.0,0.0,0.0,0.0,0.0,0.0,0.0,0.0,0.0,0.0,0.0,0.0,0.0,0.0,0.0,0.0,0.0,0.0,0.0,0.0,0.0,0.0,0.0,0.0,0.0,0.0,0.0,0.0,0.0,0.0,0.0,0.0,0.0,0.0,0.0,0.0,0.0,0.0,0.0,0.0,0.0,0.0,0.0,0.0,0.0,0.0,0.0,0.0,0.0,0.0,0.0,0.0,0.0,0.0,0.0,0.0,0.0,0.0,0.0,0.0,0.0,0.0,0.0,0.0,0.0,0.0,0.0,0.0,0.0,0.0,0.0,0.0,0.0,0.0,0.0,0.0,0.0,0.0,0.0,0.0,0.0,0.0,0.0,0.0,0.0,0.0,0.0,0.0,0.0,0.0,0.0,0.0,0.0,0.0,0.0,0.0,0.0,0.0,0.0,0.0,0.0,0.0,0.0,0.0,0.0,0.0,0.0,0.0,0.0,0.0,0.0,0.0,0.0,0.0,0.0,0.0,0.0,0.0,0.0,0.0,0.0,0.0,0.0,0.0,0.0,0.0,0.0,0.0,0.0,0.0,0.0,0.0,0.0,0.0,0.0,0.0,0.0,0.0,0.0,0.0,0.0,0.0,0.0,0.0,0.0,0.0,0.0,0.0,0.0,0.0,0.0,0.0,0.0,0.0,0.0,0.0,0.0,0.0,0.0,0.0,0.0,0.0,0.0,0.0,0.0,0.0,0.0,0.0,0.0,0.0,0.0,0.0,0.0,0.0,0.0,0.0,0.0,0.0,0.0,0.0,0.0,0.0,0.0,0.0,0.0,0.0,0.0,0.0,0.0,0.0,0.0,0.0,0.0,0.0,0.0,0.0,0.0,0.0,0.0,0.0,0.0,0.0,0.0,0.0,0.0,0.0,0.0,0.0,0.0,0.0,0.0,0.0,0.0,0.0,0.0,0.0,0.0,0.0,0.0,0.0,0.0,0.0,0.0,0.0,0.0,0.0,0.0,0.0,0.0,0.0,0.0,0.0,0.0,0.0,0.0,0.0,0.0,0.0,0.0,0.0,0.0,0.0,0.0,0.0,0.0,0.0,0.0,0.0,0.0,0.0,0.0,0.0,0.0,0.0,0.0,-0.7996,0.0,0.0,0.0,0.0,0.0,0.0,0.0,0.0,0.0,0.0,0.0,0.0,0.0,0.0,0.0,0.0,0.0,0.0,0.0,0.0,0.0,0.0,0.0,0.0,0.0,0.0,0.0,0.0,0.0,0.0,0.0,0.0,0.0,0.0,0.0,0.0,0.0,0.0,0.0,0.0,0.0,0.0,0.0,0.0,0.0,0.0,0.0,0.0,0.0,0.0,0.0,0.0,0.0,0.0,0.0,0.0,0.0,0.0,0.0,0.0,0.0,0.0,0.0,0.0,0.0,0.0,0.0,0.0,0.0,0.0,0.0,0.0,0.0,0.0,0.0,0.0,0.0,0.0,0.0,0.0,0.0,0.0,0.0,0.0,0.0,0.0,0.0,0.0,0.0,0.0,0.0,0.0,0.0,0.0,0.0,0.0,0.0,0.0,0.0,0.0,0.0,0.0,0.0,0.0,0.0,0.0,0.0,0.0,0.0,0.0,-0.6945,-0.7015,-0.7584,-0.817,-0.8692,0.0,0.0,0.0,0.0,0.0,0.0,0.0,0.0,0.0,0.0,0.0,0.0,0.0,0.0,0.0,0.0,0.0,0.0,0.0,0.0,0.0,0.0,0.0,0.0,0.0,0.0,0.0,0.0,0.0,0.0,0.0,0.0,0.0,0.0,0.0,0.0,0.0,0.0,0.0,0.0,0.0,0.0,0.0,0.0,0.0,0.0,0.0,0.0,0.0,0.0,0.0,0.0,0.0,0.0,0.0,0.0,0.0,0.0,0.0,0.0,0.0,0.0,0.0,0.0,0.0,0.0,0.0,0.0,0.0,0.0,0.0,0.0,0.0,0.0,0.0,0.0,0.0,0.0,0.0,0.0,0.0,0.0,0.0,0.0,0.0,0.0,0.0,0.0,0.0,0.0,0.0,0.0,0.0,0.0,0.0,0.0,0.0,0.0,0.0,0.0,0.0,0.0,0.0,0.0,0.0,0.0,0.0,0.0,0.0,0.0,0.0,0.0,-0.8477,-0.9085,-0.9566,0.0,0.0,0.0,0.0,0.0,0.0,0.0,0.0,0.0,0.0,0.0,0.0,0.0,0.0,0.0,0.0,0.0,0.0,0.0,0.0,0.0,0.0,0.0,0.0,0.0,0.0,0.0,0.0,0.0,0.0,0.0,0.0,0.0,0.0,0.0,0.0,0.0,0.0,0.0,0.0,0.0,0.0,0.0,0.0,0.0,0.0,0.0,0.0,0.0,0.0,0.0,0.0,0.0,0.0,0.0,0.0,0.0,0.0,0.0,0.0,0.0,0.0,0.0,0.0,0.0,0.0,0.0,0.0,0.0,0.0,0.0,0.0,0.0,0.0,0.0,0.0,0.0,0.0,0.0,0.0,0.0,0.0,0.0,0.0,0.0,0.0,0.0,0.0,0.0,0.0,0.0,0.0,0.0,0.0,0.0,0.0,0.0,0.0,0.0,0.0,0.0,0.0,0.0,0.0,0.0,0.0,0.0,0.0,0.0,0.0,-0.7996,-0.8351,-0.9096,0.0,-1.0717,0.0,0.0,0.0,0.0,0.0,0.0,0.0,0.0,0.0,0.0,0.0,0.0,0.0,0.0,0.0,0.0,0.0,0.0,0.0,0.0,0.0,0.0,0.0,0.0,0.0,0.0,0.0,0.0,0.0,0.0,0.0,0.0,0.0,0.0,0.0,0.0,0.0,0.0,0.0,0.0,0.0,0.0,0.0,0.0,0.0,0.0,0.0,0.0,0.0,0.0,0.0,0.0,0.0,0.0,0.0,0.0,0.0,0.0,0.0,0.0,0.0,0.0,0.0,0.0,0.0,0.0,0.0,0.0,0.0,0.0,0.0,0.0,0.0,0.0,0.0,0.0,0.0,0.0,0.0,0.0,0.0,0.0,0.0,0.0,0.0,0.0,0.0,0.0,0.0,0.0,0.0,0.0,0.0,0.0,0.0,0.0,0.0,0.0,0.0,0.0,0.0,0.0,0.0,0.0,0.0,0.0,0.0,0.0,0.0,0.0,-0.9282,-0.9875,-1.0279,-1.0643,0.0,0.0,0.0,0.0,0.0,0.0,0.0,0.0,0.0,0.0,0.0,0.0,0.0,0.0,0.0,0.0,0.0,0.0,0.0,0.0,0.0,0.0,0.0,0.0,0.0,0.0,0.0,0.0,0.0,0.0,0.0,0.0,0.0,0.0,0.0,0.0,0.0,0.0,0.0,0.0,0.0,0.0,0.0,0.0,0.0,0.0,0.0,0.0,0.0,0.0,0.0,0.0,0.0,0.0,0.0,0.0,0.0,0.0,0.0,0.0,0.0,0.0,0.0,0.0,0.0,0.0,0.0,0.0,0.0,0.0,0.0,0.0,0.0,0.0,0.0,0.0,0.0,0.0,0.0,0.0,0.0,0.0,0.0,0.0,0.0,0.0,0.0,0.0,0.0,0.0,0.0,0.0,0.0,0.0,0.0,0.0,0.0,0.0,0.0,0.0,0.0,0.0,0.0,0.0,0.0,0.0,0.0,0.0,0.0,0.0,-0.9779,-1.0296,-1.1159,-1.1339,-1.1325,-1.1107,0.0,0.0,0.0,0.0,0.0,0.0,0.0,0.0,0.0,0.0,0.0,0.0,0.0,0.0,0.0,0.0,0.0,0.0,0.0,0.0,0.0,0.0,0.0,0.0,0.0,0.0,0.0,0.0,0.0,0.0,0.0,0.0,0.0,0.0,0.0,0.0,0.0,0.0,0.0,0.0,0.0,0.0,0.0,0.0,0.0,0.0,0.0,0.0,0.0,0.0,0.0,0.0,0.0,0.0,0.0,0.0,0.0,0.0,0.0,0.0,0.0,0.0,0.0,0.0,0.0,0.0,0.0,0.0,0.0,0.0,0.0,0.0,0.0,0.0,0.0,0.0,0.0,0.0,0.0,0.0,0.0,0.0,0.0,0.0,0.0,0.0,0.0,0.0,0.0,0.0,0.0,0.0,0.0,0.0,0.0,0.0,0.0,0.0,0.0,0.0,0.0,0.0,0.0,0.0,0.0,0.0,0.0,0.0,-1.135,-1.0598,-1.0685,-1.1954,-1.2164,-1.1898,0.0,0.0,0.0,0.0,0.0,0.0,0.0,0.0,0.0,0.0,0.0,0.0,0.0,0.0,0.0,0.0,0.0,0.0,0.0,0.0,0.0,0.0,0.0,0.0,0.0,0.0,0.0,0.0,0.0,0.0,0.0,0.0,0.0,0.0,0.0,0.0,0.0,0.0,0.0,0.0,0.0,0.0,0.0,0.0,0.0,0.0,0.0,0.0,0.0,0.0,0.0,0.0,0.0,0.0,0.0,0.0,0.0,0.0,0.0,0.0,0.0,0.0,0.0,0.0,0.0,0.0,0.0,0.0,0.0,0.0,0.0,0.0,0.0,0.0,0.0,0.0,0.0,0.0,0.0,0.0,0.0,0.0,0.0,0.0,0.0,0.0,0.0,0.0,0.0,0.0,0.0,0.0,0.0,0.0,0.0,0.0,0.0,0.0,0.0,0.0,0.0,0.0,0.0,0.0,0.0,0.0,0.0,0.0,0.0,-1.0789,-1.1337,-1.2264,-1.3527,-1.2468,-1.1901,0.0,0.0,0.0,0.0,0.0,0.0,0.0,0.0,0.0,0.0,0.0,0.0,0.0,0.0,0.0,0.0,0.0,0.0,0.0,0.0,0.0,0.0,0.0,0.0,0.0,0.0,0.0,0.0,0.0,0.0,0.0,0.0,0.0,0.0,0.0,0.0,0.0,0.0,0.0,0.0,0.0,0.0,0.0,0.0,0.0,0.0,0.0,0.0,0.0,0.0,0.0,0.0,0.0,0.0,0.0,0.0,0.0,0.0,0.0,0.0,0.0,0.0,0.0,0.0,0.0,0.0,0.0,0.0,0.0,0.0,0.0,0.0,0.0,0.0,0.0,0.0,0.0,0.0,0.0,0.0,0.0,0.0,0.0,0.0,0.0,0.0,0.0,0.0,0.0,0.0,0.0,0.0,0.0,0.0,0.0,0.0,0.0,0.0,0.0,0.0,0.0,0.0,0.0,0.0,0.0,0.0,0.0,0.0,0.0,-1.1062,0.0,-1.3244,-1.3826,-1.2723,-1.1941,0.0,0.0,0.0,0.0,0.0,0.0,0.0,0.0,0.0,0.0,0.0,0.0,0.0,0.0,0.0,0.0,0.0,0.0,0.0,0.0,0.0,0.0,0.0,0.0,0.0,0.0,0.0,0.0,0.0,0.0,0.0,0.0,0.0,0.0,0.0,0.0,0.0,0.0,0.0,0.0,0.0,0.0,0.0,0.0,0.0,0.0,0.0,0.0,0.0,0.0,0.0,0.0,0.0,0.0,0.0,0.0,0.0,0.0,0.0,0.0,0.0,0.0,0.0,0.0,0.0,0.0,0.0,0.0,0.0,0.0,0.0,0.0,0.0,0.0,0.0,0.0,0.0,0.0,0.0,0.0,0.0,0.0,0.0,0.0,0.0,0.0,0.0,0.0,0.0,0.0,0.0,0.0,0.0,0.0,0.0,0.0,0.0,0.0,0.0,0.0,0.0,0.0,0.0,0.0,0.0,0.0,0.0,0.0,-1.0627,-1.2417,-1.3308,-1.3433,-1.2785,-1.2867,-1.2072,0.0,0.0,0.0,0.0,0.0,0.0,0.0,0.0,0.0,0.0,0.0,0.0,0.0,0.0,0.0,0.0,0.0,0.0,0.0,0.0,0.0,0.0,0.0,0.0,0.0,0.0,0.0,0.0,0.0,0.0,0.0,0.0,0.0,0.0,0.0,0.0,0.0,0.0,0.0,0.0,0.0,0.0,0.0,0.0,0.0,0.0,0.0,0.0,0.0,0.0,0.0,0.0,0.0,0.0,0.0,0.0,0.0,0.0,0.0,0.0,0.0,0.0,0.0,0.0,0.0,0.0,0.0,0.0,0.0,0.0,0.0,0.0,0.0,0.0,0.0,0.0,0.0,0.0,0.0,0.0,0.0,0.0,0.0,0.0,0.0,0.0,0.0,0.0,0.0,0.0,0.0,0.0,0.0,0.0,0.0,0.0,0.0,0.0,0.0,0.0,0.0,0.0,0.0,0.0,0.0,0.0,0.0,0.0,0.0,-1.2494,-1.2971,-1.3483,-1.387,-1.2709,-1.1933,0.0,0.0,0.0,0.0,0.0,0.0,0.0,0.0,0.0,0.0,0.0,0.0,0.0,0.0,0.0,0.0,0.0,0.0,0.0,0.0,0.0,0.0,0.0,0.0,0.0,0.0,0.0,0.0,0.0,0.0,0.0,0.0,0.0,0.0,0.0,0.0,0.0,0.0,0.0,0.0,0.0,0.0,0.0,0.0,0.0,0.0,0.0,0.0,0.0,0.0,0.0,0.0,0.0,0.0,0.0,0.0,0.0,0.0,0.0,0.0,0.0,0.0,0.0,0.0,0.0,0.0,0.0,0.0,0.0,0.0,0.0,0.0,0.0,0.0,0.0,0.0,0.0,0.0,0.0,0.0,0.0,0.0,0.0,0.0,0.0,0.0,0.0,0.0,0.0,0.0,0.0,0.0,0.0,0.0,0.0,0.0,0.0,0.0,0.0,0.0,0.0,0.0,0.0,0.0,0.0,0.0,0.0,0.0,0.0,-1.3082,-1.3542,-1.395,-1.432,-1.2904,-1.2155,-1.223,0.0,0.0,0.0,0.0,0.0,0.0,0.0,0.0,0.0,0.0,0.0,0.0,0.0,0.0,0.0,0.0,0.0,0.0,0.0,0.0,0.0,0.0,0.0,0.0,0.0,0.0,0.0,0.0,0.0,0.0,0.0,0.0,0.0,0.0,0.0,0.0,0.0,0.0,0.0,0.0,0.0,0.0,0.0,0.0,0.0,0.0,0.0,0.0,0.0,0.0,0.0,0.0,0.0,0.0,0.0,0.0,0.0,0.0,0.0,0.0,0.0,0.0,0.0,0.0,0.0,0.0,0.0,0.0,0.0,0.0,0.0,0.0,0.0,0.0,0.0,0.0,0.0,0.0,0.0,0.0,0.0,0.0,0.0,0.0,0.0,0.0,0.0,0.0,0.0,0.0,0.0,0.0,0.0,0.0,0.0,0.0,0.0,0.0,0.0,0.0,0.0,0.0,0.0,0.0,0.0,0.0,0.0,0.0,-1.3945,-1.4717,-1.4782,-1.4106,-1.3382,-1.2691,0.0,0.0,0.0,0.0,0.0,0.0,0.0,0.0,0.0,0.0,0.0,0.0,0.0,0.0,0.0,0.0,0.0,0.0,0.0,0.0,0.0,0.0,0.0,0.0,0.0,0.0,0.0,0.0,0.0,0.0,0.0,0.0,0.0,0.0,0.0,0.0,0.0,0.0,0.0,0.0,0.0,0.0,0.0,0.0,0.0,0.0,0.0,0.0,0.0,0.0,0.0,0.0,0.0,0.0,0.0,0.0,0.0,0.0,0.0,0.0,0.0,0.0,0.0,0.0,0.0,0.0,0.0,0.0,0.0,0.0,0.0,0.0,0.0,0.0,0.0,0.0,0.0,0.0,0.0,0.0,0.0,0.0,0.0,0.0,0.0,0.0,0.0,0.0,0.0,0.0,0.0,0.0,0.0,0.0,0.0,0.0,0.0,0.0,0.0,0.0,0.0,0.0,0.0,0.0,0.0,0.0,0.0,0.0,0.0,-1.3653,-1.4721,-1.5223,-1.5028,-1.3726,-1.2971,0.0,0.0,0.0,0.0,0.0,0.0,0.0,0.0,0.0,0.0,0.0,0.0,0.0,0.0,0.0,0.0,0.0,0.0,0.0,0.0,0.0,0.0,0.0,0.0,0.0,0.0,0.0,0.0,0.0,0.0,0.0,0.0,0.0,0.0,0.0,0.0,0.0,0.0,0.0,0.0,0.0,0.0,0.0,0.0,0.0,0.0,0.0,0.0,0.0,0.0,0.0,0.0,0.0,0.0,0.0,0.0,0.0,0.0,0.0,0.0,0.0,0.0,0.0,0.0,0.0,0.0,0.0,0.0,0.0,0.0,0.0,0.0,0.0,0.0,0.0,0.0,0.0,0.0,0.0,0.0,0.0,0.0,0.0,0.0,0.0,0.0,0.0,0.0,0.0,0.0,0.0,0.0,0.0,0.0,0.0,0.0,0.0,0.0,0.0,0.0,0.0,0.0,0.0,0.0,0.0,0.0,0.0,0.0,-1.3631,-1.3909,-1.4863,-1.5389,-1.5389,-1.426,-1.3658,0.0,0.0,0.0,0.0,0.0,0.0,0.0,0.0,0.0,0.0,0.0,0.0,0.0,0.0,0.0,0.0,0.0,0.0,0.0,0.0,0.0,0.0,0.0,0.0,0.0,0.0,0.0,0.0,0.0,0.0,0.0,0.0,0.0,0.0,0.0,0.0,0.0,0.0,0.0,0.0,0.0,0.0,0.0,0.0,0.0,0.0,0.0,0.0,0.0,0.0,0.0,0.0,0.0,0.0,0.0,0.0,0.0,0.0,0.0,0.0,0.0,0.0,0.0,0.0,0.0,0.0,0.0,0.0,0.0,0.0,0.0,0.0,0.0,0.0,0.0,0.0,0.0,0.0,0.0,0.0,0.0,0.0,0.0,0.0,0.0,0.0,0.0,0.0,0.0,0.0,0.0,0.0,0.0,0.0,0.0,0.0,0.0,0.0,0.0,0.0,0.0,0.0,0.0,0.0,0.0,0.0,0.0,0.0,-1.3888,-1.4496,-1.5101,-1.5389,-1.5374,-1.4772,-1.4416,0.0,0.0,0.0,0.0,0.0,0.0,0.0,0.0,0.0,0.0,0.0,0.0,0.0,0.0,0.0,0.0,0.0,0.0,0.0,0.0,0.0,0.0,0.0,0.0,0.0,0.0,0.0,0.0,0.0,0.0,0.0,0.0,0.0,0.0,0.0,0.0,0.0,0.0,0.0,0.0,0.0,0.0,0.0,0.0,0.0,0.0,0.0,0.0,0.0,0.0,0.0,0.0,0.0,0.0,0.0,0.0,0.0,0.0,0.0,0.0,0.0,0.0,0.0,0.0,0.0,0.0,0.0,0.0,0.0,0.0,0.0,0.0,0.0,0.0,0.0,0.0,0.0,0.0,0.0,0.0,0.0,0.0,0.0,0.0,0.0,0.0,0.0,0.0,0.0,0.0,0.0,0.0,0.0,0.0,0.0,0.0,0.0,0.0,0.0,0.0,0.0,0.0,0.0,0.0,0.0,0.0,0.0,0.0,-1.407,-1.4504,-1.5101,-1.5389,-1.5382,-1.456,-1.4286,0.0,0.0,0.0,0.0,0.0,0.0,0.0,0.0,0.0,0.0,0.0,0.0,0.0,0.0,0.0,0.0,0.0,0.0,0.0,0.0,0.0,0.0,0.0,0.0,0.0,0.0,0.0,0.0,0.0,0.0,0.0,0.0,0.0,0.0,0.0,0.0,0.0,0.0,0.0,0.0,0.0,0.0,0.0,0.0,0.0,0.0,0.0,0.0,-1.7695,0.0,0.0,0.0,0.0,0.0,0.0,0.0,0.0,0.0,0.0,0.0,0.0,0.0,0.0,0.0,0.0,0.0,0.0,0.0,0.0,0.0,0.0,0.0,0.0,0.0,0.0,0.0,0.0,0.0,0.0,0.0,0.0,0.0,0.0,0.0,0.0,0.0,0.0,0.0,0.0,0.0,0.0,0.0,0.0,0.0,0.0,0.0,0.0,0.0,0.0,0.0,0.0,0.0,0.0,0.0,0.0,0.0,0.0,0.0,-1.4247,-1.4684,-1.5133,-1.5389,-1.5409,-1.5162,-1.5034,0.0,0.0,0.0,0.0,0.0,0.0,0.0,0.0,0.0,0.0,0.0,0.0,0.0,0.0,0.0,0.0,0.0,0.0,0.0,0.0,0.0,0.0,0.0,0.0,0.0,0.0,0.0,0.0,0.0,0.0,0.0,0.0,0.0,0.0,0.0,0.0,0.0,0.0,0.0,0.0,0.0,0.0,0.0,0.0,0.0,0.0,0.0,0.0,0.0,0.0,0.0,0.0,0.0,0.0,0.0,0.0,0.0,0.0,0.0,0.0,0.0,0.0,0.0,0.0,0.0,0.0,0.0,0.0,0.0,0.0,0.0,0.0,0.0,0.0,0.0,0.0,0.0,0.0,0.0,0.0,0.0,0.0,0.0,0.0,0.0,0.0,0.0,0.0,0.0,0.0,0.0,0.0,0.0,0.0,0.0,0.0,0.0,0.0,0.0,0.0,0.0,0.0,0.0,0.0,0.0,0.0,0.0,-1.3375,-1.4267,-1.4951,-1.525,-1.5389,-1.5423,-1.5977,-1.599,-1.5417,0.0,0.0,0.0,0.0,0.0,0.0,0.0,0.0,0.0,0.0,0.0,0.0,0.0,0.0,0.0,0.0,0.0,0.0,0.0,0.0,0.0,0.0,0.0,0.0,0.0,0.0,0.0,0.0,0.0,0.0,0.0,0.0,0.0,0.0,0.0,0.0,0.0,0.0,-1.4328,-1.6222,0.0,0.0,0.0,0.0,0.0,0.0,0.0,0.0,-1.9621,0.0,0.0,0.0,0.0,0.0,0.0,0.0,0.0,0.0,0.0,0.0,0.0,0.0,0.0,0.0,0.0,0.0,0.0,0.0,0.0,0.0,0.0,0.0,0.0,0.0,0.0,0.0,0.0,0.0,0.0,0.0,0.0,0.0,0.0,0.0,0.0,0.0,0.0,0.0,0.0,0.0,0.0,0.0,0.0,0.0,0.0,0.0,0.0,0.0,0.0,0.0,0.0,0.0,0.0,0.0,0.0,-1.3631,-1.3609,-1.415,-1.5272,-1.5352,-1.5389,-1.5431,-1.6209,-1.6249,-1.5426,0.0,0.0,0.0,0.0,0.0,0.0,0.0,0.0,0.0,0.0,0.0,0.0,0.0,0.0,0.0,0.0,0.0,0.0,0.0,0.0,0.0,0.0,0.0,0.0,0.0,0.0,0.0,0.0,0.0,0.0,0.0,0.0,0.0,0.0,0.0,0.0,0.0,0.0,0.0,-1.7152,-1.8227,0.0,0.0,0.0,0.0,0.0,0.0,0.0,0.0,-2.0005,0.0,0.0,0.0,0.0,0.0,0.0,0.0,0.0,0.0,0.0,0.0,0.0,0.0,0.0,0.0,0.0,0.0,0.0,0.0,0.0,0.0,0.0,0.0,0.0,0.0,0.0,0.0,0.0,0.0,0.0,0.0,0.0,0.0,0.0,0.0,0.0,0.0,0.0,0.0,0.0,0.0,0.0,0.0,0.0,0.0,0.0,0.0,0.0,0.0,0.0,0.0,0.0,0.0,0.0,0.0,-1.3162,-1.3726,-1.4465,-1.5394,-1.5389,-1.5389,-1.5423,-1.6244,-1.6277,0.0,0.0,0.0,0.0,0.0,0.0,0.0,0.0,0.0,0.0,0.0,0.0,0.0,0.0,0.0,0.0,0.0,0.0,0.0,0.0,0.0,0.0,0.0,0.0,0.0,0.0,0.0,0.0,0.0,0.0,0.0,0.0,0.0,0.0,0.0,0.0,0.0,0.0,0.0,0.0,-1.7478,-1.835,-1.8574,0.0,0.0,0.0,0.0,0.0,0.0,-2.0499,-2.0631,0.0,0.0,0.0,0.0,0.0,0.0,0.0,0.0,0.0,0.0,0.0,0.0,0.0,0.0,0.0,0.0,0.0,0.0,0.0,0.0,0.0,0.0,0.0,0.0,0.0,0.0,0.0,0.0,0.0,0.0,0.0,0.0,0.0,0.0,0.0,0.0,0.0,0.0,0.0,0.0,0.0,0.0,0.0,0.0,0.0,0.0,0.0,0.0,0.0,0.0,0.0,0.0,0.0,0.0,0.0,-1.2499,-1.3675,-1.4611,-1.525,-1.5394,-1.5436,-1.5561,-1.6385,-1.6419,0.0,0.0,0.0,0.0,0.0,0.0,0.0,0.0,0.0,0.0,0.0,0.0,0.0,0.0,0.0,0.0,0.0,0.0,0.0,0.0,0.0,0.0,0.0,0.0,0.0,0.0,0.0,0.0,0.0,0.0,0.0,0.0,0.0,0.0,0.0,0.0,0.0,0.0,0.0,0.0,0.0,-1.8869,-1.8856,-1.9511,0.0,0.0,0.0,0.0,-2.1073,-2.1186,0.0,0.0,0.0,0.0,0.0,0.0,0.0,0.0,0.0,0.0,0.0,0.0,0.0,0.0,0.0,0.0,0.0,0.0,0.0,0.0,0.0,0.0,0.0,0.0,0.0,0.0,0.0,0.0,0.0,0.0,0.0,0.0,0.0,0.0,0.0,0.0,0.0,0.0,0.0,0.0,0.0,0.0,0.0,0.0,0.0,0.0,0.0,0.0,0.0,0.0,0.0,0.0,0.0,0.0,0.0,0.0,-1.2463,-1.3236,-1.4062,-1.4915,-1.5243,-1.5606,-1.6022,-1.6876,-1.69,0.0,0.0,0.0,0.0,0.0,0.0,0.0,0.0,0.0,0.0,0.0,0.0,0.0,0.0,0.0,0.0,0.0,0.0,0.0,0.0,0.0,0.0,0.0,0.0,0.0,0.0,0.0,0.0,0.0,0.0,0.0,0.0,0.0,0.0,0.0,0.0,0.0,0.0,0.0,0.0,0.0,-2.0771,-1.9871,-2.0199,-2.0555,0.0,0.0,-2.1292,-2.1139,-2.1466,0.0,0.0,0.0,0.0,0.0,0.0,0.0,0.0,0.0,0.0,0.0,0.0,0.0,0.0,0.0,0.0,0.0,0.0,0.0,0.0,0.0,0.0,0.0,0.0,0.0,0.0,0.0,0.0,0.0,0.0,0.0,0.0,0.0,0.0,0.0,0.0,0.0,0.0,0.0,0.0,0.0,0.0,0.0,0.0,0.0,0.0,0.0,0.0,0.0,0.0,0.0,0.0,0.0,0.0,0.0,-1.1326,-1.2215,-1.3433,-1.434,-1.4878,-1.5039,-1.5438,-1.6071,-1.6258,-1.6164,0.0,0.0,0.0,0.0,0.0,0.0,0.0,0.0,0.0,0.0,0.0,0.0,0.0,0.0,0.0,0.0,0.0,0.0,0.0,0.0,0.0,0.0,0.0,0.0,0.0,0.0,0.0,0.0,0.0,0.0,0.0,0.0,0.0,0.0,0.0,0.0,0.0,0.0,0.0,0.0,0.0,0.0,-1.9903,-2.038,0.0,0.0,0.0,-2.1415,-2.1811,0.0,0.0,0.0,0.0,0.0,0.0,0.0,0.0,0.0,0.0,0.0,0.0,0.0,0.0,0.0,0.0,0.0,0.0,0.0,0.0,0.0,0.0,0.0,0.0,0.0,0.0,0.0,0.0,0.0,0.0,0.0,0.0,0.0,0.0,0.0,0.0,0.0,0.0,0.0,0.0,0.0,0.0,0.0,0.0,0.0,0.0,0.0,0.0,0.0,0.0,0.0,0.0,0.0,0.0,0.0,0.0,0.0,-1.1933,-1.3521,-1.4465,-1.4652,-1.4739,-1.521,-1.6068,-1.5776,0.0,0.0,0.0,0.0,0.0,0.0,0.0,0.0,0.0,0.0,0.0,0.0,0.0,0.0,0.0,0.0,0.0,0.0,0.0,0.0,0.0,0.0,0.0,0.0,0.0,0.0,0.0,-1.3918,0.0,0.0,0.0,0.0,0.0,0.0,0.0,0.0,0.0,0.0,0.0,0.0,0.0,0.0,-1.9696,-2.0149,-2.0679,-2.1312,0.0,0.0,-2.1662,-2.2232,-2.1849,-2.1228,0.0,0.0,0.0,0.0,0.0,0.0,0.0,0.0,0.0,0.0,0.0,0.0,0.0,0.0,0.0,0.0,0.0,0.0,0.0,0.0,0.0,0.0,0.0,0.0,0.0,0.0,0.0,0.0,0.0,0.0,0.0,0.0,0.0,0.0,0.0,0.0,0.0,0.0,0.0,0.0,0.0,0.0,0.0,0.0,0.0,0.0,0.0,0.0,0.0,0.0,0.0,0.0,0.0,0.0,0.0,-1.1665,-1.3227,-1.4026,-1.4055,-1.434,-1.5065,-1.613,-1.5806,-1.5741,0.0,0.0,0.0,0.0,0.0,0.0,0.0,0.0,0.0,0.0,0.0,0.0,0.0,0.0,0.0,0.0,0.0,0.0,0.0,0.0,0.0,0.0,0.0,0.0,0.0,0.0,0.0,0.0,0.0,0.0,0.0,0.0,0.0,0.0,0.0,0.0,0.0,0.0,0.0,0.0,0.0,-2.1449,-2.1087,-2.1428,-2.1749,0.0,0.0,-2.2273,-2.1911,-2.2159,-2.1952,-2.0591,0.0,0.0,0.0,0.0,0.0,0.0,0.0,0.0,0.0,0.0,0.0,0.0,0.0,0.0,0.0,0.0,0.0,0.0,0.0,0.0,0.0,0.0,0.0,0.0,0.0,0.0,0.0,0.0,0.0,0.0,0.0,0.0,0.0,0.0,0.0,0.0,0.0,0.0,0.0,0.0,0.0,0.0,0.0,0.0,0.0,0.0,0.0,0.0,0.0,0.0,0.0,0.0,0.0,-1.1063,-1.1599,-1.3,-1.3682,-1.3711,-1.4004,-1.4641,-1.5494,-1.5564,-1.5615,0.0,0.0,0.0,0.0,0.0,0.0,0.0,0.0,0.0,0.0,0.0,0.0,0.0,0.0,0.0,0.0,0.0,0.0,0.0,0.0,0.0,0.0,0.0,0.0,0.0,0.0,0.0,0.0,-1.402,-1.402,-1.4045,0.0,0.0,0.0,0.0,0.0,0.0,0.0,0.0,0.0,0.0,-2.099,-2.1056,-2.1507,0.0,0.0,-2.2139,-2.2108,-2.2221,-2.1662,-2.1031,-2.0503,-2.0543,0.0,0.0,0.0,0.0,0.0,0.0,0.0,0.0,0.0,0.0,0.0,0.0,0.0,0.0,0.0,0.0,0.0,0.0,0.0,0.0,0.0,0.0,0.0,0.0,0.0,0.0,0.0,0.0,0.0,0.0,0.0,0.0,0.0,0.0,0.0,0.0,0.0,0.0,0.0,0.0,0.0,0.0,0.0,0.0,0.0,0.0,0.0,0.0,0.0,0.0,0.0,0.0,-1.0887,-1.1445,-1.2599,-1.3199,-1.3206,-1.3627,-1.4215,-1.4917,-1.5245,-1.5405,0.0,0.0,0.0,0.0,0.0,0.0,0.0,0.0,0.0,0.0,0.0,0.0,0.0,0.0,0.0,0.0,0.0,0.0,0.0,0.0,0.0,0.0,0.0,0.0,0.0,0.0,0.0,0.0,-1.4155,-1.4221,-1.448,0.0,0.0,0.0,0.0,0.0,0.0,0.0,0.0,0.0,0.0,-2.0757,-2.1259,-2.16,-2.1921,-2.2242,-2.2014,-2.1921,-2.2242,-2.1653,-2.1108,-2.1007,0.0,0.0,0.0,0.0,0.0,0.0,0.0,0.0,0.0,0.0,0.0,0.0,0.0,0.0,0.0,0.0,0.0,0.0,0.0,0.0,0.0,0.0,0.0,0.0,0.0,0.0,0.0,0.0,0.0,0.0,-1.018,0.0,0.0,0.0,0.0,0.0,0.0,0.0,0.0,0.0,0.0,0.0,0.0,0.0,0.0,0.0,0.0,0.0,0.0,0.0,0.0,0.0,0.0,-1.0792,-1.1129,-1.2065,-1.2514,-1.2548,-1.315,-1.3867,-1.455,-1.4804,-1.5086,-1.5352,0.0,0.0,0.0,0.0,0.0,0.0,0.0,0.0,0.0,0.0,0.0,0.0,0.0,0.0,0.0,0.0,0.0,0.0,0.0,0.0,0.0,0.0,0.0,0.0,0.0,0.0,-1.4324,-1.3886,-1.4024,0.0,0.0,0.0,0.0,0.0,0.0,0.0,0.0,0.0,0.0,-2.0534,-2.1269,-2.1704,-2.1797,-2.1818,-2.1828,-2.1818,-2.1807,-2.1877,-2.2408,-2.2815,0.0,0.0,0.0,0.0,0.0,0.0,0.0,0.0,0.0,0.0,0.0,0.0,0.0,0.0,0.0,0.0,0.0,0.0,0.0,0.0,0.0,0.0,0.0,0.0,0.0,0.0,0.0,-1.0569,-1.0182,0.0,0.0,0.0,0.0,0.0,0.0,0.0,0.0,0.0,0.0,0.0,-1.1857,-1.1927,0.0,0.0,0.0,0.0,0.0,0.0,0.0,0.0,0.0,0.0,0.0,0.0,-1.0887,-1.143,-1.1919,-1.2164,-1.2189,-1.3036,-1.363,-1.3879,-1.4756,-1.5157,-1.5,0.0,0.0,0.0,0.0,0.0,0.0,0.0,0.0,0.0,0.0,0.0,0.0,0.0,0.0,0.0,0.0,0.0,0.0,0.0,0.0,0.0,0.0,0.0,0.0,0.0,-1.4769,0.0,0.0,0.0,0.0,0.0,0.0,0.0,0.0,0.0,0.0,0.0,-2.0027,-2.0182,-2.1,-2.148,-2.1373,-2.1611,-2.1807,0.0,0.0,0.0,0.0,0.0,0.0,0.0,0.0,0.0,0.0,0.0,0.0,0.0,0.0,-2.5917,-2.5815,-2.6141,-2.655,-2.6981,0.0,0.0,0.0,0.0,0.0,0.0,0.0,0.0,0.0,0.0,0.0,0.0,0.0,0.0,-1.0273,0.0,-1.0363,0.0,0.0,0.0,0.0,0.0,0.0,0.0,0.0,-1.206,-1.2089,-1.2161,-1.2161,-1.2124,0.0,-1.2039,-1.175,0.0,0.0,0.0,0.0,0.0,0.0,0.0,0.0,-1.1114,-1.1423,-1.1816,-1.1952,-1.1899,-1.2925,-1.348,-1.3511,-1.4726,-1.5205,-1.4795,-1.4512,-1.416,0.0,0.0,0.0,0.0,0.0,0.0,0.0,0.0,0.0,0.0,0.0,0.0,0.0,0.0,0.0,0.0,0.0,0.0,0.0,0.0,0.0,0.0,0.0,-1.5235,0.0,0.0,0.0,0.0,0.0,0.0,0.0,0.0,0.0,-1.9108,-1.9996,-2.0633,-2.0633,-2.1321,-2.1694,-2.1393,0.0,0.0,0.0,0.0,0.0,0.0,0.0,-2.3518,-2.405,-2.4035,-2.4046,-2.438,-2.5244,-2.6047,-2.6505,0.0,0.0,-2.6481,-2.6748,-2.7173,-2.7593,-2.8127,-2.8647,-2.882,-2.9386,-2.9693,0.0,0.0,0.0,0.0,0.0,0.0,0.0,0.0,-1.0244,-1.0333,0.0,-1.1026,0.0,0.0,0.0,0.0,0.0,-1.1906,0.0,0.0,-1.2298,-1.2305,-1.2305,-1.2298,-1.2298,-1.2305,-1.2291,-1.221,-1.2085,-1.1701,0.0,0.0,0.0,0.0,0.0,0.0,-1.1423,-1.1166,-1.1668,-1.1867,-1.1668,-1.2873,-1.3511,-1.3593,-1.4756,-1.5215,-1.4872,-1.4785,-1.459,-1.4143,-1.3369,0.0,0.0,0.0,0.0,0.0,0.0,0.0,0.0,0.0,0.0,0.0,0.0,0.0,0.0,0.0,0.0,0.0,0.0,0.0,0.0,-1.5452,0.0,0.0,0.0,0.0,0.0,0.0,0.0,0.0,0.0,0.0,-1.9393,-2.0388,-2.1124,-2.1114,0.0,0.0,0.0,0.0,-2.3001,-2.3038,-2.3658,-2.4108,-2.412,-2.4731,-2.5228,-2.5252,0.0,0.0,-2.5686,-2.6084,-2.653,-2.6811,-2.7382,-2.7787,-2.74,-2.7278,-2.7545,-2.8508,-2.91,-2.95,-2.9996,-3.0503,-3.0738,-0.7134,0.0,0.0,0.0,0.0,-0.9828,-1.0021,-0.9554,-0.9976,-0.9814,-0.9452,-1.046,0.0,0.0,0.0,0.0,0.0,0.0,-1.2218,-1.2305,-1.2305,-1.2305,-1.2305,-1.2305,-1.2305,-1.2305,-1.2305,-1.2295,-1.2244,-1.2119,-1.171,-1.1022,0.0,0.0,0.0,0.0,-1.1092,-1.1267,-1.1573,-1.1892,-1.2243,-1.3078,-1.3953,-1.4805,-1.5206,-1.5352,-1.5234,-1.4941,-1.4727,-1.46,-1.4046,0.0,0.0,0.0,0.0,0.0,0.0,0.0,0.0,0.0,0.0,0.0,0.0,0.0,0.0,0.0,0.0,0.0,0.0,0.0,-1.5877,-1.6212,-1.6542,0.0,0.0,0.0,0.0,0.0,0.0,0.0,0.0,0.0,-2.1366,-2.2024,-2.211,0.0,0.0,-2.2536,-2.2202,-2.2635,-2.3176,-2.3706,0.0,0.0,0.0,-2.4812,-2.4907,-2.5419,-2.539,-2.5347,-2.5561,-2.5837,-2.6363,-2.7192,-2.7659,-2.7972,-2.8275,-2.8821,-2.9269,-2.9668,-3.0129,-3.0529,-3.0712,-3.0882,-3.0947,-0.7484,-0.7489,-0.8015,-0.8202,-0.8251,-0.9257,-0.9398,-0.8892,-0.9438,-0.9474,-0.9233,-1.0506,-1.1061,-1.1107,-1.2024,0.0,0.0,0.0,-1.2305,-1.2305,-1.2305,-1.2305,-1.2305,-1.2305,-1.2305,-1.2305,-1.2305,-1.2245,-1.2124,-1.2131,-1.1866,-1.1276,0.0,0.0,-1.0946,-1.1022,-1.1145,-1.131,-1.1558,-1.196,-1.2481,-1.3403,-1.438,-1.5352,-1.542,-1.542,-1.5381,-1.5176,-1.5029,-1.5029,-1.4619,-1.417,0.0,0.0,0.0,0.0,0.0,0.0,0.0,0.0,0.0,0.0,0.0,-1.3779,-1.3441,0.0,0.0,0.0,-1.4779,-1.5738,-1.7057,-1.7359,0.0,0.0,0.0,0.0,0.0,0.0,0.0,-2.0571,-2.1542,-2.2273,-2.2568,-2.3343,-2.3495,-2.2418,-2.2967,-2.3301,-2.3048,0.0,-2.4013,-2.4224,-2.4905,-2.533,-2.5147,-2.4841,-2.4788,-2.5219,-2.5001,-2.4888,-2.5222,-2.5428,-2.5986,-2.7028,-2.7533,-2.7941,-2.8763,-2.9564,-3.0009,-2.9728,-3.0181,-3.0634,-3.0647,-3.083,-3.1024,-0.7777,-0.7746,-0.7591,-0.7375,-0.7238,-0.803,-0.8329,-0.8185,-0.8807,-0.915,-0.9442,-1.0824,-1.1639,-1.1983,-1.2829,0.0,-1.3153,-1.2592,-1.2325,-1.2305,-1.2305,-1.2305,-1.2305,-1.2305,-1.2311,-1.2338,-1.2291,-1.2144,-1.1946,-1.1893,-1.1619,-1.12,-1.1492,-1.1448,-1.1108,-1.13,-1.1403,-1.131,-1.1596,-1.2037,-1.2581,-1.3885,-1.4824,-1.5381,-1.542,-1.542,-1.542,-1.542,-1.542,-1.54,-1.5077,-1.4842,-1.4784,0.0,0.0,0.0,0.0,0.0,0.0,0.0,0.0,0.0,0.0,0.0,0.0,0.0,0.0,0.0,-1.571,0.0,-1.837,-1.8713,0.0,0.0,0.0,-1.9876,-1.9948,-2.0699,-2.1198,-2.124,0.0,0.0,-2.3187,0.0,-2.5099,-2.4315,-2.4194,-2.4192,-2.4192,-2.4779,-2.5131,-2.478,-2.5213,-2.5402,-2.5011,-2.4806,-2.4655,-2.4625,-2.4662,-2.4625,-2.4732,-2.4841,-2.5465,-2.667,-2.7129,-2.7647,-2.8935,-2.9539,-2.9816,-2.9097,-2.965,-3.0205,-3.027,-3.066,-3.1024,-0.7475,-0.7535,-0.7698,-0.7731,-0.7741,-0.8199,-0.8369,-0.8303,-0.8602,-0.8767,-0.8945,-0.9858,-1.1022,-1.227,-1.2902,-1.308,-1.2884,-1.2744,-1.2556,-1.2311,-1.2305,-1.2305,-1.2305,-1.2305,-1.2425,-1.2636,-1.2221,-1.2087,-1.2171,-1.175,-1.1349,-1.1075,-1.1135,-1.1079,-1.0891,-1.0939,-1.1034,-1.1153,-1.1318,-1.2025,-1.3268,-1.4519,-1.5255,-1.541,-1.542,-1.542,-1.542,-1.542,-1.542,-1.541,-1.5312,-1.5117,-1.4823,-1.418,0.0,0.0,0.0,0.0,0.0,0.0,0.0,0.0,0.0,-1.4917,-1.3936,0.0,-1.5682,0.0,-1.6462,-1.775,-1.9117,-1.913,0.0,0.0,-2.042,-2.0545,-2.1238,-2.1738,-2.2168,-2.2524,-2.3857,-2.4767,-2.4731,-2.5594,-2.598,-2.5342,-2.5105,-2.5004,-2.5016,-2.5158,-2.5475,-2.5837,-2.5749,-2.5561,-2.5347,-2.4707,-2.4067,-2.3572,-2.3521,-2.3647,-2.4117,-2.4324,-2.4836,-2.6127,-2.6897,-2.7426,-2.7881,-2.8765,-2.9196,-2.8795,-2.9745,-3.079,-3.079,-3.0895,-3.1024,-0.7373,-0.7394,-0.7621,-0.7725,-0.7702,-0.8149,-0.8285,-0.827,-0.8423,-0.8568,-0.8792,-0.9751,-1.1141,-1.265,-1.2889,-1.3024,-1.3133,-1.2911,-1.2623,-1.2311,-1.2305,-1.2305,-1.2305,-1.2305,-1.2392,-1.2576,-1.2254,-1.2011,-1.1897,-1.1549,-1.1216,-1.0834,-1.0827,-1.0786,-1.0726,-1.0713,-1.0839,-1.1097,-1.1514,-1.2274,-1.3351,-1.443,-1.5108,-1.541,-1.542,-1.542,-1.542,-1.542,-1.542,-1.542,-1.542,-1.5303,-1.5078,-1.4668,-1.4202,0.0,0.0,0.0,0.0,0.0,0.0,0.0,0.0,0.0,0.0,0.0,-1.6387,0.0,-1.7501,-1.8498,-1.9824,-2.0014,-2.041,-2.1186,-2.1123,-2.1397,-2.2237,-2.2503,-2.2831,-2.3427,-2.454,-2.5312,-2.53,-2.5768,-2.6063,-2.5975,-2.5673,-2.5436,-2.546,-2.5632,-2.5904,-2.6033,-2.5833,-2.5498,-2.531,-2.4556,-2.3891,-2.3547,-2.3258,-2.3263,-2.3656,-2.3847,-2.4267,-2.5325,-2.6129,-2.683,-2.7411,-2.8242,-2.8904,-2.9248,-2.9706,-3.0268,-3.0568,-3.0817,-3.1024,-0.7339,-0.7356,-0.7506,-0.7495,-0.7439,-0.7891,-0.8099,-0.8092,-0.8233,-0.8389,-0.8691,-0.9925,-1.1361,-1.285,-1.2764,-1.3029,-1.3573,-1.3066,-1.2683,-1.2365,-1.2318,-1.2305,-1.2305,-1.2305,-1.2318,-1.2358,-1.2278,-1.1984,-1.1455,-1.1369,-1.1096,-1.0606,-1.0586,-1.0593,-1.0624,-1.0593,-1.0751,-1.1059,-1.1934,-1.2665,-1.3213,-1.4124,-1.4883,-1.5381,-1.542,-1.542,-1.542,-1.542,-1.542,-1.542,-1.542,-1.542,-1.54,-1.5019,-1.4639,0.0,-1.4211,0.0,0.0,0.0,0.0,0.0,0.0,0.0,0.0,-1.6395,-1.7032,-1.8418,-1.8641,-1.9196,-2.0423,-2.0933,-2.1282,-2.1502,-2.1683,-2.2101,-2.2879,-2.3065,-2.3412,-2.4156,-2.4969,-2.5453,-2.5499,-2.5627,-2.5912,-2.6223,-2.6013,-2.572,-2.5674,-2.6067,-2.6289,-2.5774,-2.5649,-2.5435,-2.4958,-2.4443,-2.413,-2.4054,-2.3653,-2.3294,-2.3495,-2.3569,-2.3808,-2.4494,-2.52,-2.597,-2.7007,-2.768,-2.8499,-2.9261,-2.9274,-2.9444,-3.0113,-3.0568,-3.0856,-0.7139,-0.7152,-0.7353,-0.7397,-0.7422,-0.748,-0.755,-0.7547,-0.7562,-0.7751,-0.8124,-0.9257,-1.046,-1.1646,-1.2381,-1.3029,-1.3586,-1.328,-1.2998,-1.269,-1.2412,-1.2305,-1.2305,-1.2305,-1.2425,-1.2656,-1.2214,-1.1933,-1.1806,-1.1309,-1.0935,-1.0593,-1.0586,-1.0649,-1.0744,0.0,0.0,0.0,-1.2274,-1.31,-1.3221,-1.4519,-1.5303,-1.541,-1.542,0.0,-1.542,-1.542,-1.542,-1.542,-1.542,0.0,0.0,0.0,0.0,0.0,0.0,0.0,0.0,0.0,0.0,0.0,-1.6741,-1.6341,-1.6326,-1.6855,-1.7652,-1.8706,-1.9013,-1.9568,-2.0474,-2.0943,-2.1359,-2.1693,-2.1807,-2.2138,-2.2916,-2.3522,-2.4204,-2.4969,-2.5769,-2.628,-2.6208,-2.6317,-2.6185,-2.5887,-2.6097,-2.6109,-2.5661,-2.6147,-2.6436,-2.6311,-2.5946,-2.5435,-2.4895,-2.4757,-2.4669,-2.4607,-2.4205,-2.3928,-2.3988,-2.3725,-2.3578,-2.4068,-2.4516,-2.5049,-2.5471,-2.6313,-2.7151,-2.7334,-2.7994,-2.9013,-3.0477,-3.0529,-3.0257,-0.7095,0.0,-0.7224,-0.7258,0.0,-0.7255,-0.7258,-0.7258,-0.7258,-0.7485,-0.794,-0.8588,-0.9545,-1.0636,-1.1585,-1.2343,-1.2972,-1.3244,-1.3173,-1.279,-1.279,-1.2592,-1.2311,-1.2452,-1.2556,-1.2549,-1.2225,-1.1931,-1.1643,-1.1349,-1.0989,-1.0593,-1.0586,-1.0656,-1.0688,-1.0624,-1.0624,-1.0681,-1.1888,-1.2673,-1.3039,-1.4103,-1.4893,-1.5284,0.0,0.0,0.0,0.0,0.0,0.0,0.0,0.0,0.0,0.0,0.0,-1.6055,-1.6064,-1.629,-1.6711,-1.6936,-1.7217,-1.7646,-1.748,-1.721,-1.6874,-1.7347,-1.7993,-1.867,-1.898,-1.9446,-2.0312,-2.078,-2.1181,-2.1614,-2.2073,-2.2692,-2.3427,-2.3985,-2.4624,-2.5318,-2.5822,-2.6072,-2.6072,-2.6059,-2.6063,-2.6025,-2.6047,-2.605,-2.6084,-2.6298,-2.6487,-2.6487,-2.6285,-2.5971,-2.5674,-2.536,-2.5197,-2.5134,-2.4841,-2.4621,-2.474,-2.4591,-2.4489,-2.4498,-2.4688,-2.4888,-2.5014,-2.5698,-2.6347,-2.6706,-2.7366,-2.8268,-2.947,-2.9693,-2.9719,-0.7095,-0.7095,-0.7095,-0.7095,-0.7095,-0.7095,-0.7095,-0.7095,0.0,0.0,0.0,-0.8072,-0.8811,-0.9946,-1.0722,-1.1566,-1.2379,-1.3086,-1.3187,-1.2884,-1.3079,-1.2832,-1.2331,-1.2589,-1.2545,-1.2311,-1.2305,-1.1997,-1.1443,-1.143,-1.1136,-1.064,-1.0586,-1.0586,-1.0586,-1.0586,-1.0586,-1.0618,-1.1397,-1.2066,-1.2604,-1.3502,-1.4339,-1.497,-1.5117,-1.5254,-1.5352,-1.5381,-1.542,-1.542,-1.583,-1.6125,-1.6105,-1.6484,-1.6736,-1.6833,-1.7187,-1.7412,-1.75,-1.7812,-1.8008,-1.8008,-1.8008,-1.7871,-1.7519,-1.7812,-1.812,-1.8461,-1.8724,-1.9201,-1.9942,-2.0434,-2.0849,-2.1264,-2.2147,-2.301,-2.3714,-2.4154,-2.4614,-2.5428,-2.5624,-2.5636,-2.5774,-2.5845,-2.5946,-2.6311,-2.6135,-2.5933,-2.6361,-2.6474,-2.6436,-2.6311,-2.6197,-2.6248,-2.6122,-2.5724,-2.5511,-2.5511,-2.5252,-2.5135,-2.5378,-2.5511,-2.5423,-2.5166,-2.5149,-2.5227,-2.5306,-2.5628,-2.6007,-2.6588,-2.704,-2.751,-2.7994,-2.8556,-2.8974,-0.7095,-0.7095,-0.7095,-0.7095,-0.7095,-0.7095,-0.7095,-0.7095,-0.7095,-0.7408,-0.79,-0.794,-0.8684,-0.9898,-1.0033,-1.1047,-1.259,-1.254,-1.2725,0.0,-1.2958,-1.267,-1.2311,-1.2345,-1.2345,-1.2305,-1.2305,-1.1997,-1.1483,-1.143,-1.1129,-1.066,-1.0586,-1.0586,-1.0586,-1.0586,-1.0586,-1.0624,-1.1382,-1.1834,-1.1958,-1.3295,-1.4064,-1.4192,-1.4843,-1.5205,-1.5244,-1.5332,-1.542,-1.543,-1.582,-1.6125,-1.6145,-1.6494,-1.6863,-1.7256,-1.7353,-1.7539,-1.7891,-1.7978,-1.8008,-1.8008,-1.8008,-1.7978,-1.793,-1.7969,-1.8027,-1.8105,-1.8582,-1.9023,-1.9334,-1.9915,-2.0386,-2.0627,-2.1282,-2.2026,-2.2846,-2.3457,-2.4268,-2.5398,-2.5586,-2.5787,-2.6185,-2.6311,-2.6348,-2.6449,-2.6298,-2.6348,-2.6348,-2.6487,-2.6273,-2.585,-2.5711,-2.5523,-2.5259,-2.5034,-2.5121,-2.5536,-2.5179,-2.5107,-2.5722,-2.5595,-2.5414,-2.5605,-2.5545,-2.5759,-2.6138,-2.6059,-2.6073,-2.6478,-2.6758,-2.6981,-2.7112,-2.7497,-2.7968,-0.6343,-0.6384,-0.6871,-0.7095,-0.7095,-0.7095,-0.7095,-0.7095,-0.7095,-0.7323,-0.768,-0.7808,-0.8288,-0.903,-0.9641,-1.0636,-1.196,-1.2182,-1.2628,-1.3174,-1.3066,-1.279,-1.2345,-1.2509,-1.2458,-1.2311,-1.2305,-1.2084,-1.1683,-1.1469,-1.1209,-1.0808,-1.0673,-1.0586,-1.0586,-1.0586,-1.0586,-1.0624,-1.1296,-1.1624,-1.1663,-1.3,-1.3765,-1.3863,-1.4529,-1.502,-1.5176,-1.5264,-1.5342,-1.542,-1.583,-1.6202,-1.6416,-1.6836,-1.7275,-1.7695,-1.7725,-1.7812,-1.7988,-1.8188,-1.8325,-1.8325,-1.8574,-1.8603,-1.8334,-1.81,-1.8008,-1.8042,-1.8686,-1.9288,-1.9696,-2.0443,-2.1081,-2.1494,-2.2172,-2.2752,-2.3156,-2.3812,-2.4505,-2.5081,-2.5423,-2.5699,-2.5984,-2.6298,-2.6487,-2.6474,-2.626,-2.5946,-2.5636,-2.5573,-2.5598,-2.5561,-2.536,-2.5109,-2.4845,-2.48,-2.4901,-2.5146,-2.5081,-2.5114,-2.5537,-2.5371,-2.5299,-2.5221,-2.5218,-2.5209,-2.5388,-2.5628,-2.5785,-2.5746,-2.6608,-2.6922,-2.6889,-2.7131,-2.7555,-0.5494,-0.5766,-0.6473,-0.6918,-0.7095,-0.7095,-0.7095,-0.7095,-0.7095,-0.7231,-0.7415,-0.768,-0.794,-0.8288,-0.9117,-1.0072,-1.0945,-1.15,-1.2039,-1.2571,-1.2739,-1.2543,-1.2142,-1.247,-1.2569,-1.2325,-1.2305,-1.2158,-1.1899,-1.157,-1.1249,-1.0941,-1.07,-1.0586,-1.0586,-1.0586,-1.0586,-1.0624,-1.1059,-1.1303,-1.1327,-1.2436,-1.3169,-1.3442,-1.4103,-1.4686,-1.5117,-1.5186,-1.5264,-1.54,-1.586,-1.6251,-1.6582,-1.71,-1.7529,-1.7832,-1.7949,-1.8047,-1.8164,-1.8412,-1.8646,-1.8754,-1.9092,-1.9102,-1.8646,-1.8305,-1.8105,-1.8095,-1.864,-1.9233,-1.9716,-2.0429,-2.1219,-2.1891,-2.2605,-2.3024,-2.3451,-2.4156,-2.4725,-2.4958,-2.536,-2.5636,-2.5824,-2.621,-2.6411,-2.6235,-2.5774,-2.5259,-2.4876,-2.47,-2.482,-2.5021,-2.4883,-2.4556,-2.4494,-2.4374,-2.4424,-2.455,-2.4715,-2.4893,-2.5046,-2.5192,-2.5179,-2.4975,-2.4877,-2.4887,-2.4606,-2.4992,-2.5397,-2.5432,-2.6229,-2.6974,-2.6987,-2.7223,-2.749,-0.4914,-0.563,-0.5808,-0.6343,-0.7095,-0.7095,-0.7095,-0.7095,-0.7095,-0.7095,-0.7187,-0.7415,-0.7768,-0.8153,-0.8328,-0.9026,-1.0014,-0.9979,-1.03,-1.0922,-1.1414,-1.1497,-1.1353,-1.1998,-1.2331,-1.2305,-1.2305,-1.2194,-1.1926,-1.1577,-1.1149,-1.0693,-1.06,-1.0586,-1.0586,-1.0586,-1.0586,-1.0586,-1.0656,-1.0688,-1.0713,-1.1327,-1.1996,-1.2604,-1.3403,-1.4172,-1.497,-1.5127,-1.5264,-1.542,-1.585,-1.6105,-1.6242,-1.6924,-1.7435,-1.748,-1.7812,-1.8174,-1.849,-1.8578,-1.8783,-1.918,-1.9248,-1.9111,-1.8676,-1.8568,-1.8373,-1.8149,-1.8236,-1.8569,-1.8657,-1.9057,-1.9766,-2.0729,-2.1227,-2.1766,-2.2987,-2.3665,-2.4431,-2.5435,-2.5573,-2.5787,-2.626,-2.6399,-2.6223,-2.5682,-2.5197,-2.482,-2.4644,-2.4318,-2.4079,-2.4155,-2.4079,-2.3835,-2.3509,-2.3271,-2.3572,-2.3979,-2.4067,-2.4312,-2.4691,-2.4931,-2.5071,-2.4776,-2.5044,-2.499,-2.5094,-2.5247,-2.5044,-2.544,-2.5903,-2.6263,-2.7072,-2.7419,-2.7411,-0.3714,-0.416,-0.523,-0.6251,-0.7051,-0.7095,-0.7095,-0.7095,-0.7095,-0.7095,-0.7095,-0.7231,-0.7455,-0.7808,-0.8069,-0.8763,-0.9696,-0.9513,-0.985,-1.0533,-1.0567,-1.0755,-1.1117,-1.1409,-1.1818,-1.2268,-1.2305,-1.2245,-1.2064,-1.1657,-1.1129,-1.0646,-1.0586,-1.0586,-1.0586,-1.0586,-1.0586,-1.0586,-1.0586,-1.0586,-1.0649,-1.1178,-1.1818,-1.2481,-1.3199,-1.4031,-1.4882,-1.5068,-1.5167,-1.5391,-1.5586,-1.5831,-1.6085,-1.666,-1.7236,-1.7725,-1.8398,-1.8721,-1.8617,-1.8841,-1.9102,-1.9277,-1.9277,-1.9199,-1.9033,-1.8754,-1.8422,-1.812,-1.8428,-1.8921,-1.9441,-1.9726,-2.0376,-2.1517,-2.2056,-2.2575,-2.3459,-2.4409,-2.5146,-2.5573,-2.59,-2.6197,-2.6373,-2.6197,-2.5598,-2.487,-2.4443,-2.4211,-2.3873,-2.3584,-2.3484,-2.3459,-2.3459,-2.3371,-2.3145,-2.3095,-2.3233,-2.3384,-2.3459,-2.3671,-2.3858,-2.3939,-2.3958,-2.4193,-2.4244,-2.4367,-2.4443,-2.4758,-2.4858,-2.5305,-2.568,-2.5976,-2.6432,-2.6791,-2.687,-0.2689,-0.3179,-0.4919,-0.6251,-0.7095,-0.7095,-0.7095,-0.7095,-0.7095,-0.7095,-0.7095,-0.7095,-0.7187,-0.7459,-0.7808,-0.8412,-0.9057,-0.8882,-0.915,-0.9751,-0.9614,-0.9976,-1.0732,-1.1037,-1.1521,-1.2187,-1.2305,-1.2258,-1.2138,-1.1648,-1.1169,-1.0767,-1.0633,-1.0586,-1.0586,-1.0586,-1.0586,-1.0586,-1.0586,-1.0586,-1.0649,-1.1021,-1.1569,-1.2212,-1.2673,-1.3472,-1.4586,-1.4695,-1.4931,-1.5332,-1.5381,-1.5557,-1.5899,-1.6299,-1.6934,-1.7773,-1.8525,-1.8916,-1.8809,-1.9111,-1.9336,-1.9443,-1.9463,-1.9355,-1.9111,-1.8783,-1.8432,-1.811,-1.8428,-1.8977,-1.9617,-1.9965,-2.0824,-2.2253,-2.2663,-2.3171,-2.4226,-2.5086,-2.5569,-2.5837,-2.5991,-2.6129,-2.5963,-2.5485,-2.4833,-2.4217,-2.3879,-2.3622,-2.3221,-2.3133,-2.312,-2.3095,-2.3108,-2.3108,-2.3095,-2.3095,-2.3095,-2.3095,-2.3145,-2.3158,-2.3095,-2.3108,-2.312,-2.3616,-2.3389,-2.3441,-2.3829,-2.418,-2.4516,-2.4905,-2.5336,-2.5715,-2.5923,-2.6229,-2.6229,-0.2017,-0.3135,-0.4917,-0.6207,-0.7051,-0.7095,-0.7095,-0.7095,-0.7095,-0.7095,-0.7095,-0.7095,-0.7095,-0.7143,-0.7411,-0.768,-0.7983,-0.7896,-0.7904,-0.8065,-0.8512,-0.9193,-0.997,-1.0732,-1.1484,-1.2157,-1.2194,-1.2135,-1.1897,-1.1583,-1.1276,-1.0969,-1.0727,-1.0586,-1.0586,-1.0586,-1.0586,-1.0586,-1.0586,-1.0586,-1.0586,-1.0656,-1.0965,-1.1483,-1.1608,-1.2374,-1.3593,-1.3953,-1.4392,-1.5147,-1.5303,-1.54,-1.5459,-1.5898,-1.6604,-1.7402,-1.7891,-1.8467,-1.9111,-1.9258,-1.9434,-1.9766,-1.9699,-1.9475,-1.8773,-1.8598,-1.8373,-1.8047,-1.8076,-1.8236,-1.8492,-1.8893,-1.9776,-2.1329,-2.2003,-2.3103,-2.489,-2.4927,-2.566,-2.599,-2.5629,-2.5265,-2.4918,-2.4418,-2.418,-2.3891,-2.3484,-2.3158,-2.3145,-2.3095,-2.3095,-2.3095,-2.3095,-2.3095,-2.3095,-2.3095,-2.3095,-2.3095,-2.3095,-2.3095,-2.3095,-2.3108,-2.3108,-2.3138,-2.3168,-2.3228,-2.3373,-2.3607,-2.3974,-2.4421,-2.5062,-2.5436,-2.5331,-2.5675,-2.5675,-0.1973,-0.3001,-0.4247,-0.5359,-0.6251,-0.683,-0.7095,-0.7095,-0.7095,-0.7095,-0.7095,-0.7095,-0.7095,-0.7095,-0.7187,-0.7367,-0.7658,-0.7617,-0.767,-0.7716,-0.7808,-0.8332,-0.9122,-0.9453,-1.0282,-1.1366,-1.1558,-1.1676,-1.1864,-1.1577,-1.1276,-1.0989,-1.0734,-1.0586,-1.0586,-1.0586,-1.0586,-1.0586,-1.0586,-1.0586,-1.0586,-1.0586,-1.0713,-1.0933,-1.1303,-1.2004,-1.3108,-1.3554,-1.4013,-1.444,-1.4951,-1.5264,-1.538,-1.6346,-1.7295,-1.8096,-1.8584,-1.8965,-1.9228,-1.9277,-1.9346,-1.9463,-1.9212,-1.8978,-1.8627,-1.8364,-1.8164,-1.8037,-1.8008,-1.8042,-1.8139,-1.835,-1.9247,-2.0795,-2.1347,-2.2053,-2.3248,-2.3711,-2.3909,-2.4235,-2.428,-2.4316,-2.4183,-2.4117,-2.3853,-2.3502,-2.3221,-2.309,-2.3095,-2.3095,-2.3078,-2.3095,-2.3095,-2.3095,-2.3095,-2.3095,-2.3095,-2.3095,-2.3095,-2.3095,-2.3095,-2.3095,-2.3108,-2.3108,-2.3095,-2.3168,-2.333,-2.3505,-2.3773,-2.3897,-2.4546,-2.4784,-2.4589,-2.5018,-2.5023,-0.1972,-0.2911,-0.358,-0.4559,-0.5719,-0.6387,-0.6827,-0.7095,-0.7095,-0.7095,-0.7095,-0.7095,-0.7095,-0.7095,-0.7095,-0.7187,-0.7349,-0.7462,-0.7471,-0.748,-0.7358,-0.7772,-0.8493,-0.8585,-0.9334,-1.0539,-1.0694,-1.1046,-1.1522,-1.1323,-1.1183,-1.1129,-1.0842,-1.0687,-1.0613,-1.0586,-1.0586,-1.0586,-1.0586,-1.0586,-1.0586,-1.0586,-1.0586,-1.0656,-1.0989,-1.1577,-1.2366,-1.3047,-1.3653,-1.4113,-1.4881,-1.5395,-1.5615,-1.6657,-1.7527,-1.808,-1.8715,-1.915,-1.9268,-1.9277,-1.9277,-1.9268,-1.8861,-1.8568,-1.8412,-1.813,-1.8027,-1.8008,-1.8018,-1.8037,-1.8144,-1.8208,-1.888,-2.0313,-2.0807,-2.1344,-2.233,-2.2586,-2.2577,-2.2593,-2.2852,-2.3036,-2.2989,-2.3018,-2.2823,-2.2482,-2.2476,-2.2506,-2.272,-2.2781,-2.2914,-2.3047,-2.3095,-2.3095,-2.302,-2.292,-2.294,-2.2952,-2.2957,-2.2995,-2.3083,-2.3083,-2.3083,-2.3095,-2.3138,-2.3168,-2.3258,-2.345,-2.3509,-2.3526,-2.3859,-2.4244,-2.4265,-2.4376,-2.4475,-0.1973,-0.2777,-0.2911,-0.3937,-0.5361,-0.5628,-0.6207,-0.6918,-0.701,-0.7007,-0.7095,-0.7095,-0.7095,-0.7095,-0.7095,-0.7095,-0.716,-0.7206,-0.7176,-0.706,-0.7082,-0.7501,-0.8275,-0.8271,-0.8841,-0.9895,-0.9933,-1.0346,-1.102,-1.0803,-1.0833,-1.1176,-1.0969,-1.0731,-1.0575,-1.0569,-1.0613,-1.0593,-1.0586,-1.0586,-1.0586,-1.0586,-1.0606,-1.062,-1.069,-1.0989,-1.1565,-1.2352,-1.3207,-1.411,-1.5043,-1.5763,-1.6163,-1.6772,-1.7119,-1.7374,-1.8119,-1.8783,-1.9189,-1.9258,-1.9277,-1.917,-1.8831,-1.8442,-1.8154,-1.8037,-1.8008,-1.8008,-1.8066,-1.8139,-1.8383,-1.8271,-1.8542,-1.9607,-2.0271,-2.0892,-2.1594,-2.1919,-2.1753,-2.1285,-2.1463,-2.1412,-2.1101,-2.1319,-2.1478,-2.1411,-2.1356,-2.1534,-2.199,-2.2113,-2.2372,-2.275,-2.2738,-2.2573,-2.2613,-2.2677,-2.2752,-2.2772,-2.2765,-2.2807,-2.297,-2.3032,-2.3007,-2.3007,-2.3095,-2.3138,-2.3168,-2.33,-2.336,-2.342,-2.3671,-2.3832,-2.3968,-2.4062,-2.4171,-0.1614,-0.1972,-0.2598,-0.3224,-0.3848,-0.4469,-0.5272,-0.6077,-0.6118,-0.6476,-0.7007,-0.7095,-0.7095,-0.7095,-0.7095,-0.7095,-0.7085,-0.7033,-0.701,-0.6995,-0.701,-0.7158,-0.7362,-0.7514,-0.8127,-0.9036,-0.9669,-1.0013,-1.0194,-1.003,-0.9971,-1.0083,-1.0355,-1.0303,-1.0136,-1.0594,-1.0807,-1.0613,-1.0586,-1.0586,-1.0586,-1.0586,-1.068,-1.0868,-1.0894,-1.104,-1.1422,-1.1959,-1.2482,-1.3049,-1.4315,-1.5509,-1.6417,-1.6802,-1.7059,-1.7499,-1.8112,-1.854,-1.8812,-1.9111,-1.9141,-1.887,-1.8666,-1.8403,-1.8086,-1.8008,-1.8008,-1.8047,-1.8252,-1.8393,-1.8227,-1.8344,-1.8714,-1.9372,-1.9363,-1.954,-2.0078,-2.004,-1.9909,-1.9915,-2.0183,-2.0455,-2.0732,-2.0921,-2.0933,-2.0965,-2.0996,-2.1155,-2.1345,-2.1404,-2.1439,-2.169,-2.1698,-2.1701,-2.1542,-2.1426,-2.1408,-2.1692,-2.1964,-2.2485,-2.2727,-2.2857,-2.2844,-2.2945,-2.3032,-2.3032,-2.3088,-2.3105,-2.3127,-2.322,-2.3382,-2.3514,-2.3658,-2.3819,-2.3966,-0.1391,-0.148,-0.2062,-0.2598,-0.2911,-0.3578,-0.4336,-0.5095,-0.5184,-0.5716,-0.6476,-0.6564,-0.6782,-0.7051,-0.7095,-0.7095,-0.7082,-0.695,-0.6887,-0.6864,-0.6828,-0.6795,-0.681,-0.6984,-0.7446,-0.8093,-0.8656,-0.9107,-0.9437,-0.9309,-0.9306,-0.9529,-0.9787,-0.9927,-0.9831,-1.0282,-1.0523,-1.0569,-1.0586,-1.0586,-1.0586,-1.0586,-1.0734,-1.0949,-1.0995,-1.1196,-1.1558,-1.1749,-1.2057,-1.2738,-1.4006,-1.5265,-1.6326,-1.6557,-1.6896,-1.7598,-1.8145,-1.8511,-1.8637,-1.8887,-1.8955,-1.8637,-1.8461,-1.8276,-1.8057,-1.8008,-1.8008,-1.8057,-1.8232,-1.8315,-1.8266,-1.8256,-1.8603,-1.8984,-1.8688,-1.8545,-1.8756,-1.8679,-1.8675,-1.8869,-1.9075,-1.9464,-1.9857,-2.0042,-2.0226,-2.0291,-2.0291,-2.0484,-2.0536,-2.0561,-2.0611,-2.0643,-2.0734,-2.0605,-2.0275,-2.0138,-2.0041,-2.0451,-2.092,-2.1749,-2.241,-2.2506,-2.2518,-2.2794,-2.2932,-2.2694,-2.2669,-2.2694,-2.2753,-2.2921,-2.3056,-2.3352,-2.3569,-2.3789,-2.3907,-0.1391,-0.1391,-0.1436,-0.1972,-0.2688,-0.2822,-0.3355,-0.4156,-0.4245,-0.4734,-0.5494,-0.5628,-0.6115,-0.683,-0.6874,-0.6908,-0.7055,-0.6916,-0.681,-0.6702,-0.6573,-0.6534,-0.6655,-0.6791,-0.7061,-0.7257,-0.7373,-0.7829,-0.8546,-0.8599,-0.8895,-0.916,-0.929,-0.9515,-0.9654,-0.9762,-1.0163,-1.0569,-1.0586,-1.0586,-1.0586,-1.0586,-1.0727,-1.0975,-1.1009,-1.1229,-1.1665,-1.1585,-1.1937,-1.295,-1.3944,-1.4833,-1.5623,-1.6062,-1.6463,-1.7125,-1.8015,-1.8299,-1.8463,-1.8582,-1.8617,-1.849,-1.8252,-1.8008,-1.8008,-1.8008,-1.8008,-1.8018,-1.8071,-1.8198,-1.8373,-1.8305,-1.832,-1.8451,-1.8301,-1.8125,-1.8037,-1.8057,-1.8149,-1.812,-1.8202,-1.8395,-1.8697,-1.8731,-1.8911,-1.9015,-1.9092,-1.9453,-1.9533,-1.9625,-1.9689,-1.9708,-1.9643,-1.9388,-1.904,-1.8863,-1.878,-1.9028,-1.9578,-2.0428,-2.1489,-2.1716,-2.1873,-2.2201,-2.248,-2.2268,-2.2243,-2.223,-2.223,-2.23,-2.261,-2.3145,-2.3289,-2.3286,-2.348,-0.1256,-0.1391,-0.1391,-0.1524,-0.1793,-0.1792,-0.2373,-0.3223,-0.3266,-0.379,-0.4508,-0.4645,-0.5169,-0.6027,-0.6065,-0.638,-0.6708,-0.6785,-0.6678,-0.6529,-0.6426,-0.6461,-0.657,-0.6641,-0.6791,-0.6945,-0.7103,-0.7338,-0.7599,-0.7787,-0.7841,-0.7853,-0.8451,-0.8822,-0.9062,-0.9622,-1.0177,-1.0538,-1.0586,-1.0586,-1.0586,-1.0586,-1.0734,-1.0962,-1.0995,-1.1169,-1.1503,-1.1476,-1.1902,-1.2895,-1.3502,-1.4135,-1.4816,-1.5029,-1.5313,-1.5805,-1.675,-1.7321,-1.7357,-1.7983,-1.8372,-1.8178,-1.7993,-1.8008,-1.8008,-1.8008,-1.8008,-1.8066,-1.8227,-1.8325,-1.8271,-1.8295,-1.8369,-1.8184,-1.8076,-1.8008,-1.8008,-1.8008,-1.8008,-1.8042,-1.8168,-1.8269,-1.8331,-1.8489,-1.8555,-1.8484,-1.8613,-1.8773,-1.8701,-1.868,-1.874,-1.8373,-1.8193,-1.799,-1.7788,-1.7618,-1.756,-1.7693,-1.8149,-1.872,-1.9749,-2.051,-2.0725,-2.0996,-2.1288,-2.124,-2.1496,-2.1678,-2.1666,-2.1496,-2.1838,-2.2142,-2.2179,-2.2209,-2.26,-0.0756,-0.1256,-0.1256,-0.1346,-0.1389,-0.1422,-0.1725,-0.2163,-0.2234,-0.2792,-0.3528,-0.3656,-0.4179,-0.5007,-0.5091,-0.5319,-0.5755,-0.5968,-0.6031,-0.6027,-0.6175,-0.6345,-0.6451,-0.649,-0.6602,-0.6749,-0.6872,-0.7069,-0.7219,-0.733,-0.7315,-0.7327,-0.766,-0.8067,-0.8375,-0.908,-0.9691,-1.0091,-1.039,-1.0586,-1.0586,-1.0586,-1.0754,-1.0935,-1.0995,-1.1089,-1.1236,-1.1322,-1.1764,-1.2417,-1.2778,-1.3208,-1.4055,-1.4207,-1.443,-1.4875,-1.5781,-1.6165,-1.6175,-1.6801,-1.7197,-1.7342,-1.7423,-1.7647,-1.7896,-1.8008,-1.8008,-1.8037,-1.8252,-1.8223,-1.8081,-1.8198,-1.8208,-1.8076,-1.8008,-1.8008,-1.8008,-1.8008,-1.8008,-1.8042,-1.81,-1.8113,-1.8041,-1.8145,-1.8079,-1.7968,-1.8012,-1.7995,-1.7884,-1.7854,-1.775,-1.7523,-1.7275,-1.7174,-1.7128,-1.7003,-1.6961,-1.7016,-1.7164,-1.7641,-1.8663,-1.9582,-2.004,-2.0316,-2.0281,-2.0298,-2.0494,-2.0618,-2.0466,-2.0487,-2.0834,-2.1238,-2.138,-2.1422,-2.1797,0.0044,-0.0936,-0.0938,-0.1072,-0.1331,-0.1354,-0.1386,-0.1423,-0.1448,-0.1857,-0.2529,-0.2649,-0.321,-0.4026,-0.4059,-0.4112,-0.4301,-0.4882,-0.5028,-0.5249,-0.565,-0.606,-0.606,-0.6296,-0.6412,-0.6556,-0.6553,-0.6796,-0.7,-0.7118,-0.713,-0.7118,-0.7163,-0.7365,-0.7811,-0.8389,-0.8893,-0.9438,-1.0072,-1.0326,-1.0396,-1.0498,-1.0707,-1.0842,-1.0895,-1.0909,-1.0995,-1.1162,-1.1457,-1.1785,-1.1839,-1.2386,-1.323,-1.3433,-1.3795,-1.4394,-1.4776,-1.5062,-1.5128,-1.5401,-1.5824,-1.6541,-1.6749,-1.7035,-1.7759,-1.793,-1.793,-1.8008,-1.8008,-1.8047,-1.8027,-1.8037,-1.8047,-1.8008,-1.8008,-1.8008,-1.8008,-1.8008,-1.8008,-1.8008,-1.8008,-1.786,-1.7642,-1.7488,-1.7402,-1.7303,-1.7376,-1.7409,-1.7298,-1.7236,-1.7122,-1.6936,-1.6698,-1.6506,-1.6464,-1.6454,-1.6503,-1.6545,-1.6602,-1.7063,-1.8216,-1.9084,-1.9636,-1.9802,-1.9219,-1.9023,-1.9135,-1.919,-1.9269,-1.9622,-2.0077,-2.0622,-2.1029,-2.0957,-2.1129,0.1249,0.0171,0.0261,-0.0217,-0.0982,-0.1062,-0.1187,-0.1313,-0.1307,-0.1426,-0.164,-0.164,-0.2223,-0.3098,-0.3132,-0.3409,-0.3844,-0.4131,-0.4217,-0.4215,-0.4906,-0.524,-0.5434,-0.5906,-0.6296,-0.6349,-0.6356,-0.6494,-0.6701,-0.6795,-0.6805,-0.6807,-0.6846,-0.7044,-0.7484,-0.7716,-0.8103,-0.8716,-0.939,-0.9716,-0.9843,-1.0231,-1.0531,-1.0643,-1.0675,-1.0693,-1.0693,-1.0747,-1.0921,-1.1156,-1.1396,-1.1763,-1.2231,-1.2378,-1.2619,-1.3048,-1.3673,-1.4027,-1.4207,-1.5092,-1.6053,-1.6149,-1.662,-1.7451,-1.7681,-1.7706,-1.7818,-1.794,-1.8008,-1.8008,-1.8008,-1.8008,-1.8008,-1.8008,-1.8008,-1.8008,-1.8008,-1.8008,-1.8008,-1.8008,-1.7978,-1.7875,-1.7497,-1.7438,-1.7197,-1.6807,-1.6748,-1.688,-1.6789,-1.6676,-1.6583,-1.647,-1.6444,-1.6306,-1.6335,-1.6363,-1.6402,-1.6402,-1.6402,-1.6459,-1.7638,-1.8014,-1.8334,-1.8205,-1.7796,-1.779,-1.8109,-1.8318,-1.8501,-1.8924,-1.9338,-1.9871,-2.0263,-2.0298,-2.0506,0.2309,0.1303,0.1318,0.0722,-0.021,-0.025,-0.058,-0.1075,-0.1146,-0.1183,-0.1305,-0.1306,-0.1589,-0.2076,-0.2116,-0.238,-0.2763,-0.3152,-0.3488,-0.38,-0.4261,-0.4419,-0.4613,-0.5276,-0.5825,-0.6157,-0.618,-0.6295,-0.6397,-0.6418,-0.6427,-0.6494,-0.6512,-0.6641,-0.6964,-0.726,-0.7694,-0.8069,-0.8678,-0.9037,-0.9134,-0.9396,-0.9849,-1.0136,-1.0396,-1.0586,-1.06,-1.06,-1.076,-1.0955,-1.1029,-1.1303,-1.1799,-1.1906,-1.2053,-1.2348,-1.2659,-1.3025,-1.3382,-1.3846,-1.4522,-1.5092,-1.5525,-1.5983,-1.6507,-1.6879,-1.7207,-1.7423,-1.7716,-1.8008,-1.8008,-1.8008,-1.8008,-1.8008,-1.8008,-1.8008,-1.8008,-1.8008,-1.8008,-1.7959,-1.7822,-1.75,-1.7301,-1.714,-1.675,-1.6208,-1.6138,-1.6257,-1.6346,-1.6233,-1.6203,-1.617,-1.6224,-1.6249,-1.6278,-1.6306,-1.6374,-1.6402,-1.6402,-1.6431,-1.6903,-1.691,-1.6775,-1.6892,-1.719,-1.7078,-1.7322,-1.7529,-1.7913,-1.8402,-1.8842,-1.9223,-1.9602,-1.9985,-2.0126,0.3353,0.2367,0.2374,0.175,0.0829,0.0651,0.0121,-0.0645,-0.0832,-0.0988,-0.1219,-0.1258,-0.1305,-0.1339,-0.138,-0.1338,-0.1533,-0.1964,-0.2666,-0.3093,-0.3443,-0.3561,-0.3793,-0.4419,-0.5098,-0.5861,-0.5972,-0.605,-0.6153,-0.6133,-0.6082,-0.6177,-0.6264,-0.6311,-0.6399,-0.6802,-0.7162,-0.7293,-0.7902,-0.8258,-0.8361,-0.8522,-0.8973,-0.9588,-1.0269,-1.0555,-1.0586,-1.0606,-1.07,-1.0921,-1.0727,-1.1069,-1.1591,-1.1859,-1.1977,-1.2258,-1.2378,-1.2452,-1.2556,-1.2703,-1.3135,-1.3637,-1.3926,-1.435,-1.5234,-1.586,-1.6219,-1.6645,-1.7035,-1.7681,-1.7828,-1.794,-1.7974,-1.8008,-1.8008,-1.8008,-1.7998,-1.7978,-1.7871,-1.7832,-1.7617,-1.7305,-1.6838,-1.6498,-1.6068,-1.5733,-1.5693,-1.5701,-1.5788,-1.5885,-1.5876,-1.5944,-1.6029,-1.6077,-1.6105,-1.6134,-1.623,-1.6306,-1.6306,-1.6363,-1.642,-1.6477,-1.6552,-1.6758,-1.6955,-1.6814,-1.6842,-1.7168,-1.7573,-1.7984,-1.8551,-1.9133,-1.95,-1.9747,-1.9823,0.4416,0.3527,0.3597,0.2941,0.1903,0.1184,0.071,0.0236,-0.0275,-0.0746,-0.0903,-0.0943,-0.1021,-0.1258,-0.1297,-0.1297,-0.1375,-0.1606,-0.1685,-0.1998,-0.2388,-0.2737,-0.2899,-0.356,-0.406,-0.4423,-0.5071,-0.5699,-0.5772,-0.5777,-0.5805,-0.5914,-0.5977,-0.5973,-0.5999,-0.6119,-0.6317,-0.6478,-0.706,-0.7381,-0.7544,-0.8064,-0.8678,-0.9358,-1.0072,-1.0491,-1.0586,-1.0586,-1.0613,-1.066,-1.0613,-1.0955,-1.139,-1.155,-1.179,-1.2171,-1.2305,-1.2305,-1.2342,-1.2886,-1.3244,-1.3644,-1.3926,-1.4343,-1.4764,-1.5065,-1.5384,-1.5763,-1.6324,-1.6897,-1.7079,-1.7545,-1.794,-1.7974,-1.8008,-1.8008,-1.7949,-1.7754,-1.7529,-1.7471,-1.7314,-1.709,-1.6584,-1.6134,-1.5841,-1.5625,-1.5546,-1.5546,-1.5575,-1.5662,-1.574,-1.5798,-1.5856,-1.5914,-1.5943,-1.5972,-1.6,-1.6124,-1.6181,-1.6249,-1.6306,-1.6363,-1.6506,-1.6666,-1.6684,-1.6552,-1.6666,-1.6899,-1.7307,-1.782,-1.8471,-1.9107,-1.9226,-1.9345,-1.9592,0.4828,0.4431,0.4439,0.3913,0.3052,0.262,0.2034,0.1448,0.1018,0.047,0.0039,-0.0157,-0.051,-0.0943,-0.11,-0.114,-0.1255,-0.1277,-0.1282,-0.1406,-0.1669,-0.1864,-0.1996,-0.274,-0.2943,-0.328,-0.4046,-0.4829,-0.5127,-0.5403,-0.5498,-0.5627,-0.5723,-0.5752,-0.5789,-0.5888,-0.5855,-0.602,-0.6309,-0.6568,-0.6629,-0.7381,-0.8129,-0.8844,-0.9588,-1.0168,-1.0555,-1.0586,-1.0673,-1.076,-1.0673,-1.1022,-1.1363,-1.1557,-1.1677,-1.2158,-1.2291,-1.2298,-1.2305,-1.2696,-1.2786,-1.2719,-1.3172,-1.3353,-1.356,-1.3869,-1.4522,-1.5242,-1.5596,-1.6088,-1.6263,-1.6975,-1.7364,-1.751,-1.7716,-1.7886,-1.7876,-1.7564,-1.7282,-1.6977,-1.6738,-1.6494,-1.63,-1.5928,-1.5664,-1.5518,-1.543,-1.542,-1.542,-1.5478,-1.5604,-1.5633,-1.5691,-1.5788,-1.5817,-1.5827,-1.5856,-1.5951,-1.6009,-1.6105,-1.6181,-1.622,-1.6316,-1.6459,-1.6402,-1.6363,-1.6591,-1.6853,-1.7251,-1.7628,-1.8147,-1.8578,-1.8738,-1.8924,-1.9135,0.5018,0.5018,0.5018,0.4621,0.4068,0.3832,0.3324,0.262,0.2308,0.1721,0.1017,0.0861,0.0353,-0.0432,-0.0825,-0.1021,-0.1215,-0.1188,-0.1232,-0.1284,-0.1296,-0.1256,-0.1471,-0.1813,-0.2186,-0.2177,-0.2879,-0.3555,-0.4251,-0.4806,-0.5103,-0.5226,-0.5388,-0.5554,-0.5587,-0.569,-0.5789,-0.5789,-0.5822,-0.5855,-0.6083,-0.6695,-0.7377,-0.7939,-0.8742,-0.9454,-0.9849,-1.0142,-1.0328,-1.0503,-1.0645,-1.0928,-1.1524,-1.147,-1.1597,-1.2024,-1.2171,-1.2211,-1.2204,-1.2228,-1.2236,-1.213,-1.2231,-1.2184,-1.2247,-1.2985,-1.3774,-1.4708,-1.5108,-1.5171,-1.5349,-1.6088,-1.6515,-1.6671,-1.7048,-1.7383,-1.7163,-1.6892,-1.6513,-1.6292,-1.609,-1.5937,-1.577,-1.5782,-1.5527,-1.5498,-1.542,-1.542,-1.542,-1.542,-1.5478,-1.5478,-1.5536,-1.5643,-1.5701,-1.5701,-1.573,-1.5817,-1.5875,-1.5933,-1.599,-1.6066,-1.6163,-1.6288,-1.6288,-1.6306,-1.6524,-1.6779,-1.7168,-1.7506,-1.7809,-1.8108,-1.839,-1.8471,-1.8578,0.5018,0.5018,0.5018,0.494,0.474,0.4107,0.3791,0.3558,0.2854,0.2347,0.1994,0.1956,0.1409,0.047,-0.051,-0.0825,-0.0935,-0.1071,-0.1183,-0.1235,-0.1197,-0.1188,-0.1209,-0.1262,-0.1461,-0.1491,-0.2046,-0.2696,-0.3328,-0.4,-0.4422,-0.4522,-0.5024,-0.5395,-0.5292,-0.5462,-0.5462,-0.5491,-0.5587,-0.5719,-0.5954,-0.6539,-0.6896,-0.7284,-0.7767,-0.8355,-0.878,-0.9198,-0.9534,-0.9695,-1.0238,-1.0709,-1.1029,-1.1082,-1.1209,-1.1503,-1.1744,-1.196,-1.1946,-1.1986,-1.1926,-1.1886,-1.2084,-1.2091,-1.2179,-1.227,-1.2769,-1.2849,-1.3528,-1.4034,-1.4394,-1.5108,-1.5534,-1.5669,-1.5817,-1.5857,-1.5765,-1.5876,-1.5555,-1.548,-1.5242,-1.5306,-1.5282,-1.5361,-1.542,-1.542,-1.542,-1.542,-1.542,-1.542,-1.542,-1.541,-1.5439,-1.5546,-1.5575,-1.5575,-1.5643,-1.5701,-1.5701,-1.5769,-1.5846,-1.5923,-1.6009,-1.6105,-1.6124,-1.622,-1.6381,-1.6684,-1.7056,-1.7268,-1.7407,-1.7738,-1.812,-1.812,-1.7941,0.5673,0.5018,0.5018,0.5018,0.4979,0.4621,0.4504,0.4423,0.4109,0.3599,0.3166,0.3127,0.2501,0.1448,0.0431,0.0,-0.0153,-0.06,-0.0931,-0.1048,-0.1021,-0.1085,-0.1177,-0.1209,-0.1151,-0.1196,-0.1396,-0.1623,-0.23,-0.3084,-0.3685,-0.3785,-0.4386,-0.4755,-0.4824,-0.5196,-0.5362,-0.5425,-0.5455,-0.5524,-0.569,-0.598,-0.6367,-0.6756,-0.7149,-0.754,-0.7994,-0.8318,-0.8581,-0.8678,-0.9032,-0.9515,-1.0042,-1.0294,-1.0497,-1.1156,-1.1289,-1.1443,-1.1597,-1.175,-1.1705,-1.1605,-1.1812,-1.208,-1.2134,-1.2248,-1.2372,-1.2636,-1.2886,-1.3171,-1.347,-1.415,-1.4466,-1.464,-1.4688,-1.4822,-1.4757,-1.4549,-1.4492,-1.4471,-1.4462,-1.4519,-1.4697,-1.4971,-1.5089,-1.5177,-1.5235,-1.5352,-1.5381,-1.542,-1.542,-1.542,-1.541,-1.5449,-1.5449,-1.5478,-1.5478,-1.5546,-1.5546,-1.5604,-1.574,-1.5817,-1.5875,-1.5951,-1.6066,-1.6153,-1.6239,-1.6467,-1.674,-1.6842,-1.6955,-1.7207,-1.739,-1.7207,-1.7151,0.6479,0.5479,0.5285,0.5132,0.5018,0.5018,0.4979,0.4979,0.494,0.4623,0.4187,0.3871,0.3283,0.2496,0.1514,0.096,0.0868,0.0037,-0.0363,-0.054,-0.0745,-0.0918,-0.1035,-0.1075,-0.1094,-0.111,-0.1174,-0.1231,-0.1487,-0.2047,-0.2683,-0.2948,-0.3651,-0.3984,-0.4187,-0.4456,-0.4722,-0.506,-0.5292,-0.5392,-0.5458,-0.5524,-0.5881,-0.6207,-0.6535,-0.6826,-0.7307,-0.7632,-0.767,-0.7767,-0.8059,-0.863,-0.9162,-0.9344,-0.958,-1.0075,-1.0261,-1.0503,-1.0858,-1.1173,-1.1315,-1.135,-1.1464,-1.1891,-1.2245,-1.2298,-1.2335,-1.2489,-1.2562,-1.2636,-1.282,-1.3317,-1.3498,-1.3628,-1.3708,-1.3982,-1.4087,-1.363,-1.3418,-1.3386,-1.3461,-1.3662,-1.3944,-1.446,-1.4726,-1.4854,-1.503,-1.5206,-1.5264,-1.5264,-1.5323,-1.5294,-1.5352,-1.5381,-1.5381,-1.5381,-1.5381,-1.542,-1.542,-1.5449,-1.5575,-1.5643,-1.5701,-1.5807,-1.5951,-1.6009,-1.6048,-1.622,-1.6402,-1.6563,-1.6666,-1.6534,-1.6506,-1.6402,-1.6477,0.7361,0.6707,0.6093,0.5556,0.5057,0.5018,0.5018,0.5002,0.5012,0.4973,0.4683,0.4181,0.3816,0.3374,0.2518,0.1927,0.1878,0.0861,0.05,0.0177,-0.0209,-0.0483,-0.0625,-0.0725,-0.0852,-0.1051,-0.1052,-0.1049,-0.111,-0.131,-0.1779,-0.2213,-0.2915,-0.3182,-0.3349,-0.3585,-0.3984,-0.442,-0.4924,-0.5263,-0.5292,-0.5359,-0.5491,-0.5524,-0.5557,-0.5624,-0.5815,-0.6465,-0.6822,-0.6924,-0.7344,-0.7832,-0.8168,-0.8304,-0.8527,-0.8951,-0.9338,-0.9625,-1.0005,-1.0605,-1.0989,-1.1102,-1.1323,-1.175,-1.2238,-1.2305,-1.2305,-1.2342,-1.2378,-1.2345,-1.2432,-1.2528,-1.2704,-1.2593,-1.2608,-1.2511,-1.26,-1.2471,-1.2259,-1.2313,-1.2466,-1.2673,-1.2826,-1.3274,-1.3944,-1.4133,-1.4401,-1.4579,-1.4844,-1.4932,-1.5089,-1.5147,-1.5264,-1.5323,-1.5323,-1.5352,-1.5381,-1.542,-1.542,-1.542,-1.5449,-1.5478,-1.5546,-1.5643,-1.5788,-1.5817,-1.5904,-1.6087,-1.623,-1.6345,-1.6374,-1.6335,-1.6363,-1.6402,-1.6402,0.7905,0.7254,0.7126,0.6479,0.5556,0.5556,0.528,0.4925,0.4982,0.493,0.4866,0.4556,0.4402,0.4045,0.3376,0.285,0.2737,0.1912,0.1504,0.1312,0.1019,0.0575,0.0271,-0.0102,-0.0236,-0.064,-0.0808,-0.0909,-0.0909,-0.1009,-0.1176,-0.1646,-0.2214,-0.2415,-0.2614,-0.2915,-0.3349,-0.3685,-0.4287,-0.4722,-0.4824,-0.5226,-0.5395,-0.5395,-0.5395,-0.5425,-0.5554,-0.5749,-0.5914,-0.6083,-0.6342,-0.6761,-0.7214,-0.7274,-0.7632,-0.8151,-0.8603,-0.8999,-0.9371,-1.006,-1.0578,-1.1182,-1.1369,-1.1635,-1.2204,-1.2298,-1.2305,-1.2305,-1.2285,-1.2231,-1.2087,-1.2125,-1.2089,-1.1769,-1.1587,-1.1423,-1.1346,-1.1386,-1.1435,-1.1639,-1.167,-1.1732,-1.1849,-1.2004,-1.2734,-1.3381,-1.3683,-1.3983,-1.4282,-1.446,-1.4519,-1.4697,-1.4854,-1.4971,-1.4971,-1.5147,-1.5391,-1.542,-1.542,-1.542,-1.542,-1.542,-1.5478,-1.5546,-1.5614,-1.5701,-1.5817,-1.5972,-1.6087,-1.6192,-1.6249,-1.6267,-1.6306,-1.6363,-1.6402,0.836,0.7851,0.7864,0.7167,0.6081,0.609,0.5796,0.529,0.535,0.5165,0.4967,0.4853,0.4738,0.4517,0.4063,0.3708,0.3473,0.2871,0.2456,0.2196,0.1916,0.1543,0.1141,0.0806,0.0538,-0.0067,-0.0337,-0.0438,-0.0809,-0.0943,-0.1076,-0.1277,-0.1511,-0.1746,-0.198,-0.2447,-0.2882,-0.3049,-0.3549,-0.3951,-0.4054,-0.4386,-0.4891,-0.4924,-0.499,-0.5226,-0.5326,-0.5524,-0.5491,-0.5524,-0.5591,-0.5815,-0.6137,-0.6494,-0.6822,-0.7409,-0.7967,-0.842,-0.8825,-0.9746,-1.0421,-1.1102,-1.1342,-1.1642,-1.2031,-1.2245,-1.2305,-1.2291,-1.2231,-1.2084,-1.1886,-1.1846,-1.1651,-1.1404,-1.1276,-1.1108,-1.0997,-1.0964,-1.0961,-1.1028,-1.1059,-1.1178,-1.1296,-1.1514,-1.2128,-1.2734,-1.3039,-1.3373,-1.3773,-1.3863,-1.3803,-1.4022,-1.4291,-1.441,-1.4529,-1.4942,-1.5303,-1.542,-1.542,-1.542,-1.542,-1.5391,-1.5391,-1.5449,-1.5546,-1.5604,-1.5662,-1.572,-1.5875,-1.6009,-1.6095,-1.6181,-1.6239,-1.6306,-1.6363,0.8604,0.8553,0.8215,0.7392,0.6331,0.6489,0.6386,0.6029,0.6032,0.5784,0.5306,0.4945,0.4715,0.4635,0.4332,0.4253,0.4121,0.3502,0.3159,0.3054,0.2716,0.2179,0.1945,0.1744,0.1409,0.0671,0.0437,0.0134,-0.0539,-0.0572,-0.074,-0.0942,-0.1076,-0.1244,-0.121,-0.1779,-0.2112,-0.2214,-0.2848,-0.3149,-0.3249,-0.3449,-0.3918,-0.4386,-0.4519,-0.4788,-0.5292,-0.5395,-0.5395,-0.5395,-0.5395,-0.5557,-0.5716,-0.5745,-0.591,-0.6181,-0.6247,-0.6572,-0.7129,-0.9274,-1.0283,-1.0683,-1.0757,-1.1198,-1.1748,-1.2052,-1.2221,-1.2131,-1.2071,-1.1904,-1.1757,-1.159,-1.1309,-1.1089,-1.0962,-1.0875,-1.0766,-1.0717,-1.0733,-1.0744,-1.0776,-1.0839,-1.0958,-1.117,-1.1694,-1.2151,-1.2389,-1.2734,-1.3108,-1.3147,-1.2995,-1.3169,-1.3472,-1.3734,-1.3974,-1.4795,-1.5206,-1.5332,-1.5235,-1.5059,-1.5118,-1.5177,-1.5206,-1.5352,-1.5449,-1.5507,-1.5478,-1.5449,-1.5623,-1.5807,-1.6009,-1.6095,-1.6153,-1.6192,-1.6249,0.8727,0.8403,0.8409,0.7919,0.7124,0.7014,0.6683,0.6189,0.6101,0.5825,0.5377,0.5131,0.4795,0.4563,0.4432,0.4399,0.4315,0.4237,0.3928,0.3861,0.3525,0.322,0.2948,0.2648,0.2313,0.1744,0.1477,0.1343,0.1074,0.0403,0.0067,-0.0101,-0.0538,-0.0976,-0.111,-0.1377,-0.1444,-0.1545,-0.208,-0.248,-0.2549,-0.2915,-0.3449,-0.4151,-0.4217,-0.4586,-0.5259,-0.5326,-0.5395,-0.5395,-0.5395,-0.5425,-0.5491,-0.5488,-0.5554,-0.5815,-0.6009,-0.6826,-0.7442,-0.8614,-0.9041,-0.9434,-0.9806,-1.0331,-1.1119,-1.1403,-1.1648,-1.184,-1.1709,-1.1521,-1.1343,-1.1229,-1.1009,-1.0821,-1.0707,-1.07,-1.0645,-1.0638,-1.0618,-1.0649,-1.0649,-1.0744,-1.0839,-1.0926,-1.1358,-1.1608,-1.1849,-1.1942,-1.2228,-1.2174,-1.2081,-1.2259,-1.2528,-1.2887,-1.3364,-1.4124,-1.4519,-1.4588,-1.446,-1.4252,-1.4401,-1.4942,-1.5147,-1.5323,-1.5381,-1.542,-1.542,-1.542,-1.5449,-1.5594,-1.5797,-1.597,-1.6066,-1.6066,-1.6048,0.903,0.8548,0.856,0.8226,0.7696,0.7482,0.7095,0.6603,0.638,0.6109,0.5807,0.56,0.5325,0.4919,0.4664,0.4564,0.4561,0.4334,0.4303,0.4303,0.427,0.3928,0.3656,0.352,0.3117,0.2649,0.238,0.2246,0.171,0.1276,0.0806,0.0403,0.0168,-0.0034,-0.0403,-0.0773,-0.1143,-0.1276,-0.1612,-0.1745,-0.1879,-0.2214,-0.2714,-0.3316,-0.3751,-0.422,-0.4858,-0.5193,-0.5362,-0.5359,-0.5362,-0.5362,-0.5362,-0.5392,-0.5425,-0.5716,-0.5943,-0.6531,-0.6859,-0.699,-0.7345,-0.7734,-0.829,-0.9184,-1.0067,-1.0304,-1.0554,-1.0791,-1.1026,-1.0761,-1.0422,-1.0348,-1.0257,-1.0053,-1.0206,-1.0206,-1.0498,-1.046,-1.0523,-1.0523,-1.0593,-1.0688,-1.0782,-1.0839,-1.1021,-1.1146,-1.1303,-1.1373,-1.1498,-1.1529,-1.156,-1.1771,-1.2042,-1.2489,-1.2917,-1.3373,-1.3713,-1.3842,-1.3803,-1.3713,-1.4519,-1.5186,-1.5235,-1.5264,-1.5323,-1.5352,-1.5391,-1.542,-1.5449,-1.5507,-1.5633,-1.5778,-1.5923,-1.5923,-1.5904,0.9524,0.9017,0.8673,0.8398,0.8055,0.7923,0.7688,0.7438,0.6942,0.6688,0.6651,0.6073,0.5804,0.5727,0.5322,0.509,0.4957,0.4564,0.44,0.4303,0.4303,0.42,0.42,0.4131,0.3725,0.342,0.3151,0.2917,0.2112,0.1978,0.1509,0.0974,0.1108,0.0873,0.0336,-0.0134,-0.0604,-0.0773,-0.1143,-0.1276,-0.1411,-0.1344,-0.1846,-0.2414,-0.2948,-0.3551,-0.4154,-0.4688,-0.4957,-0.509,-0.516,-0.5193,-0.5259,-0.5326,-0.5359,-0.5428,-0.5491,-0.5591,-0.569,-0.5818,-0.5877,-0.6503,-0.7367,-0.8113,-0.8709,-0.915,-0.9401,-0.9551,-0.9641,-0.933,-0.9047,-0.9052,-0.9057,-0.9198,-0.9454,-0.9748,-1.0199,-1.0326,-1.0396,-1.046,-1.053,-1.0624,-1.0713,-1.0807,-1.0674,-1.0902,-1.1059,-1.1122,-1.1247,-1.1404,-1.1466,-1.1584,-1.1888,-1.2243,-1.2612,-1.2773,-1.2895,-1.3047,-1.3472,-1.3593,-1.4519,-1.4913,-1.4658,-1.4628,-1.5118,-1.5264,-1.5147,-1.5264,-1.5478,-1.5507,-1.5546,-1.5643,-1.5778,-1.5778,-1.5778,1.0408,1.0047,0.9614,0.9242,0.8899,0.8483,0.7972,0.7493,0.7293,0.7101,0.6671,0.6544,0.6313,0.5892,0.5719,0.5455,0.519,0.4924,0.4597,0.4467,0.44,0.4334,0.4334,0.4334,0.4164,0.4061,0.3892,0.3792,0.3489,0.3151,0.238,0.171,0.1878,0.1677,0.1342,0.0939,0.047,-0.0101,-0.0571,-0.0873,-0.1008,-0.1008,-0.1444,-0.1946,-0.228,-0.2882,-0.3485,-0.3785,-0.3984,-0.3954,-0.3885,-0.3851,-0.3851,-0.432,-0.4722,-0.5359,-0.5428,-0.5428,-0.5395,-0.5395,-0.5452,-0.5527,-0.6163,-0.6873,-0.7504,-0.8009,-0.8226,-0.8329,-0.8508,-0.8356,-0.8199,-0.8146,-0.8264,-0.8517,-0.8742,-0.9,-0.9422,-0.9716,-0.9779,-0.9875,-1.0009,-1.0206,-1.0358,-1.0396,-1.0326,-1.0618,-1.0814,-1.087,-1.1028,-1.1185,-1.1341,-1.1428,-1.1553,-1.1849,-1.1888,-1.2019,-1.2143,-1.229,-1.2803,-1.3161,-1.3455,-1.3726,-1.3696,-1.4064,-1.4667,-1.4824,-1.4736,-1.5001,-1.542,-1.5449,-1.5449,-1.5546,-1.5614,-1.5633,-1.5633,1.1069,1.0685,1.0408,0.997,0.946,0.9017,0.8474,0.7949,0.7787,0.7428,0.7036,0.6999,0.6839,0.6576,0.6346,0.605,0.5778,0.5521,0.5259,0.5096,0.4697,0.4661,0.4628,0.4597,0.4464,0.4464,0.4464,0.4428,0.4264,0.3894,0.3186,0.2514,0.2614,0.2549,0.2313,0.2111,0.1877,0.1141,0.0403,-0.0269,-0.0538,-0.0706,-0.1177,-0.1512,-0.1745,-0.228,-0.2716,-0.2882,-0.3149,-0.3184,-0.3218,-0.3218,-0.3249,-0.3682,-0.3918,-0.442,-0.442,-0.4589,-0.4791,-0.4924,-0.509,-0.5292,-0.5362,-0.5881,-0.6344,-0.6826,-0.7026,-0.7168,-0.7437,-0.7572,-0.747,-0.7419,-0.7674,-0.7902,-0.8032,-0.8161,-0.8517,-0.8877,-0.9037,-0.9166,-0.9326,-0.9556,-0.9716,-0.9786,-0.9913,-1.004,-1.0231,-1.0421,-1.0674,-1.1028,-1.1153,-1.1247,-1.1279,-1.1373,-1.1404,-1.1529,-1.1802,-1.2035,-1.2397,-1.2665,-1.2665,-1.3031,-1.3494,-1.3923,-1.4312,-1.443,-1.4519,-1.503,-1.542,-1.5391,-1.5352,-1.5449,-1.5488,-1.5478,-1.5507,1.1584,1.1146,1.1083,1.0598,0.9932,0.9588,0.9177,0.8635,0.8371,0.7917,0.7619,0.7554,0.7461,0.7199,0.69,0.6741,0.6441,0.6148,0.5918,0.5888,0.5359,0.519,0.5156,0.5156,0.5027,0.4831,0.4794,0.4924,0.4498,0.4164,0.3792,0.3351,0.3758,0.3727,0.3253,0.3117,0.295,0.2648,0.1643,0.0805,0.0436,0.0034,-0.0472,-0.0774,-0.121,-0.171,-0.2047,-0.248,-0.3015,-0.2984,-0.295,-0.285,-0.3015,-0.3049,-0.3149,-0.3349,-0.3518,-0.3785,-0.4087,-0.422,-0.4522,-0.4824,-0.5196,-0.5079,-0.5214,-0.5855,-0.6196,-0.6298,-0.6541,-0.6609,-0.6511,-0.6576,-0.6798,-0.6994,-0.7125,-0.7288,-0.7549,-0.7999,-0.8452,-0.8613,-0.8877,-0.9037,-0.9037,-0.9139,-0.9236,-0.939,-0.9518,-0.9748,-1.0002,-1.0446,-1.0769,-1.0895,-1.1028,-1.109,-1.1247,-1.1397,-1.1639,-1.1903,-1.2089,-1.2243,-1.2313,-1.2834,-1.3472,-1.3502,-1.3463,-1.4154,-1.4481,-1.4726,-1.4913,-1.5157,-1.5147,-1.5294,-1.5352,-1.5323,-1.542,1.2344,1.2182,1.1778,1.1272,1.073,1.0636,1.0345,0.9983,0.955,0.8812,0.8014,0.7884,0.7759,0.7559,0.7423,0.7265,0.704,0.6839,0.6474,0.628,0.5951,0.5785,0.5723,0.5719,0.5591,0.5624,0.5591,0.5388,0.496,0.4564,0.43,0.4061,0.4334,0.4161,0.3961,0.3861,0.3825,0.3725,0.3017,0.2012,0.1476,0.1241,0.0873,0.0403,-0.0134,-0.0436,-0.0739,-0.0975,-0.1244,-0.1346,-0.138,-0.168,-0.2281,-0.2348,-0.2648,-0.3049,-0.305,-0.3184,-0.3351,-0.3485,-0.3685,-0.3718,-0.3851,-0.3751,-0.4064,-0.4958,-0.545,-0.5487,-0.558,-0.5619,-0.5667,-0.5793,-0.5954,-0.6115,-0.628,-0.6478,-0.6642,-0.719,-0.7767,-0.8064,-0.8328,-0.8393,-0.8361,-0.8425,-0.8587,-0.8651,-0.8716,-0.8844,-0.8941,-0.9294,-0.9996,-1.0256,-1.0706,-1.0832,-1.0926,-1.1052,-1.1163,-1.1327,-1.1452,-1.167,-1.1888,-1.2197,-1.2528,-1.2436,-1.2528,-1.3304,-1.3786,-1.3743,-1.3983,-1.4499,-1.4736,-1.4756,-1.5021,-1.5089,-1.5264,1.259,1.2567,1.2282,1.1833,1.1428,1.1365,1.1101,1.0724,1.044,0.9894,0.9037,0.8533,0.8117,0.7954,0.7922,0.7857,0.7727,0.7591,0.7526,0.7265,0.6736,0.6544,0.6445,0.6346,0.6017,0.5987,0.5921,0.569,0.5422,0.5226,0.4997,0.4694,0.4628,0.4531,0.44,0.43,0.4334,0.4267,0.3825,0.332,0.2547,0.2213,0.171,0.1208,0.1007,0.0773,0.0638,0.0437,0.037,0.0134,-0.0067,-0.074,-0.1277,-0.1512,-0.1746,-0.2048,-0.2214,-0.2414,-0.2581,-0.2681,-0.2781,-0.2948,-0.3151,-0.3349,-0.3418,-0.4172,-0.4203,-0.4306,-0.4776,-0.4891,-0.5093,-0.5223,-0.5587,-0.5818,-0.5918,-0.6013,-0.6181,-0.6474,-0.6765,-0.6896,-0.7092,-0.7218,-0.7223,-0.7293,-0.7489,-0.8004,-0.8037,-0.8264,-0.8328,-0.8231,-0.8903,-0.9384,-0.9671,-0.9862,-0.9761,-1.0053,-1.0471,-1.0636,-1.0933,-1.1185,-1.1459,-1.1428,-1.1459,-1.1794,-1.2189,-1.2673,-1.3009,-1.3078,-1.3381,-1.3932,-1.4082,-1.4103,-1.446,-1.4815,-1.4874,1.259,1.259,1.259,1.2336,1.1934,1.1895,1.1677,1.1272,1.1146,1.0944,1.0458,0.9364,0.8829,0.8608,0.8479,0.8517,0.8452,0.822,0.8317,0.8247,0.7689,0.7433,0.7265,0.7101,0.6839,0.6478,0.6317,0.6185,0.5987,0.5756,0.5491,0.5256,0.509,0.496,0.4564,0.4398,0.4464,0.4334,0.4167,0.4233,0.3692,0.3119,0.2514,0.2179,0.2045,0.1945,0.1776,0.1642,0.1642,0.1374,0.0906,0.0336,-0.0101,-0.0336,-0.0437,-0.0638,-0.0638,-0.1006,-0.1476,-0.161,-0.2112,-0.2581,-0.2848,-0.2915,-0.2882,-0.2915,-0.2948,-0.3249,-0.3716,-0.4187,-0.4386,-0.4589,-0.4987,-0.5253,-0.5319,-0.555,-0.5686,-0.5818,-0.5885,-0.5951,-0.6079,-0.621,-0.6309,-0.635,-0.6675,-0.7199,-0.7489,-0.7777,-0.7907,-0.7679,-0.7874,-0.8064,-0.8226,-0.835,-0.8801,-0.9282,-0.9901,-1.0446,-1.0776,-1.0933,-1.109,-1.1185,-1.1397,-1.1756,-1.2151,-1.2274,-1.2489,-1.265,-1.3047,-1.3321,-1.3381,-1.3524,-1.4172,-1.444,-1.4401,1.259,1.259,1.259,1.2529,1.2436,1.2436,1.2406,1.2243,1.1809,1.1615,1.1358,1.085,1.0098,0.9145,0.8641,0.8705,0.9113,0.8894,0.8797,0.8727,0.8468,0.8312,0.8122,0.7889,0.7857,0.7531,0.7101,0.6843,0.6741,0.6284,0.5921,0.5818,0.5785,0.5524,0.5057,0.4924,0.4794,0.4597,0.4467,0.4467,0.44,0.3894,0.3556,0.322,0.2948,0.2547,0.2213,0.2012,0.1945,0.1777,0.1609,0.1275,0.1007,0.0873,0.0805,0.0638,0.0671,0.0335,-0.0101,-0.0302,-0.0771,-0.1342,-0.1509,-0.1576,-0.1577,-0.1644,-0.1745,-0.1978,-0.2514,-0.3218,-0.3485,-0.3618,-0.3918,-0.4084,-0.4184,-0.4818,-0.5216,-0.5352,-0.5451,-0.5583,-0.5749,-0.5914,-0.6046,-0.6148,-0.6317,-0.6675,-0.6745,-0.7003,-0.7068,-0.697,-0.6937,-0.6999,-0.7064,-0.8032,-0.8967,-0.9,-0.9486,-1.0066,-1.0491,-1.0453,-1.0611,-1.1028,-1.1272,-1.1483,-1.1483,-1.1483,-1.1763,-1.2128,-1.2251,-1.2458,-1.2642,-1.2909,-1.3593,-1.3923,-1.3743]}]]